[[{"header":{"parameterUnit":"m.s-1","parameterCategory":1,"la1":30.6,"la2":28.766,"lo1":-90.7593,"lo2":-88.6598,"dx":0.0162,"dy":0.0183,"nx":116,"ny":114,"refTime":"2022-12-06T18:00:00:Z","depth":0,"parameterNumber":2,"parameterNumberName":"U-component_of_WINDS"},"data":[0.0,0.0,0.0,0.0,0.0,0.0,0.0,0.0,0.0,0.0,0.0,0.0,0.0,0.0,0.0,0.0,0.0,0.0,0.0,0.0,0.0,0.0,0.0,0.0,0.0,0.0,0.0,0.0,0.0,0.0,0.0,0.0,0.0,0.0,0.0,0.0,0.0,0.0,0.0,0.0,0.0,0.0,0.0,0.0,0.0,0.0,0.0,0.0,0.0,0.0,0.0,0.0,0.0,0.0,0.0,0.0,0.0,0.0,0.0,0.0,0.0,0.0,0.0,0.0,0.0,0.0,0.0,0.0,0.0,0.0,0.0,0.0,0.0,0.0,0.0,0.0,0.0,0.0,0.0,0.0,0.0,0.0,0.0,0.0,0.0,0.0,0.0,0.0,0.0,0.0,0.0,0.0,0.0,0.0,0.0,0.0,0.0,0.0,0.0,0.0,0.0,0.0,0.0,0.0,0.0,0.0,0.0,0.0,0.0,0.0,0.0,0.0,0.0,0.0,0.0,0.0,0.0,0.0,0.0,0.0,0.0,0.0,0.0,0.0,0.0,0.0,0.0,0.0,0.0,0.0,0.0,0.0,0.0,0.0,0.0,0.0,0.0,0.0,0.0,0.0,0.0,0.0,0.0,0.0,0.0,0.0,0.0,0.0,0.0,0.0,0.0,0.0,0.0,0.0,0.0,0.0,0.0,0.0,0.0,0.0,0.0,0.0,0.0,0.0,0.0,0.0,0.0,0.0,0.0,0.0,0.0,0.0,0.0,0.0,0.0,0.0,0.0,0.0,0.0,0.0,0.0,0.0,0.0,0.0,0.0,0.0,0.0,0.0,0.0,0.0,0.0,0.0,0.0,0.0,0.0,0.0,0.0,0.0,0.0,0.0,0.0,0.0,0.0,0.0,0.0,0.0,0.0,0.0,0.0,0.0,0.0,0.0,0.0,0.0,0.0,0.0,0.0,0.0,0.0,0.0,0.0,0.0,0.0,0.0,0.0,0.0,0.0,0.0,0.0,0.0,0.0,0.0,0.0,0.0,0.0,0.0,0.0,0.0,0.0,0.0,0.0,0.0,0.0,0.0,0.0,0.0,0.0,0.0,0.0,0.0,0.0,0.0,0.0,0.0,0.0,0.0,0.0,0.0,0.0,0.0,0.0,0.0,0.0,0.0,0.0,0.0,0.0,0.0,0.0,0.0,0.0,0.0,0.0,0.0,0.0,0.0,0.0,0.0,0.0,0.0,0.0,0.0,0.0,0.0,0.0,0.0,0.0,0.0,0.0,0.0,0.0,0.0,0.0,0.0,0.0,0.0,0.0,0.0,0.0,0.0,0.0,0.0,0.0,0.0,0.0,0.0,0.0,0.0,0.0,0.0,0.0,0.0,0.0,0.0,0.0,0.0,0.0,0.0,0.0,0.0,0.0,0.0,0.0,0.0,0.0,0.0,0.0,0.0,0.0,0.0,0.0,0.0,0.0,0.0,0.0,0.0,0.0,0.0,0.0,0.0,0.0,0.0,0.0,0.0,0.0,0.0,0.0,0.0,0.0,0.0,0.0,0.0,0.0,0.0,0.0,0.0,0.0,0.0,0.0,0.0,0.0,0.0,0.0,0.0,0.0,0.0,0.0,0.0,0.0,0.0,0.0,0.0,0.0,0.0,0.0,0.0,0.0,0.0,0.0,0.0,0.0,0.0,0.0,0.0,0.0,0.0,0.0,0.0,0.0,0.0,0.0,0.0,0.0,0.0,0.0,0.0,0.0,0.0,0.0,0.0,0.0,0.0,0.0,0.0,0.0,0.0,0.0,0.0,0.0,0.0,0.0,0.0,0.0,0.0,0.0,0.0,0.0,0.0,0.0,0.0,0.0,0.0,0.0,0.0,0.0,0.0,0.0,0.0,0.0,0.0,0.0,0.0,0.0,0.0,0.0,0.0,0.0,0.0,0.0,0.0,0.0,0.0,0.0,0.0,0.0,0.0,0.0,0.0,0.0,0.0,0.0,0.0,0.0,0.0,0.0,0.0,0.0,0.0,0.0,0.0,0.0,0.0,0.0,0.0,0.0,0.0,0.0,0.0,0.0,0.0,0.0,0.0,0.0,0.0,0.0,0.0,0.0,0.0,0.0,0.0,0.0,0.0,0.0,0.0,0.0,0.0,0.0,0.0,0.0,0.0,0.0,0.0,0.0,0.0,0.0,0.0,0.0,0.0,0.0,0.0,0.0,0.0,0.0,0.0,0.0,0.0,0.0,0.0,0.0,0.0,0.0,0.0,0.0,0.0,0.0,0.0,0.0,0.0,0.0,0.0,0.0,0.0,0.0,0.0,0.0,0.0,0.0,0.0,0.0,0.0,0.0,0.0,0.0,0.0,0.0,0.0,0.0,0.0,0.0,0.0,0.0,0.0,0.0,0.0,0.0,0.0,0.0,0.0,0.0,0.0,0.0,0.0,0.0,0.0,0.0,0.0,0.0,0.0,0.0,0.0,0.0,0.0,0.0,0.0,0.0,0.0,0.0,0.0,0.0,0.0,0.0,0.0,0.0,0.0,0.0,0.0,0.0,0.0,0.0,0.0,0.0,0.0,0.0,0.0,0.0,0.0,0.0,0.0,0.0,0.0,0.0,0.0,0.0,0.0,0.0,0.0,0.0,0.0,0.0,0.0,0.0,0.0,0.0,0.0,0.0,0.0,0.0,0.0,0.0,0.0,0.0,0.0,0.0,0.0,0.0,0.0,0.0,0.0,0.0,0.0,0.0,0.0,0.0,0.0,0.0,0.0,0.0,0.0,0.0,0.0,0.0,0.0,0.0,0.0,0.0,0.0,0.0,0.0,0.0,0.0,0.0,0.0,0.0,0.0,0.0,0.0,0.0,0.0,0.0,0.0,0.0,0.0,0.0,0.0,0.0,0.0,0.0,0.0,0.0,0.0,0.0,0.0,0.0,0.0,0.0,0.0,0.0,0.0,0.0,0.0,0.0,0.0,0.0,0.0,0.0,0.0,0.0,0.0,0.0,0.0,0.0,0.0,0.0,0.0,0.0,0.0,0.0,0.0,0.0,0.0,0.0,0.0,0.0,0.0,0.0,0.0,0.0,0.0,0.0,0.0,0.0,0.0,0.0,0.0,0.0,0.0,0.0,0.0,0.0,0.0,0.0,0.0,0.0,0.0,0.0,0.0,0.0,0.0,0.0,0.0,0.0,0.0,0.0,0.0,0.0,0.0,0.0,0.0,0.0,0.0,0.0,0.0,0.0,0.0,0.0,0.0,0.0,0.0,0.0,0.0,0.0,0.0,0.0,0.0,0.0,0.0,0.0,0.0,0.0,0.0,0.0,0.0,0.0,0.0,0.0,0.0,0.0,0.0,0.0,0.0,0.0,0.0,0.0,0.0,0.0,0.0,0.0,0.0,0.0,0.0,0.0,0.0,0.0,0.0,0.0,0.0,0.0,0.0,0.0,0.0,0.0,0.0,0.0,0.0,0.0,0.0,0.0,0.0,0.0,0.0,0.0,0.0,0.0,0.0,0.0,0.0,0.0,0.0,0.0,0.0,0.0,0.0,0.0,0.0,0.0,0.0,0.0,0.0,0.0,0.0,0.0,0.0,0.0,0.0,0.0,0.0,0.0,0.0,0.0,0.0,0.0,0.0,0.0,0.0,0.0,0.0,0.0,0.0,0.0,0.0,0.0,0.0,0.0,0.0,0.0,0.0,0.0,0.0,0.0,0.0,0.0,0.0,0.0,0.0,0.0,0.0,0.0,0.0,0.0,0.0,0.0,0.0,0.0,0.0,0.0,0.0,0.0,0.0,0.0,0.0,0.0,0.0,0.0,0.0,0.0,0.0,0.0,0.0,0.0,0.0,0.0,0.0,0.0,0.0,0.0,0.0,0.0,0.0,0.0,0.0,0.0,0.0,0.0,0.0,0.0,0.0,0.0,0.0,0.0,0.0,0.0,0.0,0.0,0.0,0.0,0.0,0.0,0.0,0.0,0.0,0.0,0.0,0.0,0.0,0.0,0.0,0.0,0.0,0.0,0.0,0.0,0.0,0.0,0.0,0.0,0.0,0.0,0.0,0.0,0.0,0.0,0.0,0.0,0.0,0.0,0.0,0.0,0.0,0.0,0.0,0.0,0.0,0.0,0.0,0.0,0.0,0.0,0.0,0.0,0.0,0.0,0.0,0.0,0.0,0.0,0.0,0.0,0.0,0.0,0.0,0.0,0.0,0.0,0.0,0.0,0.0,0.0,0.0,0.0,0.0,0.0,0.0,0.0,0.0,0.0,0.0,0.0,0.0,0.0,0.0,0.0,0.0,0.0,0.0,0.0,0.0,0.0,0.0,0.0,0.0,0.0,0.0,0.0,0.0,0.0,0.0,0.0,0.0,0.0,0.0,0.0,0.0,0.0,0.0,0.0,0.0,0.0,0.0,0.0,0.0,0.0,0.0,0.0,0.0,0.0,0.0,0.0,0.0,0.0,0.0,0.0,0.0,0.0,0.0,0.0,0.0,0.0,0.0,0.0,0.0,0.0,0.0,0.0,0.0,0.0,0.0,0.0,0.0,0.0,0.0,0.0,0.0,0.0,0.0,0.0,0.0,0.0,0.0,0.0,0.0,0.0,0.0,0.0,0.0,0.0,0.0,0.0,0.0,0.0,0.0,0.0,0.0,0.0,0.0,0.0,0.0,0.0,0.0,0.0,0.0,0.0,0.0,0.0,0.0,0.0,0.0,0.0,0.0,0.0,0.0,0.0,0.0,0.0,0.0,0.0,0.0,0.0,0.0,0.0,0.0,0.0,0.0,0.0,0.0,0.0,0.0,0.0,0.0,0.0,0.0,0.0,0.0,0.0,0.0,0.0,0.0,0.0,0.0,0.0,0.0,0.0,0.0,0.0,0.0,0.0,0.0,0.0,0.0,0.0,0.0,0.0,0.0,0.0,0.0,0.0,0.0,0.0,0.0,0.0,0.0,0.0,0.0,0.0,0.0,0.0,0.0,0.0,0.0,0.0,0.0,0.0,0.0,0.0,0.0,0.0,0.0,0.0,0.0,0.0,0.0,0.0,0.0,0.0,0.0,0.0,0.0,0.0,0.0,0.0,0.0,0.0,0.0,0.0,0.0,0.0,0.0,0.0,0.0,0.0,0.0,0.0,0.0,0.0,0.0,0.0,0.0,0.0,0.0,0.0,0.0,0.0,0.0,0.0,0.0,0.0,0.0,0.0,0.0,0.0,0.0,0.0,0.0,0.0,0.0,0.0,0.0,0.0,0.0,0.0,0.0,0.0,0.0,0.0,0.0,0.0,0.0,0.0,0.0,0.0,0.0,0.0,0.0,0.0,0.0,0.0,0.0,0.0,0.0,0.0,0.0,0.0,0.0,0.0,0.0,0.0,0.0,0.0,0.0,0.0,0.0,0.0,0.0,0.0,0.0,0.0,0.0,0.0,0.0,0.0,0.0,0.0,0.0,0.0,0.0,0.0,0.0,0.0,0.0,0.0,0.0,0.0,0.0,0.0,0.0,0.0,0.0,0.0,0.0,0.0,0.0,0.0,0.0,0.0,0.0,0.0,0.0,0.0,0.0,0.0,0.0,0.0,0.0,0.0,0.0,0.0,0.0,0.0,0.0,0.0,0.0,0.0,0.0,0.0,0.0,0.0,0.0,0.0,0.0,0.0,0.0,0.0,0.0,0.0,0.0,0.0,0.0,0.0,0.0,0.0,0.0,0.0,0.0,0.0,0.0,0.0,0.0,0.0,0.0,0.0,0.0,0.0,0.0,0.0,0.0,0.0,0.0,0.0,0.0,0.0,0.0,0.0,0.0,0.0,0.0,0.0,0.0,0.0,0.0,0.0,0.0,0.0,0.0,0.0,0.0,0.0,0.0,0.0,0.0,0.0,0.0,0.0,0.0,0.0,0.0,0.0,0.0,0.0,0.0,0.0,0.0,0.0,0.0,0.0,0.0,0.0,0.0,0.0,0.0,0.0,0.0,0.0,0.0,0.0,0.0,0.0,0.0,0.0,0.0,0.0,0.0,0.0,0.0,0.0,0.0,0.0,0.0,0.0,0.0,0.0,0.0,0.0,0.0,0.0,0.0,0.0,0.0,0.0,0.0,0.0,0.0,-1.9496,-1.8898,0.0,0.0,0.0,0.0,0.0,0.0,0.0,0.0,0.0,0.0,0.0,0.0,0.0,0.0,0.0,0.0,0.0,0.0,0.0,0.0,0.0,0.0,0.0,-1.3413,-1.3413,-1.3413,-1.3354,0.0,0.0,0.0,0.0,0.0,0.0,0.0,0.0,0.0,-1.1967,-1.1642,-1.305,-1.4288,-1.5261,-1.4808,-1.3892,-1.2606,0.0,0.0,0.0,0.0,0.0,0.0,0.0,0.0,0.0,0.0,0.0,0.0,0.0,0.0,0.0,0.0,0.0,0.0,0.0,0.0,0.0,0.0,0.0,0.0,0.0,0.0,0.0,0.0,0.0,0.0,0.0,0.0,0.0,0.0,0.0,0.0,0.0,0.0,0.0,0.0,0.0,0.0,0.0,0.0,0.0,0.0,0.0,0.0,0.0,0.0,0.0,0.0,0.0,0.0,0.0,0.0,0.0,0.0,0.0,0.0,0.0,0.0,0.0,0.0,0.0,0.0,0.0,0.0,0.0,0.0,-2.1369,-2.0342,0.0,0.0,0.0,0.0,0.0,0.0,0.0,0.0,0.0,0.0,0.0,0.0,0.0,0.0,0.0,0.0,0.0,0.0,0.0,0.0,0.0,-1.3447,-1.3574,-1.3718,-1.3853,-1.3955,-1.3989,-1.3938,-1.3902,-1.3657,0.0,0.0,0.0,0.0,-1.2782,-1.3427,-1.3543,-1.3109,-1.5364,-1.7515,-1.9412,-2.0025,-1.8785,-1.6,-1.4625,0.0,0.0,0.0,0.0,0.0,0.0,0.0,0.0,0.0,0.0,0.0,0.0,0.0,0.0,0.0,0.0,0.0,0.0,0.0,0.0,0.0,0.0,0.0,0.0,0.0,0.0,0.0,0.0,0.0,0.0,0.0,0.0,0.0,0.0,0.0,0.0,0.0,0.0,0.0,0.0,0.0,0.0,0.0,0.0,0.0,0.0,0.0,0.0,0.0,0.0,0.0,0.0,0.0,0.0,0.0,0.0,0.0,0.0,0.0,0.0,0.0,0.0,0.0,-2.3654,-2.4066,-2.4165,-2.4874,-2.5163,-2.5043,-2.3211,-2.197,-2.1144,-2.0326,0.0,0.0,0.0,0.0,0.0,0.0,0.0,0.0,0.0,0.0,0.0,0.0,0.0,0.0,0.0,0.0,0.0,0.0,0.0,-1.3642,-1.4301,-1.4919,-1.5571,-1.6224,-1.6258,-1.6248,-1.6248,-1.5044,0.0,0.0,0.0,-1.4568,-1.5049,-1.5727,-1.6298,-1.6707,-1.9491,-2.1615,-2.3014,-2.3063,-2.3061,-2.2927,-1.9209,-1.6763,-1.5428,0.0,0.0,0.0,0.0,0.0,0.0,0.0,0.0,0.0,0.0,0.0,0.0,0.0,0.0,0.0,0.0,0.0,0.0,0.0,0.0,0.0,0.0,0.0,0.0,0.0,0.0,0.0,0.0,0.0,0.0,0.0,0.0,0.0,0.0,0.0,0.0,0.0,0.0,0.0,0.0,0.0,-1.5922,-1.6077,0.0,0.0,0.0,0.0,0.0,0.0,0.0,0.0,0.0,0.0,0.0,0.0,0.0,-2.1818,-2.2897,-2.3832,-2.4462,-2.4731,-2.509,-2.5354,-2.5527,-2.5524,-2.5595,-2.5658,-2.51,0.0,-2.3252,-2.256,0.0,0.0,0.0,0.0,0.0,0.0,0.0,0.0,0.0,0.0,0.0,0.0,0.0,0.0,0.0,0.0,0.0,0.0,0.0,0.0,0.0,-1.6136,-1.7117,-1.7873,-1.7941,-1.776,-1.7288,-1.6254,0.0,0.0,-1.5184,-1.5312,-1.5975,-1.7085,-1.8711,-2.0946,-2.262,-2.4093,-2.5352,-2.5648,-2.5638,-2.5194,-2.3238,-2.1003,-1.863,-1.7472,0.0,0.0,0.0,0.0,0.0,0.0,0.0,0.0,0.0,0.0,0.0,0.0,0.0,0.0,0.0,0.0,0.0,0.0,0.0,0.0,0.0,0.0,0.0,0.0,0.0,0.0,0.0,0.0,0.0,0.0,0.0,0.0,0.0,0.0,0.0,0.0,0.0,0.0,0.0,-1.6653,-1.7818,-1.7792,-1.7358,-1.6933,0.0,0.0,0.0,0.0,0.0,0.0,0.0,0.0,0.0,-2.1845,-2.2914,-2.4166,-2.5631,-2.5742,-2.612,-2.6721,-2.6526,-2.6466,-2.6583,-2.6525,-2.6539,-2.6568,-2.6437,-2.5819,-2.4857,-2.3873,-2.2391,-2.0626,0.0,0.0,0.0,0.0,-1.8075,-1.8591,0.0,0.0,0.0,0.0,0.0,0.0,0.0,0.0,0.0,0.0,0.0,0.0,-1.6401,-1.7839,-1.9137,-2.0268,-2.0187,-1.9799,-1.9163,-1.7906,-1.6886,-1.6285,-1.603,-1.6353,-1.7205,-1.9075,-2.1425,-2.4187,-2.5477,-2.6574,-2.7442,-2.8201,-2.8126,-2.7314,-2.6654,-2.4666,-2.167,-2.0173,-1.8481,-1.6687,0.0,0.0,0.0,0.0,0.0,0.0,0.0,0.0,0.0,0.0,0.0,0.0,0.0,0.0,0.0,0.0,0.0,0.0,0.0,0.0,0.0,0.0,0.0,0.0,0.0,0.0,0.0,0.0,0.0,0.0,0.0,0.0,0.0,0.0,0.0,0.0,0.0,-1.8623,-1.9519,-1.9397,-1.8816,-1.8334,0.0,0.0,0.0,0.0,0.0,0.0,-2.038,-2.175,-2.2966,-2.3957,-2.4986,-2.6222,-2.7684,-2.7178,-2.7311,-2.808,-2.7283,-2.694,-2.7003,-2.7037,-2.7053,-2.7069,-2.7053,-2.6713,-2.6046,-2.5016,-2.3768,-2.2422,-2.1791,-2.0708,-1.9617,-2.0281,-2.0953,-2.1639,0.0,0.0,0.0,0.0,0.0,0.0,0.0,0.0,0.0,0.0,0.0,-1.6516,-1.8767,-2.0291,-2.1976,-2.4139,-2.3623,-2.3144,-2.3036,-2.0295,-1.8632,-1.8525,-1.7797,-1.8025,-1.9399,-2.2622,-2.4684,-2.5519,-2.826,-2.9675,-2.9751,-3.089,-3.1214,-3.0882,-2.92,-2.6914,-2.4233,-2.2732,-2.1373,-1.9989,-1.8003,0.0,0.0,0.0,0.0,0.0,0.0,0.0,0.0,0.0,0.0,0.0,0.0,0.0,0.0,0.0,0.0,0.0,0.0,0.0,0.0,0.0,0.0,0.0,0.0,0.0,0.0,0.0,0.0,0.0,0.0,0.0,0.0,0.0,0.0,0.0,0.0,0.0,0.0,-2.0434,-2.0234,0.0,0.0,0.0,0.0,-1.9732,-2.04,-2.1068,-2.1755,-2.3204,-2.4388,-2.5277,-2.6886,-2.8015,-2.8512,-2.8009,-2.7932,-2.8262,-2.6978,-2.6418,-2.6522,-2.6607,-2.6657,-2.6708,-2.6657,-2.6624,-2.664,-2.6109,-2.4952,-2.3548,-2.3536,-2.3055,-2.2398,-2.3041,-2.3411,-2.3666,0.0,0.0,0.0,-1.2736,-1.2867,-1.2931,-1.2995,-1.3147,-1.375,-1.5114,-1.6389,-1.8072,-2.0426,-2.276,-2.4649,-2.5991,-2.571,-2.5226,-2.4674,-2.2189,-2.0489,-1.9942,-1.9515,-2.0341,-2.2572,-2.4267,-2.6134,-2.8264,-2.9351,-3.0322,-3.1126,-3.1358,-3.1363,-3.116,-3.0217,-2.8922,-2.7356,-2.4898,-2.3071,-2.162,-1.9662,-1.7714,0.0,0.0,0.0,0.0,0.0,0.0,0.0,0.0,0.0,0.0,0.0,0.0,0.0,0.0,0.0,0.0,0.0,0.0,0.0,0.0,0.0,0.0,0.0,0.0,0.0,0.0,0.0,0.0,0.0,0.0,0.0,0.0,0.0,0.0,0.0,0.0,0.0,-2.1182,-2.1148,0.0,-2.0436,-2.0387,-2.0654,-2.1327,-2.1644,-2.2239,-2.3309,-2.4365,-2.5379,-2.6337,-2.7504,-2.8209,-2.8271,-2.7753,-2.7369,-2.7192,-2.6325,-2.5994,-2.6119,-2.6152,-2.6206,-2.6243,-2.6224,-2.6241,-2.6243,-2.6013,-2.5463,-2.4747,-2.4734,-2.42,-2.3551,-2.4323,-2.4623,-2.4756,0.0,0.0,0.0,-1.2778,-1.2843,-1.2917,-1.3022,-1.34,-1.4251,-1.5915,-1.7714,-1.982,-2.244,-2.478,-2.667,-2.7964,-2.7384,-2.6706,-2.61,-2.38,-2.2058,-2.1214,-2.1374,-2.245,-2.4537,-2.5726,-2.7474,-2.9681,-3.0254,-3.1117,-3.2232,-3.2239,-3.2137,-3.1931,-3.1228,-3.05,-2.9637,-2.7254,-2.5186,-2.3317,-2.1377,-1.9588,-1.7864,0.0,0.0,0.0,0.0,0.0,0.0,0.0,0.0,0.0,0.0,0.0,0.0,0.0,0.0,0.0,0.0,0.0,0.0,0.0,0.0,0.0,0.0,0.0,0.0,0.0,0.0,0.0,0.0,0.0,0.0,0.0,0.0,0.0,0.0,-2.0591,-2.1544,-2.1721,-2.1698,-2.1586,-2.137,-2.1349,-2.1611,-2.2294,-2.2374,-2.2958,-2.4218,-2.4857,-2.5597,-2.6561,-2.7328,-2.7673,-2.7525,-2.702,-2.6648,-2.6462,-2.5831,-2.5551,-2.5696,-2.5715,-2.5752,-2.5807,-2.5844,-2.5881,-2.5881,-2.577,-2.5604,-2.5391,-2.5374,-2.5057,-2.4593,-2.5069,-2.5302,-2.5403,0.0,0.0,-1.195,-1.2681,-1.2876,-1.2926,-1.3091,-1.3828,-1.5033,-1.6851,-1.9072,-2.1712,-2.4829,-2.6373,-2.8048,-3.0218,-2.8739,-2.7629,-2.7448,-2.5106,-2.3307,-2.2407,-2.3392,-2.4341,-2.5159,-2.7158,-2.871,-2.9746,-3.1153,-3.2289,-3.3129,-3.3684,-3.3745,-3.3487,-3.2426,-3.1584,-3.0958,-2.9831,-2.7784,-2.5158,-2.3275,-2.1598,-2.0099,0.0,0.0,0.0,0.0,0.0,0.0,0.0,0.0,0.0,0.0,0.0,0.0,0.0,0.0,0.0,0.0,0.0,0.0,0.0,0.0,0.0,0.0,0.0,0.0,0.0,0.0,0.0,0.0,0.0,0.0,0.0,0.0,0.0,-1.9933,-2.1286,-2.2061,-2.2004,-2.1903,-2.1765,-2.1633,-2.1611,-2.189,-2.2535,-2.2592,-2.3135,-2.4369,-2.4579,-2.5065,-2.5925,-2.6322,-2.6482,-2.6363,-2.588,-2.5811,-2.6129,-2.5441,-2.5162,-2.5278,-2.5355,-2.5394,-2.5394,-2.554,-2.5565,-2.5551,-2.5451,-2.5336,-2.5298,-2.5508,-2.557,-2.5584,-2.5451,-2.5489,-2.5589,-1.247,-1.2546,-1.2574,-1.2769,-1.2857,-1.2922,-1.3013,-1.381,-1.5426,-1.8293,-2.0258,-2.2768,-2.6427,-2.7939,-2.9144,-3.0286,-2.9102,-2.8215,-2.7992,-2.5538,-2.3989,-2.383,-2.4553,-2.5559,-2.6816,-2.8081,-2.9437,-3.0927,-3.1999,-3.295,-3.3841,-3.3853,-3.3848,-3.3771,-3.3166,-3.2421,-3.161,-3.086,-2.9562,-2.7833,-2.5592,-2.3623,-2.1859,0.0,0.0,0.0,0.0,0.0,0.0,0.0,0.0,0.0,0.0,0.0,0.0,0.0,0.0,0.0,0.0,0.0,0.0,0.0,0.0,0.0,0.0,0.0,0.0,0.0,0.0,0.0,0.0,0.0,0.0,0.0,-1.775,-1.8909,-1.9992,-2.0983,-2.1725,-2.2119,-2.2198,-2.2198,-2.2061,-2.2061,-2.2117,-2.2287,-2.2287,-2.2654,-2.3445,-2.3623,-2.4128,-2.5032,-2.5282,-2.5296,-2.5093,-2.4978,-2.4884,-2.4813,-2.4606,-2.4625,-2.4806,-2.4795,-2.4815,-2.4815,-2.4954,-2.5013,-2.5013,-2.4985,-2.4946,-2.4946,-2.5182,-2.522,-2.5162,-2.5123,-2.5182,-2.5246,-1.2473,-1.268,-1.2829,-1.2811,-1.2848,-1.2913,-1.2995,-1.405,-1.5949,-1.889,-2.0997,-2.3684,-2.7554,-2.8816,-2.9744,-3.0692,-2.9667,-2.8733,-2.8129,-2.5978,-2.4706,-2.4654,-2.5838,-2.6926,-2.7867,-2.8962,-3.0228,-3.1752,-3.2364,-3.3115,-3.4025,-3.4,-3.3949,-3.3873,-3.3539,-3.2846,-3.1899,-3.1344,-3.0202,-2.8651,-2.7161,-2.56,-2.4079,-2.3374,-2.2593,-2.1724,-2.0319,-1.9654,-1.9243,-1.7542,0.0,0.0,0.0,0.0,0.0,0.0,0.0,0.0,0.0,0.0,0.0,0.0,0.0,0.0,0.0,0.0,0.0,0.0,0.0,0.0,0.0,0.0,0.0,0.0,-1.85,-1.9342,-2.0143,-2.0955,-2.1616,-2.2002,-2.2147,-2.2217,-2.2194,-2.2194,-2.2194,-2.2194,-2.2194,-2.2475,-2.3069,-2.317,-2.3486,-2.4099,-2.4221,-2.4194,-2.3888,-2.3955,-2.3947,-2.3931,-2.3931,-2.4015,-2.4183,-2.4183,-2.4204,-2.4266,-2.4349,-2.441,-2.4451,-2.4462,-2.4441,-2.4421,0.0,0.0,0.0,0.0,-2.4786,-2.4875,-1.2156,-1.2497,-1.2867,-1.282,-1.2848,-1.2904,-1.2986,-1.4422,-1.6441,-1.9074,-2.1435,-2.433,-2.8164,-2.9056,-2.9814,-3.0957,-2.9978,-2.8814,-2.7582,-2.6293,-2.5435,-2.5097,-2.7048,-2.821,-2.8479,-2.9802,-3.1073,-3.2177,-3.2457,-3.3035,-3.3899,-3.4025,-3.4025,-3.3899,-3.3642,-3.3002,-3.2029,-3.1504,-3.0209,-2.8453,-2.816,-2.7347,-2.6199,-2.521,-2.4597,-2.3996,-2.2283,-2.1762,-2.1714,-2.0362,0.0,0.0,0.0,0.0,0.0,0.0,0.0,0.0,0.0,0.0,0.0,0.0,0.0,0.0,0.0,0.0,0.0,0.0,0.0,0.0,0.0,0.0,0.0,0.0,-1.9008,-1.9483,-2.0244,-2.1019,-2.1578,-2.1746,-2.1912,-2.2053,-2.217,-2.2194,-2.2194,-2.2194,-2.2194,-2.2475,-2.3069,-2.3041,0.0,0.0,0.0,-2.3182,-2.2859,-2.2971,-2.3127,-2.3319,-2.3319,-2.3384,-2.3523,-2.3583,-2.3708,-2.3794,-2.3876,-2.4001,-2.4109,-2.4048,-2.3915,-2.376,-2.4213,-2.44,-2.438,-2.4276,-2.4328,-2.4492,-1.2833,-1.2833,-1.2867,-1.282,-1.282,-1.2848,-1.2898,-1.434,-1.6558,-1.9704,-2.1647,-2.4213,-2.8084,-2.849,-2.8716,-2.9445,-2.8323,-2.6893,-2.5266,-2.5719,-2.5962,-2.5659,-2.7667,-2.8885,-2.9062,-3.0452,-3.1512,-3.2112,-3.2809,-3.3386,-3.3899,-3.3924,-3.3975,-3.405,-3.3899,-3.3285,-3.2361,-3.1899,-3.0852,-2.9565,-2.9193,-2.7917,-2.6312,-2.6373,-2.6061,-2.5448,-2.425,-2.3569,-2.2951,-2.1126,-2.0438,-2.0198,-1.9546,-1.842,0.0,0.0,0.0,0.0,0.0,0.0,0.0,0.0,0.0,0.0,0.0,0.0,0.0,0.0,0.0,0.0,0.0,0.0,0.0,-1.8186,-1.8901,-1.953,-2.0016,-2.0598,-2.1115,-2.1578,-2.1841,-2.2053,-2.217,-2.2194,-2.2194,-2.2194,-2.2194,-2.2475,-2.3069,-2.262,-2.2615,-2.3118,-2.2691,-2.2475,-2.2495,-2.2518,-2.2632,-2.283,-2.283,0.0,-2.3061,-2.3541,-2.3774,-2.385,-2.4447,-2.4699,-2.4693,-2.4332,-2.3799,-2.3282,-2.3631,-2.3782,-2.3782,-2.3739,-2.3824,-2.3952,-1.368,-1.3314,-1.2959,-1.2867,-1.2857,-1.2852,-1.2889,-1.435,-1.6511,-1.9419,-2.1547,-2.3977,-2.7072,-2.7574,-2.774,-2.7878,-2.6899,-2.6076,-2.5738,-2.6046,-2.6321,-2.6394,-2.8389,-2.9559,-2.9684,-3.1079,-3.2002,-3.2351,-3.2562,-3.2823,-3.3157,-3.3308,-3.3458,-3.3582,-3.3433,-3.2891,-3.2094,-3.1324,-3.031,-2.9159,-2.8807,-2.7925,-2.6873,-2.7219,-2.6831,-2.5987,-2.5183,-2.4574,-2.3887,-2.2592,-2.2143,-2.2054,-2.1415,-2.0498,-1.9588,0.0,0.0,0.0,0.0,0.0,0.0,0.0,0.0,0.0,0.0,0.0,0.0,0.0,0.0,-1.6272,-1.6978,0.0,-1.7762,-1.8388,-1.9066,-1.9629,-1.9939,-2.0472,-2.0968,-2.1434,-2.1722,-2.1983,-2.217,-2.2194,-2.2334,-2.262,-2.2648,-2.2925,-2.3572,-2.3319,-2.3291,-2.36,-2.3319,-2.3174,-2.3247,-2.3247,-2.332,-2.3387,-2.3387,-2.3435,-2.3512,-2.3826,-2.3965,-2.4013,-2.4378,-2.457,-2.4615,-2.4076,-2.3612,-2.3299,-2.3133,-2.3172,-2.3231,-2.3231,-2.3348,-2.3458,-1.456,-1.4017,-1.3483,-1.316,-1.3128,-1.3146,-1.3141,-1.4488,-1.635,-1.8742,-2.1146,-2.3393,-2.5414,-2.6184,-2.6386,-2.5982,-2.5375,-2.5387,-2.6283,-2.6389,-2.661,-2.6956,-2.892,-3.0016,-3.0145,-3.129,-3.1986,-3.223,-3.1909,-3.186,-3.2171,-3.2478,-3.27,-3.2846,-3.2692,-3.2249,-3.1516,-3.0617,-2.9572,-2.8511,-2.818,-2.7725,-2.7318,-2.7565,-2.7071,-2.6169,-2.5491,-2.4984,-2.4515,-2.3819,-2.361,-2.352,-2.3032,-2.2433,-2.1774,-2.1162,-2.0322,0.0,0.0,0.0,0.0,0.0,0.0,0.0,0.0,-1.8721,-1.8376,-1.7786,-1.7602,-1.765,-1.7843,-1.8064,-1.8362,-1.8847,-1.9344,-1.9785,-2.0093,-2.0573,-2.1044,-2.1434,-2.1674,-2.1944,-2.2339,-2.239,-2.262,-2.3238,-2.327,-2.355,-2.4193,-2.4086,-2.4058,-2.425,-2.4112,-2.4053,-2.4078,-2.4078,-2.4078,-2.4078,-2.4078,-2.4078,-2.4078,-2.4219,-2.4298,-2.4374,-2.4487,-2.451,-2.4469,-2.3867,-2.3525,-2.3355,-2.2751,-2.2609,-2.2791,-2.2836,-2.2904,-2.2994,-1.5391,-1.5271,-1.4967,-1.412,-1.3982,-1.3988,-1.4051,-1.4876,-1.6167,-1.7975,-2.0292,-2.2103,-2.3076,-2.3791,-2.392,-2.3285,-2.3487,-2.3797,-2.4188,-2.5915,-2.6922,-2.6917,-2.8834,-2.9904,-2.9929,-3.0483,-3.0861,-3.0984,-3.0819,-3.0967,-3.1336,-3.1491,-3.171,-3.195,-3.2054,-3.1611,-3.0785,-3.0488,-2.9722,-2.8661,-2.8301,-2.7649,-2.6844,-2.6782,-2.6574,-2.6233,-2.5103,-2.4642,-2.4515,-2.3819,-2.361,-2.358,-2.352,-2.3092,-2.2484,-2.1873,-2.1581,-2.1409,-2.099,-2.1326,-2.1736,-2.1606,-2.1376,-2.1028,0.0,-1.9631,-1.8924,-1.8632,-1.8237,-1.8071,-1.8437,-1.8717,-1.9032,-1.9448,-1.9759,-2.0118,-2.0622,-2.097,-2.1288,-2.1698,-2.1769,-2.211,-2.2905,-2.2985,-2.3266,-2.3938,-2.3814,-2.4016,-2.4682,-2.4052,-2.397,-2.471,-2.4128,-2.39,-2.4078,-2.4078,-2.4078,-2.4078,-2.4078,-2.4078,-2.4106,-2.4641,-2.4894,-2.4922,-2.5485,-2.54,-2.4892,-2.427,-2.3678,-2.309,-2.2494,-2.224,-2.231,-2.2569,-2.2661,-2.2661,-1.6103,-1.6038,-1.5929,-1.5556,-1.4811,-1.4302,-1.4353,-1.4734,-1.5642,-1.7334,-1.9247,-2.0558,-2.0883,-2.1017,-2.1236,-2.1587,-2.2471,-2.3513,-2.4753,-2.5955,-2.6777,-2.702,-2.8609,-2.9454,-2.9312,-3.031,-3.0797,-3.0664,-3.0392,-3.0322,-3.0438,-3.076,-3.103,-3.1186,-3.1279,-3.1172,-3.078,-3.0133,-2.9506,-2.8842,-2.8068,-2.7398,-2.6825,-2.5805,-2.5149,-2.4745,-2.4642,-2.414,0.0,-2.3687,-2.3519,-2.332,-2.3704,-2.3643,-2.3423,-2.3141,-2.3142,-2.3183,-2.3097,-2.3648,-2.4214,-2.404,-2.4024,-2.3909,-2.3256,-2.2399,-2.1563,-2.0966,-2.044,-2.004,-1.9809,-1.9972,-2.0189,-2.0271,-2.0645,-2.1015,-2.1334,-2.1602,-2.2003,-2.2604,-2.2656,-2.2792,-2.3069,-2.3459,-2.3938,-2.4585,-2.4457,-2.4657,-2.5297,-2.494,-2.4886,-2.5297,-2.5047,-2.4988,-2.5147,-2.5147,-2.5147,-2.5147,-2.5147,-2.5147,-2.5175,-2.5428,-2.5514,-2.5542,-2.5795,-2.5739,-2.543,-2.4472,-2.3938,-2.3572,-2.2587,-2.2194,-2.2194,-2.231,-2.2385,-2.2385,-1.6809,-1.6731,-1.672,-1.6798,-1.5822,-1.5078,-1.5135,-1.5265,-1.5833,-1.7095,-1.8448,-1.9194,-1.8999,-1.8659,-1.8878,-1.9842,-2.1301,-2.2899,-2.467,-2.5745,-2.6514,-2.708,-2.8179,-2.8717,-2.8559,-2.943,-2.9789,-2.9595,-2.9264,-2.9108,-2.91,-2.9535,-2.9858,-3.0132,-3.0245,-3.0419,-3.0548,-2.9624,-2.9057,-2.8721,-2.7565,-2.6849,-2.632,-2.5077,-2.4066,-2.34,-2.3909,-2.3404,-2.2606,-2.3088,-2.302,-2.2869,-2.3517,-2.373,-2.3781,-2.3943,-2.4109,-2.4317,-2.471,-2.528,-2.5738,-2.5644,-2.5905,-2.6016,-2.5408,-2.4562,-2.3687,-2.291,-2.2376,-2.1867,-2.1376,-2.1537,-2.1745,-2.1826,-2.2211,-2.2572,-2.2743,-2.2937,-2.325,-2.3731,-2.3912,-2.3924,-2.3801,-2.4151,-2.4664,-2.5203,-2.51,-2.5187,-2.5605,-2.5467,-2.5439,-2.5633,-2.5633,-2.5743,-2.5907,-2.5907,-2.5907,-2.5907,-2.6076,-2.6048,-2.5907,-2.5907,-2.5907,-2.5907,-2.5907,-2.5907,-2.5795,-2.4559,-2.4028,-2.3915,-2.2604,-2.2077,-2.2077,-2.2077,-2.2123,-2.2194,-1.7464,-1.7464,-1.7476,-1.7555,-1.7108,-1.6737,-1.6734,-1.6895,-1.7105,-1.7353,-1.8049,-1.8241,-1.7463,-1.7053,-1.7125,-1.776,-1.967,-2.1458,-2.2875,-2.4856,-2.6348,-2.7057,-2.7505,-2.7733,-2.7745,-2.7339,-2.7135,-2.7113,-2.6963,-2.6963,-2.7103,-2.736,-2.7913,-2.8662,-2.8812,-2.9264,-2.988,-2.893,-2.8401,-2.8018,-2.6807,-2.5824,-2.5045,-2.4717,-2.3819,-2.2733,-2.2763,-2.2374,-2.1833,-2.1833,-2.1981,-2.2239,-2.2838,-2.3051,-2.3244,-2.3842,-2.4151,-2.4482,-2.5351,-2.5738,-2.5916,-2.5967,-2.6281,-2.6475,-2.6062,-2.5284,-2.4488,-2.3789,-2.3354,-2.3068,-2.3041,-2.3353,-2.3786,-2.4308,-2.4626,-2.4868,-2.5159,-2.5183,-2.5165,-2.5062,-2.5471,-2.5669,-2.5542,-2.5289,-2.5364,-2.585,-2.5633,-2.5467,-2.5494,-2.5188,-2.5159,-2.5494,-2.5494,-2.5605,-2.5907,-2.5907,-2.5907,-2.5907,-2.6497,-2.6469,-2.5907,-2.5907,-2.5907,-2.5907,-2.5907,-2.5907,-2.5795,-2.4455,-2.39,-2.3763,-2.2363,-2.1793,-2.1793,-2.1793,-2.1983,-2.2194,-1.7386,-1.7374,-1.7377,-1.746,-1.74,-1.7378,-1.7586,-1.688,-1.6611,-1.7255,-1.7592,0.0,0.0,0.0,0.0,0.0,-1.898,-2.0799,-2.2197,-2.4314,-2.5609,-2.5786,-2.6775,-2.7206,-2.6989,-2.7217,-2.7264,-2.7116,-2.7624,-2.7624,-2.7147,-2.7849,-2.8073,-2.7869,-2.8015,-2.8207,-2.8433,-2.7976,-2.7615,-2.7283,-2.6085,-2.5356,-2.4893,-2.3777,-2.2503,-2.1306,0.0,-2.067,-2.0618,-2.0618,-2.0782,-2.1085,-2.1732,-2.2563,-2.3425,-2.402,-2.4359,-2.4668,-2.5436,-2.6167,-2.6841,-2.7391,-2.7914,-2.8183,-2.7876,-2.7344,-2.6787,-2.6112,-2.5701,-2.5405,-2.508,-2.5146,-2.535,-2.5461,-2.5704,-2.5918,-2.6039,-2.6039,-2.61,-2.6326,-2.6355,-2.6381,-2.6517,-2.6076,-2.5871,-2.6015,-2.5798,-2.5633,-2.5633,-2.5439,-2.5411,-2.5633,-2.5633,-2.5911,-2.6497,-2.6497,-2.6722,-2.7144,-2.7369,-2.7369,-2.7172,-2.6694,-2.6497,-2.6469,-2.6076,-2.5907,-2.5823,-2.4903,-2.4263,-2.3791,-2.2807,-2.2152,-2.1793,-2.1698,-2.1722,-2.1793,-1.7273,-1.7273,-1.7298,-1.7338,-1.746,0.0,0.0,0.0,0.0,0.0,0.0,0.0,0.0,0.0,0.0,0.0,0.0,-1.9744,-2.1203,-2.3085,-2.4361,-2.4763,-2.5572,-2.587,-2.558,-2.6141,-2.637,-2.625,-2.7036,-2.7132,-2.6634,-2.7267,-2.7445,-2.7243,-2.7292,-2.7494,-2.7668,-2.7185,-2.6723,-2.6177,-2.5051,-2.4315,-2.38,-2.2485,-2.1306,0.0,-1.9301,-1.8955,-1.897,-1.9472,-1.9796,-2.0217,-2.1378,-2.2628,-2.3844,-2.4534,-2.4833,-2.5082,-2.5873,-2.6765,-2.7579,-2.8132,-2.8767,-2.9206,-2.8958,-2.867,-2.8251,-2.7393,-2.7066,-2.6738,-2.6133,-2.6338,-2.6626,-2.6665,-2.7091,-2.7436,-2.7436,-2.7391,-2.7387,-2.7524,-2.7273,-2.7086,-2.7071,-2.6525,-2.615,-2.6125,-2.5853,-2.5688,-2.5633,-2.5467,-2.5439,-2.5522,-2.5605,-2.5883,-2.6386,-2.6666,-2.7256,-2.8129,-2.7904,-2.7932,-2.8101,-2.72,-2.6807,-2.6778,-2.616,-2.5907,-2.5851,-2.5046,-2.4519,-2.4076,-2.3208,-2.2503,-2.1906,-2.1809,-2.1599,-2.1361,-1.7252,-1.7252,-1.7252,0.0,0.0,0.0,0.0,0.0,0.0,0.0,0.0,0.0,0.0,0.0,0.0,0.0,0.0,0.0,-1.9799,-2.1218,-2.2627,-2.4025,-2.3965,-2.3803,-2.367,-2.415,-2.44,-2.4403,-2.5163,-2.5551,-2.5468,-2.558,-2.597,-2.6523,-2.6523,-2.6859,-2.7389,-2.6479,-2.5576,-2.4725,-2.3603,-2.2631,-2.1747,-2.0873,-2.0139,-1.9378,-1.8057,-1.7313,-1.7075,-1.8455,-1.9107,-1.9703,-2.172,-2.324,-2.4441,-2.5255,-2.5493,-2.5743,-2.6592,-2.7425,-2.8094,-2.8215,-2.8857,-2.9434,-2.9321,-2.9166,-2.8784,-2.7736,-2.7396,-2.7042,-2.6291,-2.6895,-2.7634,-2.7938,-2.8763,-2.9375,-2.9375,-2.9261,-2.9029,-2.8559,-2.8229,-2.7785,-2.7258,-2.6657,-2.6231,-2.6098,-2.5853,-2.5633,-2.5494,-2.53,-2.5188,-2.5188,-2.5355,-2.555,-2.5716,-2.647,-2.7452,-2.8659,-2.8099,-2.8155,-2.8659,-2.7424,-2.6891,-2.6834,-2.6217,-2.5936,-2.588,-2.5022,-2.4637,-2.45,-2.3578,-2.2772,-2.2131,-2.2104,-2.1552,-2.0873,0.0,0.0,0.0,0.0,0.0,0.0,0.0,0.0,0.0,0.0,0.0,0.0,0.0,0.0,0.0,0.0,0.0,0.0,-1.8256,-1.9719,-2.115,-2.2559,-2.2512,-2.2656,-2.3092,-2.308,-2.3045,-2.3028,-2.4262,-2.4551,-2.4047,-2.4529,-2.4525,-2.4148,-2.4126,-2.4186,-2.4283,-2.3397,-2.2839,-2.2456,-2.1355,-2.0447,-1.9684,-1.8783,-1.8057,-1.7354,-1.6578,-1.6503,-1.6802,-1.7271,-1.8616,-2.0412,-2.2409,-2.362,-2.4409,-2.4976,-2.5526,-2.6144,-2.688,-2.7349,-2.7813,-2.8428,-2.8887,-2.9206,-2.916,-2.8817,-2.836,-2.7901,-2.7373,-2.6967,-2.6801,-2.7422,-2.823,-2.9106,-2.9836,-3.033,-3.033,-3.0247,-2.9847,-2.8905,-2.8422,-2.794,-2.7386,-2.6604,-2.6042,-2.5797,-2.5633,-2.5467,-2.53,-2.5244,-2.5132,-2.5075,-2.5216,-2.5519,-2.6072,-2.6796,-2.7577,-2.8324,-2.8158,-2.8407,-2.8962,-2.8213,-2.7853,-2.7825,-2.7157,-2.6631,-2.6244,-2.5879,-2.5134,-2.4177,-2.3852,-2.3178,-2.2353,-2.1851,-2.1381,-2.0966,0.0,0.0,0.0,0.0,0.0,0.0,0.0,0.0,0.0,0.0,0.0,0.0,0.0,0.0,0.0,0.0,0.0,0.0,0.0,-1.838,-1.9466,-2.0565,-2.0852,-2.1135,-2.1433,-2.1678,-2.1751,-2.1674,-2.2753,-2.2899,-2.2102,-2.2409,-2.2133,-2.1424,-2.1359,-2.147,-2.1709,-2.0845,-2.0429,0.0,0.0,-1.8355,-1.7545,-1.6743,-1.6383,-1.6204,-1.5574,-1.6278,-1.7587,-1.8267,-1.9959,-2.2037,-2.3488,-2.4307,-2.4962,-2.5584,-2.6091,-2.6563,-2.7357,-2.7684,-2.7912,-2.8456,-2.8763,-2.888,-2.8635,-2.8401,-2.7886,-2.6796,-2.6293,-2.5978,-2.5724,-2.6344,-2.7285,-2.8565,-2.9371,-2.9996,-3.0287,-3.0225,-2.9835,-2.9099,-2.8494,-2.794,-2.7255,-2.6472,-2.5797,-2.5328,-2.53,-2.5216,-2.5047,-2.5047,-2.4962,-2.4848,-2.4962,-2.5347,-2.606,-2.6478,-2.7001,-2.7632,-2.7632,-2.7934,-2.8483,-2.7848,-2.7711,-2.7899,-2.7239,-2.6802,-2.6501,-2.6353,-2.5637,-2.4656,-2.4429,-2.3642,-2.255,-2.2102,-2.1572,-2.0941,0.0,0.0,0.0,0.0,0.0,0.0,0.0,0.0,0.0,-1.8605,-1.8351,-1.7904,-1.7205,-1.6946,0.0,0.0,0.0,0.0,0.0,0.0,-1.7905,-1.8659,-1.914,-1.9343,-1.9346,-1.9849,-2.0086,-1.9984,-2.0668,-2.0598,-1.983,-1.9743,-1.9336,-1.8676,-1.8586,-1.8892,-1.937,-1.8553,-1.8166,-1.7971,-1.7098,-1.6268,-1.5432,0.0,-1.5022,-1.5485,-1.5233,-1.6664,-1.8921,-2.026,-2.2012,-2.3773,-2.4432,-2.5106,-2.5777,-2.6471,-2.6783,-2.7043,-2.7714,-2.8014,-2.8162,-2.8284,-2.8477,-2.8474,-2.7904,-2.7758,-2.7164,-2.5215,-2.4721,-2.4472,-2.3961,-2.4633,-2.5778,-2.7331,-2.8338,-2.9178,-2.9945,-2.982,-2.9517,-2.9114,-2.8494,-2.781,-2.6967,-2.6231,-2.5522,-2.4848,-2.4902,-2.4872,-2.4677,-2.4677,-2.4591,-2.4447,-2.4563,-2.4947,-2.5576,-2.5576,-2.5929,-2.658,-2.658,-2.6904,-2.7525,-2.7012,-2.7062,-2.7539,-2.6996,-2.6727,-2.6616,-2.6493,-2.5993,-2.5252,-2.4901,-2.3953,-2.276,-2.2463,-2.1795,-2.0954,0.0,0.0,0.0,0.0,0.0,0.0,0.0,0.0,0.0,0.0,-1.919,-1.7992,0.0,0.0,0.0,0.0,0.0,0.0,0.0,0.0,0.0,-1.8629,-1.7633,-1.7342,-1.7931,-1.737,-1.6988,-1.6868,-1.7499,-1.7643,-1.7415,-1.7241,-1.7083,-1.6916,-1.6794,-1.6832,-1.6881,-1.6115,-1.5796,-1.5695,-1.4806,-1.4036,-1.3443,-1.382,0.0,0.0,-1.6199,-1.8191,-2.0089,-2.1336,-2.251,-2.3533,-2.4118,-2.5177,-2.6233,-2.6179,-2.6692,-2.7344,-2.7458,-2.7665,-2.7865,-2.789,-2.8088,-2.81,-2.7323,-2.6404,-2.5438,-2.4492,-2.3493,-2.2842,-2.2972,-2.4132,-2.562,-2.7311,-2.8673,-2.9812,-3.0613,-3.056,-3.0058,-2.9053,-2.8247,-2.7504,-2.6785,-2.5879,-2.516,-2.4848,-2.478,-2.4562,-2.4093,-2.3894,-2.3747,-2.3599,-2.3628,-2.3743,-2.3998,-2.3998,-2.4313,-2.4909,-2.4909,-2.5548,-2.6693,-2.6588,-2.6817,-2.7274,-2.717,-2.6759,-2.6214,-2.6181,-2.5653,-2.4773,-2.4255,-2.3673,-2.3021,-2.2084,-2.1486,-2.1021,0.0,0.0,0.0,0.0,0.0,0.0,0.0,-2.1636,-2.2932,-2.3755,-2.2473,-2.1007,-1.9799,-1.8504,-1.7749,0.0,0.0,0.0,0.0,0.0,0.0,0.0,0.0,0.0,-1.7377,-1.7023,-1.6579,-1.6082,0.0,-1.5964,-1.507,-1.4896,-1.46,-1.4217,-1.4122,-1.4258,-1.4522,-1.3842,-1.3714,-1.3983,-1.3564,-1.3172,-1.2926,0.0,0.0,0.0,-1.655,-1.813,-1.9652,-2.0838,-2.1967,-2.3113,-2.449,-2.5388,-2.597,-2.6316,-2.6792,-2.7237,-2.7335,-2.7539,-2.7715,-2.779,-2.7569,-2.7194,-2.6522,-2.5364,-2.4122,-2.3122,-2.2208,-2.1695,-2.1983,-2.2992,-2.4314,-2.6078,-2.7507,-2.8682,-2.953,-2.9745,-2.9563,-2.8881,-2.81,-2.7327,-2.6683,-2.577,-2.502,-2.4565,-2.4275,-2.4056,-2.3916,-2.3628,-2.342,-2.3241,-2.3241,-2.3241,-2.3245,-2.3245,-2.3341,-2.3502,-2.3619,-2.4292,-2.5452,-2.5575,-2.6034,-2.679,-2.6688,-2.6468,-2.6139,-2.6038,-2.5336,-2.4304,-2.3968,-2.3303,-2.2455,-2.1858,-2.1452,-2.1082,0.0,0.0,0.0,0.0,0.0,0.0,0.0,-2.3577,-2.536,-2.6692,-2.633,-2.5115,-2.2901,-2.0422,-1.8921,0.0,0.0,0.0,0.0,0.0,0.0,0.0,0.0,0.0,0.0,0.0,0.0,-1.5817,-1.5678,0.0,0.0,0.0,0.0,0.0,-1.1991,-1.2232,-1.2697,-1.2171,-1.2301,0.0,0.0,-1.2926,0.0,0.0,0.0,0.0,0.0,-1.7923,-1.9052,-1.9963,-2.0987,-2.2271,-2.4247,-2.5131,-2.5589,-2.6286,-2.6756,-2.7107,-2.7284,-2.7488,-2.764,-2.769,-2.7106,-2.6374,-2.5758,-2.4433,-2.2944,-2.1594,-2.0946,-2.0679,-2.075,-2.1577,-2.2823,-2.4569,-2.5889,-2.7052,-2.8253,-2.8636,-2.874,-2.8583,-2.7904,-2.7174,-2.6498,-2.566,-2.4907,-2.4337,-2.3839,-2.3569,-2.3654,-2.339,-2.312,-2.2854,-2.2823,-2.2787,-2.2635,-2.2635,-2.2549,-2.2402,-2.2549,-2.3157,-2.4131,-2.4384,-2.5046,-2.5955,-2.5951,-2.5921,-2.5816,-2.5652,-2.4885,-2.3805,-2.3618,-2.2802,-2.1753,-2.1501,-2.1233,-2.0942,0.0,0.0,0.0,0.0,0.0,0.0,0.0,-2.6009,-2.8603,-2.9277,-2.9713,-2.9299,-2.7572,-2.2825,-1.9513,0.0,0.0,0.0,0.0,0.0,0.0,0.0,0.0,0.0,0.0,0.0,0.0,-1.4836,-1.4687,0.0,0.0,0.0,0.0,0.0,0.0,-1.1841,-1.1901,-1.1831,0.0,0.0,0.0,0.0,0.0,0.0,0.0,0.0,0.0,-1.8389,-1.934,-1.939,-1.9845,-2.065,-2.2076,-2.3896,-2.5577,-2.5561,-2.63,-2.7181,-2.7207,-2.7412,-2.756,-2.7463,-2.6831,-2.6027,-2.516,-2.3466,-2.1692,-2.0347,-1.9739,-1.9365,-1.9088,-2.0188,-2.1756,-2.3549,-2.4433,-2.5686,-2.7832,-2.7947,-2.7899,-2.8137,-2.7555,-2.6864,-2.6177,-2.5439,-2.4821,-2.4363,-2.3776,-2.3266,-2.2842,-2.2781,-2.2512,-2.2018,-2.2018,-2.1956,-2.1824,-2.1824,-2.1792,-2.1792,-2.1792,-2.2179,-2.2886,-2.3389,-2.3939,-2.4547,-2.4932,-2.4933,-2.467,-2.4634,-2.407,-2.3235,-2.2708,-2.2082,-2.1395,-2.075,-2.0496,-2.0432,0.0,0.0,0.0,0.0,0.0,0.0,-2.3533,-2.6675,-2.9381,-3.0993,-3.1216,-3.0585,-2.885,-2.4972,-2.1836,-2.0164,0.0,0.0,0.0,0.0,0.0,0.0,0.0,0.0,0.0,0.0,-1.5763,-1.5308,-1.5261,0.0,0.0,0.0,0.0,0.0,0.0,-1.2223,-1.182,-1.2194,0.0,0.0,0.0,0.0,0.0,0.0,0.0,0.0,0.0,0.0,-1.8738,-1.9058,-1.9378,-1.9845,-2.0865,-2.2438,-2.411,-2.5109,-2.5853,-2.6477,-2.6964,-2.7207,-2.7335,-2.7211,-2.626,-2.5199,-2.4317,-2.254,-2.0691,-1.9396,-1.9046,-1.8861,-1.839,-1.9568,-2.1053,-2.23,-2.3458,-2.4706,-2.6037,-2.6765,-2.7144,-2.7103,-2.6886,-2.6496,-2.5907,-2.516,-2.4366,-2.3632,-2.33,-2.2939,-2.2543,-2.2604,-2.2506,-2.208,-2.1956,-2.1769,-2.1517,-2.1517,-2.1486,-2.1391,-2.1486,-2.1838,-2.2418,-2.2728,-2.3171,-2.3692,-2.364,-2.3537,-2.3386,-2.3049,-2.2545,-2.1901,-2.162,-2.1074,-2.0446,-2.0205,-1.9911,-1.9561,0.0,0.0,0.0,0.0,0.0,-2.1803,-2.397,-2.6894,-2.9585,-3.1602,-3.1963,-3.1308,-2.9326,-2.6741,-2.4079,-2.1311,-1.9304,0.0,0.0,0.0,0.0,0.0,0.0,0.0,0.0,0.0,-1.6817,-1.6314,-1.6511,-1.6136,0.0,0.0,-1.4369,-1.3527,0.0,0.0,0.0,0.0,0.0,0.0,0.0,0.0,0.0,0.0,0.0,0.0,0.0,0.0,0.0,0.0,0.0,-1.9065,-1.9894,-2.1061,-2.2437,-2.4132,-2.5196,-2.5919,-2.6487,-2.6828,-2.6967,-2.6611,-2.5586,-2.4398,-2.3326,-2.1592,-1.9817,-1.842,-1.8208,-1.8163,-1.7637,-1.8687,-2.004,-2.1307,-2.2402,-2.3486,-2.4634,-2.5625,-2.6242,-2.6174,-2.6226,-2.6014,-2.5467,-2.4595,-2.3754,-2.3005,-2.2848,-2.2635,-2.2359,-2.2389,-2.2297,-2.2073,-2.18,-2.1526,-2.1273,-2.121,-2.1146,-2.1042,-2.1146,-2.1385,-2.1786,-2.2055,-2.2399,-2.2747,-2.2548,-2.2423,-2.2343,-2.1872,-2.131,-2.0704,-2.0534,-2.0087,-1.9441,-1.9249,-1.9007,-1.871,0.0,0.0,0.0,0.0,0.0,0.0,-2.4065,-2.6979,-2.9503,-3.092,-3.2138,-3.1895,-2.9361,-2.8122,-2.5862,-2.1834,-1.9348,0.0,0.0,0.0,0.0,0.0,0.0,0.0,0.0,0.0,-1.7721,-1.7777,-1.8358,-1.8329,-1.7648,-1.6725,-1.5849,-1.5049,0.0,0.0,0.0,0.0,0.0,0.0,0.0,0.0,0.0,0.0,0.0,0.0,0.0,0.0,0.0,0.0,0.0,0.0,0.0,-1.9866,-2.0841,-2.2368,-2.4231,-2.5803,-2.5832,-2.6242,-2.6512,-2.5615,-2.4756,-2.3713,-2.2237,-2.074,-1.9125,-1.7398,-1.7074,-1.6977,-1.6588,-1.7213,-1.8521,-2.0677,-2.114,-2.1938,-2.4013,-2.4728,-2.5155,-2.5539,-2.562,-2.5384,-2.4766,-2.3725,-2.2975,-2.261,-2.2482,-2.2359,-2.2228,-2.1894,-2.1706,-2.1698,-2.1391,-2.1106,-2.0892,-2.0754,-2.0712,-2.0712,-2.0712,-2.0712,-2.0735,-2.1184,-2.1408,-2.143,-2.1753,-2.1803,-2.1581,-2.1266,-2.0603,-1.9803,-1.9589,-1.9097,-1.8415,-1.7698,-1.7664,-1.7876,0.0,0.0,0.0,0.0,0.0,0.0,0.0,-2.4831,-2.6758,-2.7635,-2.8385,-2.8288,-2.6759,-2.5163,-2.3243,-2.0758,-1.9412,0.0,0.0,0.0,0.0,0.0,0.0,0.0,0.0,0.0,-1.7904,-1.848,-1.9223,-1.9431,-1.9118,-1.8793,-1.7645,-1.5843,-1.5408,-1.4646,0.0,0.0,0.0,0.0,0.0,0.0,0.0,0.0,0.0,0.0,0.0,0.0,0.0,0.0,0.0,0.0,0.0,0.0,0.0,-2.0753,-2.2488,-2.4169,-2.4651,-2.4782,-2.4713,-2.4339,-2.327,-2.2028,-2.0972,-1.9683,-1.819,-1.6353,-1.6365,-1.6541,-1.598,-1.6618,-1.7882,-1.9801,-2.0344,-2.1188,-2.3079,-2.383,-2.4301,-2.4685,-2.4417,-2.4047,-2.3514,-2.2738,-2.2211,-2.1994,-2.1714,-2.1517,-2.1328,-2.1083,-2.1051,-2.1273,-2.0955,-2.0635,-2.0377,-2.0313,-2.028,-2.028,-2.028,-2.028,-2.028,-2.0434,-2.0468,-2.0358,-2.0345,-2.0142,-1.9839,-1.9479,-1.9022,-1.856,-1.8355,-1.7983,-1.7594,-1.7358,-1.7192,-1.6954,0.0,0.0,0.0,0.0,0.0,0.0,0.0,-2.3054,-2.4531,-2.5187,-2.575,-2.5721,-2.4641,-2.3205,-2.156,-1.9818,-1.8931,0.0,0.0,0.0,0.0,0.0,0.0,0.0,-1.6535,-1.7751,-1.8805,-1.9638,-2.091,-2.1499,-2.1399,-2.0961,-1.979,-1.796,-1.6955,-1.5802,0.0,0.0,0.0,0.0,0.0,0.0,-1.5247,0.0,0.0,0.0,0.0,0.0,0.0,0.0,0.0,0.0,0.0,0.0,0.0,0.0,-2.065,-2.207,-2.3357,-2.3537,-2.3252,-2.2883,-2.1839,-2.06,-1.9569,-1.8625,-1.751,-1.5911,-1.5925,-1.6093,-1.5743,-1.6191,-1.721,-1.9012,-1.9741,-2.063,-2.2185,-2.333,-2.415,-2.4478,-2.3838,-2.3157,-2.2657,-2.1871,-2.1345,-2.1242,-2.1019,-2.0796,-2.0539,-2.028,-2.0128,-2.0226,-2.0248,-2.0053,-1.9704,-1.9639,-1.9627,-1.9627,-1.9627,-1.9639,-1.9726,-1.966,-1.9561,-1.9462,-1.9131,-1.8898,0.0,-1.8206,-1.7833,-1.756,-1.7354,-1.7132,-1.6837,-1.6622,-1.6486,-1.6315,0.0,0.0,0.0,0.0,0.0,0.0,0.0,-2.1591,-2.271,-2.3343,-2.393,-2.3872,-2.2957,-2.1954,-2.0669,-1.8975,0.0,0.0,0.0,0.0,0.0,0.0,0.0,0.0,-1.7089,-1.8796,-2.0146,-2.1132,-2.3151,-2.4163,-2.4094,-2.3092,-2.2058,-2.0874,-1.8591,-1.7018,0.0,0.0,0.0,0.0,-1.4461,-1.4332,0.0,0.0,0.0,0.0,0.0,0.0,0.0,0.0,0.0,0.0,0.0,0.0,0.0,0.0,0.0,0.0,0.0,-2.2317,-2.2059,-2.1369,-2.0489,-1.9441,-1.8167,-1.7568,0.0,-1.5878,-1.5652,-1.5673,-1.5734,-1.5881,-1.6586,-1.8335,-1.9324,-2.0278,-2.1432,-2.3194,-2.4428,-2.4728,-2.3619,-2.2606,-2.2055,-2.1099,-2.0474,-2.0323,-2.0291,-2.015,-1.9824,-1.9408,-1.9044,-1.8697,-1.9164,-1.9297,-1.8998,-1.8852,-1.8751,-1.8697,-1.8751,-1.8831,-1.8998,-1.8798,-1.8697,-1.8664,-1.8138,-1.7935,-1.7867,-1.7373,-1.7028,-1.6804,-1.6612,-1.6403,-1.6158,-1.5669,-1.5722,-1.593,0.0,0.0,0.0,0.0,0.0,0.0,0.0,0.0,0.0,0.0,-2.0847,-2.0716,-2.0308,-1.947,-1.869,0.0,0.0,0.0,0.0,0.0,0.0,0.0,0.0,0.0,-1.7015,-1.8749,-2.0536,-2.2357,-2.3954,-2.4938,-2.5361,-2.4368,-2.2764,-2.0681,-1.8927,-1.7011,0.0,0.0,0.0,0.0,-1.4176,-1.4013,0.0,0.0,0.0,0.0,-1.6183,-1.6565,0.0,0.0,0.0,0.0,0.0,0.0,0.0,0.0,-1.8096,-1.8427,-1.9453,0.0,-2.0492,-2.0213,-1.9456,-1.8533,0.0,-1.6846,-1.611,-1.5323,-1.5156,-1.5156,-1.5202,-1.5581,-1.635,-1.7648,-1.8933,-2.0168,-2.1364,-2.2703,-2.3571,-2.3517,-2.2577,-2.1694,-2.1152,-2.0336,-1.9758,-1.9573,-1.933,-1.9065,-1.8844,-1.8509,-1.8138,-1.775,-1.775,-1.7852,-1.8056,-1.8124,-1.811,-1.7954,-1.811,-1.8124,-1.8056,-1.7988,-1.7818,-1.7579,-1.7442,-1.7217,-1.6906,-1.6786,-1.6473,-1.6035,-1.6,-1.5788,-1.5436,-1.5317,-1.535,-1.5332,0.0,0.0,0.0,0.0,0.0,0.0,0.0,0.0,0.0,0.0,0.0,-1.9055,-1.8876,-1.811,0.0,0.0,0.0,0.0,0.0,0.0,0.0,0.0,0.0,-1.6467,-1.7471,-1.912,-2.0995,-2.3061,-2.478,-2.5882,-2.639,-2.5688,-2.4083,-2.1723,-1.8874,-1.6513,0.0,0.0,0.0,-1.4105,-1.3898,0.0,0.0,0.0,0.0,0.0,-1.5803,-1.6154,0.0,-1.6769,-1.6596,-1.6296,0.0,0.0,0.0,0.0,-1.7193,-1.7393,-1.8277,-1.8745,-1.8933,-1.8815,-1.8081,-1.726,-1.6757,-1.6173,-1.5664,-1.5225,-1.5134,-1.5183,-1.5263,-1.5542,-1.6174,-1.7488,-1.8622,-2.0017,-2.1982,-2.2663,-2.3072,-2.3306,-2.2316,-2.135,-2.0581,-1.9781,-1.9124,-1.8731,-1.8462,-1.8226,-1.8003,-1.7662,-1.7373,-1.7028,-1.6855,-1.6925,-1.7182,-1.7304,-1.7304,-1.7182,-1.7304,-1.7339,-1.7339,-1.7235,-1.7079,-1.6925,-1.6751,-1.6577,-1.6368,-1.6263,-1.6,-1.5647,-1.5576,-1.5363,-1.5043,-1.4955,-1.4919,-1.4851,0.0,0.0,0.0,0.0,0.0,0.0,0.0,0.0,0.0,0.0,0.0,0.0,0.0,0.0,0.0,0.0,0.0,0.0,0.0,0.0,0.0,0.0,0.0,-1.6787,-1.8188,-1.97,-2.1528,-2.3599,-2.5592,-2.6788,-2.7237,-2.6855,-2.523,-2.2476,-1.854,-1.5932,0.0,0.0,-1.4203,-1.3874,-1.3648,0.0,0.0,0.0,0.0,0.0,0.0,0.0,0.0,-1.6265,-1.6122,-1.5854,-1.6518,0.0,0.0,0.0,0.0,0.0,-1.7663,-1.7727,-1.7536,-1.7713,-1.7115,-1.6433,-1.6179,-1.5862,-1.5566,-1.536,-1.536,-1.5406,-1.5487,-1.5639,-1.6196,-1.7471,-1.8476,-2.0014,-2.2608,-2.2674,-2.2715,-2.3312,-2.2222,-2.1063,-2.0165,-1.9218,-1.8448,-1.7925,-1.7647,-1.7476,-1.7304,-1.6959,-1.67,-1.6542,-1.6351,-1.6316,-1.6473,-1.6542,-1.6542,-1.6508,-1.6542,-1.6612,-1.6769,-1.6577,-1.6473,-1.6403,-1.6088,-1.5947,-1.5964,-1.5788,-1.5576,-1.5363,-1.5133,-1.4919,-1.4721,-1.4505,-1.4433,-1.4397,0.0,0.0,0.0,0.0,0.0,0.0,0.0,0.0,0.0,0.0,0.0,0.0,0.0,0.0,0.0,0.0,0.0,0.0,0.0,0.0,0.0,-1.6653,-1.6744,-1.7378,-1.8755,-2.0175,-2.21,-2.4519,-2.5961,-2.7125,-2.7935,-2.7244,-2.4509,-2.0043,-1.7729,-1.5893,-1.4485,-1.4369,-1.4154,-1.3858,-1.3573,0.0,0.0,0.0,0.0,0.0,0.0,0.0,0.0,-1.5986,-1.5892,-1.5652,-1.6196,0.0,0.0,0.0,0.0,0.0,-1.6662,-1.6713,-1.6906,-1.8142,-1.8191,-1.7675,-1.6878,-1.6466,-1.6081,-1.5434,-1.5608,-1.5712,-1.5042,-1.5894,-1.6752,-1.7017,-1.8767,-2.0531,-2.1832,-2.2015,-2.2077,-2.2301,-2.1068,-1.9954,-1.9515,-1.8344,-1.7552,-1.7339,-1.6994,-1.6751,-1.6716,-1.6403,-1.6211,-1.6158,-1.5964,-1.5894,-1.5929,-1.6211,-1.6316,-1.6158,-1.6316,-1.6298,-1.6211,-1.6,-1.5823,-1.5665,-1.5417,-1.5346,-1.5346,-1.5311,-1.5062,-1.4721,-1.4525,-1.4253,-1.3943,-1.3746,-1.3674,-1.3645,0.0,0.0,0.0,0.0,0.0,0.0,0.0,0.0,0.0,0.0,0.0,0.0,0.0,0.0,0.0,0.0,0.0,0.0,0.0,0.0,0.0,-1.6682,-1.7647,-1.8527,-1.9206,-2.1207,-2.3093,-2.4811,-2.649,-2.7633,-2.8215,-2.6023,-2.3216,-1.9929,-1.7712,-1.5842,-1.4433,-1.4289,-1.404,-1.3674,0.0,0.0,0.0,0.0,0.0,0.0,0.0,0.0,0.0,0.0,-1.5199,-1.5177,-1.5453,0.0,0.0,0.0,0.0,0.0,-1.6289,-1.6449,-1.6607,-1.7519,-1.7462,-1.7,-1.6342,-1.6044,-1.5749,-1.5203,-1.5258,-1.5337,-1.5124,-1.5611,-1.6319,-1.7144,-1.8709,-2.0075,-2.0787,-2.1042,-2.1168,-2.1278,-2.0397,-1.9494,-1.8747,-1.7928,-1.7234,-1.6735,-1.6473,-1.6333,-1.6333,-1.6244,-1.6151,-1.606,-1.6175,-1.6184,-1.6074,-1.6094,-1.6001,-1.5788,-1.5905,-1.5935,-1.5863,-1.5863,-1.5799,-1.5688,-1.5502,-1.5315,-1.5138,-1.5138,-1.4808,-1.431,-1.4129,-1.3731,-1.3273,-1.298,-1.2857,-1.291,0.0,0.0,0.0,0.0,0.0,0.0,0.0,0.0,0.0,0.0,0.0,0.0,0.0,0.0,0.0,0.0,0.0,0.0,0.0,0.0,-1.7045,-1.6826,-1.8538,-1.9618,-1.9851,-2.2299,-2.4183,-2.5441,-2.7205,-2.8106,-2.7996,-2.4756,-2.2151,-2.0063,-1.7749,-1.5853,-1.4397,-1.4235,-1.3881,-1.3429,0.0,0.0,0.0,0.0,0.0,0.0,0.0,0.0,0.0,0.0,0.0,0.0,0.0,0.0,0.0,-1.5084,-1.5084,-1.5219,-1.5975,-1.6098,-1.6118,-1.6458,-1.6532,-1.6449,-1.5978,-1.5849,-1.5675,-1.5165,-1.5144,-1.5239,-1.5264,-1.5444,-1.6015,-1.7357,-1.8466,-1.9314,-1.9727,-1.9952,-2.0127,-2.0158,-1.9563,-1.8826,-1.7972,-1.7478,-1.6919,-1.6298,-1.6105,-1.6035,-1.6035,-1.6167,-1.6153,-1.5987,-1.6301,-1.637,-1.6196,-1.5873,-1.5675,-1.5577,-1.5638,-1.5695,-1.5658,-1.5745,-1.572,-1.5666,-1.5466,-1.5233,-1.4947,-1.4947,-1.4605,-1.4065,-1.3881,-1.3394,-1.2746,-1.2331,-1.2229,-1.2312,0.0,0.0,0.0,0.0,0.0,0.0,0.0,0.0,0.0,0.0,0.0,0.0,0.0,0.0,0.0,0.0,0.0,0.0,0.0,0.0,-1.7349,-1.7446,-1.917,-2.0351,-2.088,-2.3213,-2.5274,-2.7027,-2.8368,-2.8397,-2.7144,-2.438,-2.1805,-1.9396,-1.7534,-1.5853,-1.4397,-1.4127,-1.3739,-1.3285,-1.2965,0.0,0.0,0.0,0.0,0.0,0.0,0.0,0.0,0.0,0.0,0.0,0.0,0.0,-1.5099,-1.5099,-1.5026,-1.5012,-1.5356,-1.5226,-1.5038,-1.5129,-1.6262,-1.7164,-1.6505,-1.6527,-1.6491,-1.5704,-1.5904,-1.5983,-1.534,-1.5867,-1.6637,-1.7328,-1.8008,-1.8546,-1.8762,-1.8846,-1.8915,-1.8934,-1.8081,-1.7424,-1.7352,-1.6652,-1.6193,-1.6105,-1.5929,-1.5841,-1.5841,-1.5931,-1.6023,-1.5987,-1.5961,-1.5934,-1.595,-1.5358,-1.5342,-1.5869,-1.5672,-1.5627,-1.5589,-1.5412,-1.5258,-1.5064,-1.4847,-1.4638,-1.4452,-1.4452,-1.4321,-1.4073,-1.3864,-1.3283,-1.2477,-1.1927,-1.1891,-1.2106,0.0,0.0,0.0,0.0,0.0,0.0,0.0,0.0,0.0,0.0,0.0,0.0,0.0,0.0,0.0,0.0,0.0,0.0,0.0,-1.6966,-1.7319,-1.7505,-1.8728,-2.0209,-2.1833,-2.4611,-2.6549,-2.7569,-2.8783,-2.8557,-2.6863,-2.4252,-2.1909,-1.9817,-1.7915,-1.618,-1.4691,-1.446,-1.3857,-1.3035,-1.2808,-1.255,0.0,0.0,0.0,0.0,0.0,0.0,0.0,0.0,-1.3582,-1.3947,-1.4243,-1.4454,-1.4665,-1.4889,-1.4871,-1.4821,-1.5036,-1.4941,-1.4767,-1.4697,-1.5501,-1.6181,-1.5808,-1.5792,-1.577,-1.5536,-1.562,-1.5652,-1.5435,-1.5849,-1.6346,-1.6664,-1.7274,-1.7746,-1.7764,-1.8045,-1.8193,-1.8063,-1.746,-1.7027,-1.6936,-1.6614,-1.6383,-1.6275,-1.628,-1.6306,-1.6306,-1.632,-1.625,-1.6118,-1.6204,-1.6108,-1.5771,-1.5356,-1.511,-1.515,-1.4998,-1.4909,-1.4909,-1.4779,-1.4703,-1.4621,-1.4418,-1.4171,-1.391,-1.391,-1.364,-1.3239,-1.279,-1.2409,-1.2085,-1.157,-1.1544,-1.178,0.0,0.0,0.0,0.0,0.0,0.0,0.0,0.0,0.0,0.0,0.0,0.0,0.0,0.0,0.0,0.0,0.0,0.0,-1.6499,-1.6937,-1.7212,-1.7242,-1.8396,-1.9938,-2.1812,-2.4654,-2.675,-2.8101,-2.8717,-2.8041,-2.6133,-2.3786,-2.1653,-1.9703,-1.821,-1.6598,-1.5034,-1.4654,-1.3935,-1.3034,-1.2651,-1.2276,0.0,0.0,0.0,0.0,0.0,0.0,0.0,0.0,-1.2746,-1.324,-1.3707,-1.4033,-1.4312,-1.4679,-1.4587,-1.4426,-1.4538,-1.439,-1.4176,-1.4253,-1.4736,-1.5191,-1.5255,-1.541,-1.5559,-1.5533,-1.5486,-1.544,-1.5497,-1.567,-1.5894,-1.6105,-1.6528,-1.6848,-1.6884,-1.7171,-1.7259,-1.713,-1.6915,-1.6701,-1.6572,-1.6603,-1.6561,-1.6451,-1.6409,-1.637,-1.637,-1.6329,-1.6182,-1.6007,-1.6183,-1.6044,-1.5513,-1.5176,-1.479,-1.4414,-1.4103,-1.4049,-1.4227,-1.4142,-1.4055,-1.3928,-1.3802,-1.3571,-1.3319,-1.3319,-1.3121,-1.2725,-1.2164,-1.1925,-1.1873,-1.1387,-1.1351,-1.1596,0.0,0.0,0.0,0.0,0.0,0.0,0.0,0.0,0.0,0.0,0.0,0.0,0.0,0.0,0.0,0.0,0.0,0.0,-1.6499,-1.6937,-1.7029,-1.6697,-1.8285,-1.9653,-2.0571,-2.2956,-2.5678,-2.8661,-2.8072,-2.675,-2.4739,-2.2871,-2.0872,-1.8877,-1.8276,-1.7028,-1.5346,-1.4564,-1.3889,-1.3339,-1.2467,-1.1954,-1.1664,0.0,0.0,0.0,0.0,0.0,0.0,0.0,-1.1858,-1.2266,-1.2734,-1.3432,-1.4145,-1.4407,-1.4124,-1.3732,-1.3857,-1.3449,-1.3118,-1.359,-1.3987,-1.4458,-1.5052,-1.5653,-1.6035,-1.5841,-1.5647,-1.5505,-1.5505,-1.5311,-1.5311,-1.5735,-1.5805,-1.5911,-1.6246,-1.6175,-1.6105,-1.6105,-1.6275,-1.639,-1.63,-1.6492,-1.6598,-1.6598,-1.6179,-1.5912,-1.5912,-1.5819,-1.5703,-1.5488,-1.5738,-1.5648,-1.5102,-1.4683,-1.4261,-1.3811,-1.3047,-1.3052,-1.3688,-1.3476,-1.3222,-1.2997,-1.2997,-1.2869,-1.2699,-1.2699,-1.2699,-1.2632,-1.2171,-1.1981,-1.1916,-1.1375,-1.1351,-1.1566,0.0,0.0,0.0,0.0,0.0,0.0,0.0,0.0,0.0,0.0,0.0,0.0,0.0,0.0,0.0,0.0,0.0,0.0,-1.6287,-1.632,-1.6455,-1.6697,-1.7499,-1.8651,-2.0168,-2.23,-2.4725,-2.7369,-2.6246,-2.5156,-2.4098,-2.2018,-2.0602,-1.9831,-1.8977,-1.7726,-1.6258,-1.5397,-1.4592,-1.3816,-1.2927,-1.2438,-1.215,0.0,0.0,0.0,0.0,0.0,0.0,0.0,0.0,0.0,-1.2229,-1.2601,-1.2875,-1.3811,-1.3904,-1.3734,-1.3814,-1.3807,-1.3752,-1.3636,-1.4158,-1.4731,-1.4831,-1.5172,-1.5497,-1.5561,-1.5328,-1.5078,-1.5078,-1.5043,-1.5124,-1.5515,-1.5673,-1.5783,-1.5839,-1.6074,-1.6158,-1.5836,-1.61,-1.6296,-1.6296,-1.6437,-1.6534,-1.6534,-1.6349,-1.6171,-1.6065,-1.5695,-1.5427,-1.5236,-1.5177,-1.5043,-1.4683,-1.4236,-1.3893,-1.3566,-1.2855,-1.2589,-1.2796,-1.2552,-1.2381,-1.2295,-1.2295,-1.2252,-1.2209,-1.2209,-1.2209,-1.2155,-1.1679,-1.1518,-1.1475,-1.1017,-1.091,-1.0973,0.0,0.0,0.0,0.0,0.0,0.0,0.0,0.0,0.0,0.0,-1.9106,-1.8705,0.0,0.0,0.0,0.0,0.0,0.0,-1.618,-1.6041,-1.6215,-1.6758,-1.7228,-1.8262,-1.994,-2.1075,-2.2367,-2.3834,-2.3707,-2.3411,-2.2898,-2.1308,-2.0425,-2.0066,-1.9182,-1.7981,-1.6514,-1.5426,-1.4586,-1.3934,-1.3041,-1.2544,-1.2309,0.0,0.0,0.0,0.0,0.0,0.0,0.0,0.0,0.0,-1.1542,-1.1883,-1.2154,-1.3228,-1.3375,-1.3215,-1.3361,-1.3484,-1.3564,-1.359,-1.4164,-1.4742,-1.4934,-1.5025,-1.5165,-1.5425,-1.5146,-1.4887,-1.503,-1.4988,-1.5051,-1.537,-1.5477,-1.5552,-1.5627,-1.5859,-1.5924,-1.5697,-1.6027,-1.6254,-1.6254,-1.6365,-1.6428,-1.6348,-1.6114,-1.5906,-1.5714,-1.5325,-1.4992,-1.4713,-1.4829,-1.4652,-1.4122,-1.394,-1.363,-1.3216,-1.2642,-1.2304,-1.2147,-1.207,-1.2026,-1.2026,-1.2026,-1.1982,-1.1894,-1.1894,-1.1805,-1.1673,-1.1308,-1.112,-1.111,-1.0676,-1.0514,-1.0504,0.0,0.0,0.0,0.0,0.0,0.0,0.0,0.0,0.0,-1.7774,-1.768,-1.7413,0.0,0.0,0.0,-1.6369,-1.6263,-1.6153,-1.6097,-1.5956,-1.6186,-1.6849,-1.7384,-1.8314,-1.9728,-1.9478,-1.9228,-1.9001,-2.0701,-2.1454,-2.1298,-2.0661,-2.0164,-1.9841,-1.9147,-1.7945,-1.6349,-1.4951,-1.4209,-1.388,-1.2907,-1.2452,-1.2252,-1.1423,0.0,0.0,0.0,0.0,0.0,0.0,0.0,0.0,-1.0665,-1.1184,-1.1639,-1.2539,-1.253,-1.2349,-1.2663,-1.2723,-1.2853,-1.3407,-1.3902,-1.4487,-1.5145,-1.5029,-1.49,-1.5274,-1.5018,-1.4811,-1.5119,-1.5026,-1.4987,-1.5188,-1.5227,-1.5343,-1.5513,-1.5568,-1.5583,-1.5552,-1.589,-1.6134,-1.6134,-1.6215,-1.6196,-1.6004,-1.5575,-1.5242,-1.5006,-1.4783,-1.4447,-1.4039,-1.4484,-1.434,-1.3519,-1.3727,-1.3497,-1.2825,-1.2546,-1.2205,-1.179,-1.1978,-1.2048,-1.2048,-1.2048,-1.1865,-1.1635,-1.1635,-1.1497,-1.1211,-1.0935,-1.0796,-1.0731,-1.0276,-1.0102,-1.0064,0.0,0.0,0.0,0.0,0.0,0.0,0.0,0.0,-1.8368,-1.7564,-1.7556,-1.726,-1.638,-1.6355,0.0,-1.6163,-1.608,-1.6026,-1.5942,-1.5856,-1.6098,-1.6727,-1.77,-1.8326,-1.8579,-1.8153,-1.7562,-1.6858,-1.8132,-1.9189,-1.9999,-1.9459,-1.9603,-2.0215,-1.9354,-1.818,-1.6784,-1.5359,-1.4696,-1.4416,-1.3063,-1.2629,-1.271,-1.1492,-1.047,0.0,0.0,0.0,0.0,0.0,0.0,0.0,-0.9209,-0.9576,-0.9989,-1.0938,-1.1321,-1.1561,-1.204,-1.2535,-1.2943,-1.2893,-1.3176,-1.3622,-1.4305,-1.4164,-1.4096,-1.492,-1.465,-1.4292,-1.435,-1.4326,-1.4374,-1.47,-1.4878,-1.4998,-1.5038,-1.5286,-1.5346,-1.5068,-1.5346,-1.558,-1.558,-1.5448,-1.5382,-1.534,-1.5033,-1.4699,-1.4334,-1.425,-1.4039,-1.3561,-1.3679,-1.3647,-1.3507,-1.3344,-1.3201,-1.3021,-1.2582,-1.2368,-1.2262,-1.1941,-1.1681,-1.1497,-1.1497,-1.1313,-1.1073,-1.1073,-1.0888,-1.0658,-1.038,-1.0149,-0.9917,-0.965,-0.9354,-0.9083,0.0,0.0,0.0,0.0,0.0,0.0,0.0,0.0,-1.7231,-1.6776,-1.6788,-1.6634,-1.6169,-1.6163,0.0,0.0,-1.597,-1.5927,-1.5856,-1.5813,-1.6204,-1.7081,-1.7617,-1.7946,-1.8054,-1.7071,-1.6259,-1.57,-1.6106,-1.7036,-1.8457,-1.8753,-1.9074,-1.94,-1.86,-1.751,-1.6235,-1.4821,-1.4165,-1.3937,-1.2986,-1.2622,-1.2535,-1.1176,-1.0144,-0.9312,-0.8511,0.0,0.0,0.0,0.0,0.0,0.0,0.0,-0.9117,-0.9897,-1.0275,-1.0555,-1.0902,-1.1519,-1.2102,-1.2323,-1.2586,-1.2962,-1.3571,-1.3652,-1.3768,-1.4436,-1.4379,-1.4243,-1.4358,-1.4386,-1.4429,-1.4639,-1.475,-1.4791,-1.4791,-1.4961,-1.5004,-1.4819,-1.4975,-1.5061,-1.5061,-1.495,-1.4866,-1.4783,-1.4531,-1.4292,-1.3913,-1.3743,-1.351,-1.325,-1.3246,-1.3243,-1.3159,-1.3025,-1.287,-1.2759,-1.2273,-1.1834,-1.1433,-1.1594,-1.1485,-1.1248,-1.1248,-1.101,-1.0677,-1.0677,-1.0439,-1.0057,-0.9771,-0.9588,-0.9427,-0.8958,-0.8683,-0.8489,0.0,0.0,0.0,0.0,0.0,0.0,0.0,0.0,0.0,-1.5982,-1.5982,-1.5982,-1.5954,-1.5968,-1.597,0.0,0.0,0.0,-1.5799,-1.5904,-1.6398,-1.7374,-1.7344,-1.7301,-1.7405,-1.6005,-1.5092,-1.4674,-1.4488,-1.5183,-1.6719,-1.8052,-1.8567,-1.8391,-1.7695,-1.6726,-1.552,-1.4113,-1.3449,-1.3279,-1.2804,-1.2457,-1.2143,-1.0777,-0.9803,-0.9043,-0.8154,-0.7578,-0.7264,-0.7361,0.0,0.0,0.0,0.0,-0.8421,-0.8933,-0.9234,-0.9458,-0.9644,-1.0252,-1.0992,-1.164,-1.1952,-1.2286,-1.291,-1.3226,-1.3544,-1.3931,-1.4172,-1.4323,-1.4573,-1.4615,-1.4615,-1.4615,-1.4615,-1.4615,-1.4615,-1.4615,-1.4615,-1.4615,-1.4615,-1.4615,-1.4615,-1.4573,-1.4447,-1.4279,-1.4082,-1.3828,-1.3519,-1.3179,-1.2973,-1.2889,-1.2925,-1.2813,-1.265,-1.2651,-1.2516,-1.2273,-1.1688,-1.0944,-1.0216,-1.0846,-1.1042,-1.0904,-1.0846,-1.06,-1.0117,-1.006,-0.9772,-0.9278,-0.9088,-0.8981,-0.8867,-0.8237,-0.7973,-0.7863,0.0,0.0,0.0,0.0,0.0,0.0,0.0,0.0,0.0,0.0,-1.594,-1.594,-1.5842,-1.587,-1.5885,-1.5813,-1.5813,-1.5813,-1.5799,0.0,0.0,-1.6737,-1.7031,-1.6659,-1.5398,-1.4782,-1.3846,-1.2586,-1.3301,-1.3984,-1.4636,-1.6706,-1.7931,-1.8391,-1.7695,-1.6726,-1.5541,-1.4291,-1.3617,-1.3331,-1.2501,-1.22,-1.2062,-1.0667,-0.9806,-0.9221,-0.8317,-0.7569,-0.6999,-0.668,-0.649,0.0,0.0,0.0,-0.7253,-0.7384,-0.7807,-0.8326,-0.8746,-0.9525,-1.0334,-1.0838,-1.0972,-1.126,-1.2213,-1.2603,-1.293,-1.3626,-1.3957,-1.4126,-1.4166,-1.4166,-1.4166,-1.4166,-1.4166,-1.4166,-1.4166,-1.4166,-1.4166,-1.4166,-1.4166,-1.4166,-1.4166,-1.3997,-1.3815,-1.3815,-1.3434,-1.3137,-1.2839,-1.2625,-1.24,-1.2137,-1.2146,-1.211,-1.212,-1.2111,-1.198,-1.1688,-1.0953,-1.0158,-0.9361,-0.9221,-0.9418,-0.9821,-0.9567,-0.932,-0.8973,-0.8775,-0.8485,-0.8187,-0.8187,-0.8038,-0.7776,-0.7465,-0.7137,-0.6773,0.0,0.0,0.0,0.0,0.0,0.0,0.0,0.0,0.0,0.0,0.0,-1.574,-1.5697,-1.5784,-1.5827,-1.5799,-1.5426,-1.4996,-1.4598,-1.4822,-1.5078,-1.5375,-1.511,-1.4729,-1.4289,-1.3538,-1.2847,-1.2139,-1.2672,-1.3378,-1.425,-1.6098,-1.7065,-1.7339,-1.7021,-1.6271,-1.5151,-1.4243,-1.3558,-1.3011,-1.2672,-1.2342,-1.1949,-1.1058,-1.0195,-0.9335,-0.8434,-0.7588,-0.6827,-0.6459,-0.6269,-0.6181,-0.605,0.0,0.0,0.0,-0.6938,-0.7337,-0.7967,-0.8569,-0.9174,-0.9764,-1.0233,-1.0732,-1.1567,-1.2128,-1.2663,-1.3231,-1.3574,-1.3786,-1.4039,-1.4082,-1.4082,-1.4082,-1.4082,-1.4082,-1.4082,-1.4082,-1.4039,-1.3913,-1.387,-1.3828,-1.3743,-1.3603,-1.3476,-1.3349,-1.3052,-1.2796,-1.2528,-1.2057,-1.1782,-1.1826,-1.1556,-1.1461,-1.1609,-1.1288,-1.0748,-1.001,-0.9517,-0.8924,-0.8273,-0.8031,-0.818,-0.8684,-0.8428,-0.8131,-0.7882,-0.7633,-0.7335,-0.7086,-0.7086,-0.7036,-0.6886,-0.6637,-0.6305,-0.5989,0.0,0.0,0.0,0.0,0.0,0.0,0.0,0.0,0.0,0.0,0.0,-1.5551,-1.5566,0.0,0.0,0.0,-1.4834,-1.4188,-1.3607,-1.3578,-1.3748,-1.4093,-1.3495,-1.3163,-1.3232,-1.2397,-1.1863,-1.1579,-1.205,-1.2838,-1.3968,-1.5432,-1.6224,-1.6479,-1.6651,-1.6045,-1.4859,-1.4212,-1.3501,-1.2828,-1.2873,-1.2533,-1.19,-1.1508,-1.0681,-0.9632,-0.8824,-0.7831,-0.6852,-0.6474,-0.6182,-0.594,-0.5823,-0.5987,0.0,0.0,0.0,-0.6497,-0.7099,-0.7616,-0.8129,-0.8742,-0.9452,-1.0222,-1.0937,-1.1618,-1.2271,-1.2893,-1.3179,-1.3434,-1.387,-1.3955,-1.3997,-1.4082,-1.4082,-1.4082,-1.3997,-1.3997,-1.3913,-1.3646,-1.3561,-1.3476,-1.3349,-1.3222,-1.3094,-1.2924,-1.2571,-1.2272,-1.2143,-1.1499,-1.1228,-1.1337,-1.0914,-1.0705,-1.0839,-1.0112,-0.9369,-0.8577,-0.818,-0.7733,-0.7279,-0.7036,-0.7086,-0.7391,-0.7235,-0.7086,-0.6886,-0.6581,-0.6381,-0.6187,-0.6187,-0.6187,-0.6137,-0.5837,-0.5586,-0.5309,0.0,0.0,0.0,0.0,0.0,0.0,0.0,0.0,0.0,0.0,0.0,-1.5433,-1.5492,-1.5005,-1.4648,-1.4648,-1.4043,-1.3607,-1.3513,-1.3513,-1.3461,-1.3359,-1.3077,0.0,-1.1921,-1.1415,-1.0859,-1.02,-1.1184,-1.2203,-1.329,-1.4438,-1.5497,-1.6439,-1.7077,-1.6443,-1.4859,-1.4324,-1.3591,-1.2828,-1.2873,-1.2571,-1.2063,-1.1863,-1.1183,-1.0283,-0.9666,-0.8466,-0.7106,-0.6639,-0.5987,-0.5333,-0.5258,-0.542,-0.5615,0.0,0.0,0.0,-0.6038,-0.6707,-0.7457,-0.7932,-0.8666,-0.9493,-1.0429,-1.0993,-1.1607,-1.2517,-1.2924,-1.3179,-1.3392,-1.3603,-1.3786,-1.4039,-1.4082,-1.3997,-1.3743,-1.373,-1.3646,-1.3434,-1.3264,-1.3137,-1.3137,-1.2711,-1.2454,-1.2454,-1.18,-1.137,-1.137,-1.0939,-1.0616,-1.0397,-1.0092,-0.9819,-0.9492,-0.8588,-0.8124,-0.8024,-0.7279,-0.6731,-0.6437,-0.6192,-0.5942,-0.5737,-0.5987,-0.6092,-0.6042,-0.5787,-0.5636,-0.5636,-0.5636,-0.5636,-0.5586,-0.5035,-0.4834,-0.471,0.0,0.0,0.0,0.0,0.0,0.0,0.0,0.0,0.0,0.0,0.0,0.0,0.0,-1.5125,-1.4834,-1.4455,-1.3369,-1.2483,-1.1982,-1.199,-1.1954,-1.1832,-1.1683,-1.1413,-1.0969,-1.0677,-1.0367,-1.0046,-1.108,-1.1977,-1.2722,-1.4468,-1.5475,-1.5831,-1.6464,-1.599,-1.467,-1.4516,-1.3888,-1.3103,-1.3559,-1.3499,-1.3102,-1.289,-1.2053,-1.0846,-0.9913,-0.8634,-0.7324,-0.6895,-0.6336,-0.5769,-0.5533,-0.5522,-0.5542,-0.5311,-0.5241,-0.5321,-0.5606,-0.6031,-0.657,-0.7375,-0.7995,-0.8731,-0.9882,-1.0505,-1.109,-1.1892,-1.2251,-1.2466,-1.2711,-1.3264,-1.373,-1.3828,-1.3828,-1.3828,-1.3688,-1.3476,-1.3222,-1.2966,-1.2753,-1.2583,-1.2423,-1.2252,-1.208,-1.1952,-1.1553,-1.1154,-1.0852,-1.0299,-0.9805,-0.9394,-0.8971,-0.8475,-0.7952,-0.731,-0.688,-0.6686,-0.6237,-0.5982,-0.5887,-0.5591,-0.5441,-0.534,-0.509,-0.519,-0.5491,-0.5186,-0.4985,-0.4839,-0.4839,-0.4738,-0.4533,-0.4182,-0.3901,-0.3651,0.0,0.0,0.0,0.0,0.0,0.0,0.0,0.0,-1.4746,-1.4749,0.0,0.0,0.0,0.0,-1.4325,-1.3529,-1.2596,-1.1745,-1.1045,-1.1064,-1.1052,-1.0922,-1.0851,-1.0694,-1.0474,-1.0249,-1.0085,-0.997,-1.0965,-1.1768,-1.2373,-1.4044,-1.4902,-1.5118,-1.5463,-1.5221,-1.4514,-1.4323,-1.378,-1.3097,-1.3588,-1.3655,-1.3439,-1.3156,-1.2321,-1.1121,-0.9993,-0.8722,-0.7492,-0.7041,-0.6519,-0.6007,-0.5715,-0.5523,-0.5363,-0.5128,-0.498,-0.4921,-0.5195,-0.5479,-0.5883,-0.668,-0.7333,-0.8058,-0.9194,-0.9856,-1.0484,-1.1174,-1.1547,-1.1858,-1.2113,-1.2778,-1.3307,-1.3476,-1.3476,-1.3476,-1.3392,-1.3094,-1.2753,-1.2497,-1.2283,-1.2123,-1.1909,-1.1736,-1.1564,-1.1348,-1.0949,-1.0506,-1.0072,-0.9462,-0.8851,-0.8229,-0.7688,-0.7156,-0.663,-0.6207,-0.5887,-0.5741,-0.5436,-0.5336,-0.5336,-0.5039,-0.4939,-0.4889,-0.4386,-0.4437,-0.4889,-0.4634,-0.4383,-0.4135,-0.4135,-0.3984,-0.3679,-0.3454,-0.3172,-0.2835,0.0,0.0,0.0,0.0,0.0,0.0,0.0,0.0,-1.4429,-1.447,0.0,0.0,0.0,0.0,0.0,-1.1977,-1.1812,-1.1485,-1.0845,-1.0863,-1.0839,-1.0706,-1.0633,-1.0535,-1.0399,-1.0122,-0.9957,-0.9905,-1.0763,-1.1533,-1.2209,-1.3071,-1.3727,-1.4253,-1.411,-1.4125,-1.4279,-1.3717,-1.3222,-1.2807,-1.2942,-1.3014,-1.2961,-1.2553,-1.1887,-1.1048,-0.9975,-0.88,-0.7636,-0.7097,-0.6514,-0.5984,-0.5779,-0.5367,-0.4968,-0.4828,-0.4688,-0.4613,0.0,0.0,0.0,-0.5866,-0.6628,-0.7496,-0.8291,-0.9044,-0.9764,-1.0423,-1.0961,-1.1358,-1.1608,-1.2066,-1.254,-1.2966,-1.3052,-1.3009,-1.2741,-1.2485,-1.2283,-1.1995,-1.178,-1.1661,-1.1661,-1.1273,-1.0873,-1.0593,-0.9951,-0.9375,-0.8894,-0.8412,-0.7709,-0.6776,-0.623,-0.5889,-0.57,-0.5335,-0.519,-0.519,-0.4935,-0.4784,-0.4784,-0.4487,-0.4386,-0.4336,-0.383,-0.388,-0.4336,-0.4085,-0.383,-0.3578,-0.3578,-0.3377,-0.3123,-0.2865,-0.2598,-0.229,0.0,0.0,0.0,0.0,0.0,-1.4671,-1.4148,-1.452,-1.4705,0.0,0.0,0.0,-1.4926,-1.4316,-1.3699,-1.3211,-1.2036,-1.1229,-1.111,-1.08,-1.0597,-1.056,-1.0498,-1.0374,-1.0186,-0.9957,-0.9935,-1.0123,-1.0696,-1.124,-1.1707,-1.2325,-1.2708,-1.2849,-1.264,-1.2417,-1.2129,-1.2789,-1.2983,-1.2882,-1.2871,-1.3096,-1.3331,-1.2564,-1.1966,-1.1382,-0.9909,-0.8832,-0.806,-0.7447,-0.6903,-0.6339,-0.5739,-0.5189,-0.4761,-0.4622,-0.4491,-0.4425,-0.46,0.0,0.0,0.0,0.0,0.0,-0.7536,-0.8527,-0.9435,-0.9812,-1.0541,-1.1108,-1.1191,-1.1569,-1.1952,-1.208,-1.2369,-1.2583,-1.2485,-1.2155,-1.178,-1.1553,-1.1305,-1.1046,-1.0733,-1.0559,-1.0342,-0.9907,-0.9375,-0.8807,-0.8141,-0.6997,-0.6207,-0.5813,-0.5375,-0.5111,-0.5133,-0.4926,-0.4872,-0.4885,-0.4638,-0.4487,-0.4487,-0.4031,-0.383,-0.378,-0.3277,-0.2975,-0.2975,-0.3279,-0.3279,-0.3025,-0.2823,-0.2572,-0.2266,-0.1828,-0.1605,-0.1484,0.0,0.0,-1.4497,-1.4362,-1.4937,-1.5252,-1.4594,-1.5049,-1.5262,0.0,0.0,0.0,-1.5105,-1.4761,-1.4263,-1.3667,-1.2445,-1.1556,-1.1145,-1.0638,-1.0362,-1.0323,-1.0286,-1.0173,-0.9983,-0.9751,-0.9684,-0.9789,-1.0294,-1.0585,-1.0725,-1.1348,-1.1559,-1.1463,-1.1284,-1.1006,-1.0715,-1.1453,-1.1902,-1.2104,-1.2367,-1.2575,-1.2706,-1.2233,-1.1719,-1.1109,-0.9855,-0.8917,-0.8259,-0.766,-0.6986,-0.6302,-0.5781,-0.524,-0.4779,-0.469,-0.4559,-0.4469,-0.4644,-0.4688,-0.4802,-0.5346,0.0,0.0,-0.68,-0.7659,-0.8472,-0.8965,-0.9649,-1.0243,-1.0379,-1.0716,-1.0994,-1.1103,-1.1363,-1.1672,-1.2066,-1.178,-1.1435,-1.1208,-1.0949,-1.0646,-1.0159,-0.9898,-0.9462,-0.8894,-0.8317,-0.7658,-0.682,-0.5852,-0.5235,-0.5107,-0.4799,-0.4648,-0.4699,-0.4691,-0.4683,-0.4583,-0.4472,-0.4286,-0.4034,-0.3632,-0.3327,-0.3075,-0.2523,-0.217,-0.1918,-0.212,-0.217,-0.2118,-0.1952,-0.1746,-0.1442,-0.1162,-0.1046,-0.0986,0.0,0.0,-1.4689,-1.4676,-1.5505,-1.6006,-1.5479,-1.5883,-1.6077,0.0,-1.5505,-1.5511,-1.5383,-1.5383,-1.4903,-1.3761,-1.3055,-1.2214,-1.1162,-1.0572,-1.02,-1.0097,-1.0072,-0.997,-0.9775,-0.9475,-0.9309,-0.9202,-0.9669,-0.9796,-0.9627,-1.026,-1.0395,-1.0133,-1.0092,-0.9918,-0.9696,-1.0054,-1.0364,-1.0738,-1.1553,-1.176,-1.1578,-1.1661,-1.126,-1.06,-0.9729,-0.9006,-0.8364,-0.7726,-0.6965,-0.6207,-0.5982,-0.5483,-0.5009,-0.5006,-0.4847,-0.4692,-0.4811,-0.4815,-0.4849,-0.5111,-0.534,0.0,-0.6097,-0.6645,-0.7286,-0.8006,-0.856,-0.9027,-0.9428,-0.9653,-0.9852,-1.0136,-1.0179,-1.0516,-1.1464,-1.1445,-1.1187,-1.1003,-1.0733,-1.0332,-0.9811,-0.9157,-0.8448,-0.7702,-0.6997,-0.6207,-0.5369,-0.4884,-0.4661,-0.4661,-0.4468,-0.438,-0.4388,-0.4598,-0.4541,-0.4313,-0.4288,-0.4028,-0.3478,-0.3179,-0.2725,-0.2219,-0.1716,-0.1364,-0.1112,-0.0858,-0.091,-0.1159,-0.1138,-0.0982,-0.0733,-0.0704,-0.074,-0.0738,-1.4497,-1.4576,-1.4834,-1.5575,-1.6227,-1.6637,-1.6518,-1.7021,-1.7174,-1.659,-1.6918,-1.7025,-1.646,-1.6409,-1.5911,-1.474,-1.367,-1.2654,-1.1634,-1.0999,-1.0491,-1.0046,-0.9906,-0.9725,-0.9475,-0.9145,-0.9063,-0.9211,-0.921,-0.9335,-0.961,-0.963,-0.9451,-0.912,-0.9699,-0.9294,-0.8289,-0.9566,-0.9753,-0.926,-1.0575,-1.1284,-1.1474,-1.1017,-1.0737,-1.0492,-0.9414,-0.8975,-0.876,-0.7996,-0.7443,-0.6995,-0.6639,-0.6167,-0.5764,-0.5652,-0.5374,-0.5102,-0.518,-0.4915,-0.4709,-0.498,-0.5241,0.0,-0.5543,-0.6292,-0.6992,-0.7149,-0.7817,-0.8436,-0.8761,-0.8925,-0.9109,-0.9437,-0.9406,-0.9757,-1.097,-1.11,-1.0995,-1.0799,-1.0516,-0.9941,-0.8894,-0.8317,-0.7658,-0.6738,-0.5852,-0.5186,-0.4839,-0.4523,-0.4389,-0.4389,-0.4361,-0.4361,-0.4388,-0.4425,-0.4419,-0.4313,-0.389,-0.3431,-0.2927,-0.2221,-0.1718,-0.1414,-0.1111,-0.0808,-0.0555,-0.0505,-0.0656,-0.0857,-0.0643,-0.054,-0.044,-0.0235,-0.0277,-0.0507,-1.4106,-1.4485,-1.5024,-1.5729,-1.6773,-1.7485,-1.751,-1.7966,-1.8143,-1.7586,-1.7693,-1.7697,-1.7287,-1.7013,-1.6492,-1.5604,-1.4268,-1.3127,-1.2357,-1.151,-1.0922,-1.062,-1.0369,-1.0035,-0.9564,-0.9186,-0.8898,-0.87,-0.872,-0.8736,-0.8704,-0.8832,-0.8748,-0.8521,-0.8892,-0.872,-0.8213,-0.9004,-0.917,-0.8947,-1.0017,-1.0482,-1.0552,-1.0506,-1.0433,-1.0285,-0.9782,-0.942,-0.9096,-0.8392,-0.7843,-0.7382,-0.7052,-0.6548,-0.6044,-0.6055,-0.5692,-0.53,-0.5349,-0.5061,-0.4773,-0.4921,-0.4897,0.0,0.0,-0.5328,-0.5748,-0.6137,-0.6624,-0.7081,-0.7389,-0.7542,-0.7685,-0.7901,-0.797,-0.8368,-0.9377,-0.9972,-1.0264,-1.0073,-0.9723,-0.9083,-0.7974,-0.7304,-0.6527,-0.5497,-0.4903,-0.4542,-0.4458,-0.4364,-0.43,-0.43,-0.43,-0.432,-0.4365,-0.4368,-0.4251,-0.4003,-0.3646,-0.3109,-0.234,-0.1811,-0.1314,-0.0808,-0.0656,-0.0454,-0.0202,-0.02,-0.0299,-0.0398,-0.0244,-0.0193,-0.0193,-0.0046,-0.0228,-0.0546,-1.3736,-1.4399,-1.5182,-1.5764,-1.7074,-1.8129,-1.8329,-1.8707,-1.8858,-1.8483,-1.8312,-1.8141,-1.7897,-1.7482,-1.6968,-1.6308,-1.4943,-1.3825,-1.3167,-1.2126,-1.1422,-1.1255,-1.0829,-1.0308,-0.9709,-0.9256,-0.8764,-0.8263,-0.8304,-0.8123,-0.7744,-0.8102,-0.8258,-0.8222,-0.8401,-0.8523,-0.8622,-0.88,-0.8911,-0.8996,-0.9509,-0.9699,-0.9736,-1.0149,-1.0264,-1.0211,-1.0263,-0.9922,-0.939,-0.8818,-0.8253,-0.7694,-0.7422,-0.6844,-0.6303,-0.6341,-0.5915,-0.5422,-0.5404,-0.5072,-0.4742,-0.4774,-0.45,-0.4272,0.0,0.0,0.0,-0.514,-0.5439,-0.5677,-0.5995,-0.6097,-0.6192,-0.6349,-0.6482,-0.6798,-0.7516,-0.8401,-0.9008,-0.9197,-0.8774,-0.8073,-0.7154,-0.6264,-0.5333,-0.438,-0.4219,-0.4153,-0.4216,-0.4255,-0.43,-0.43,-0.43,-0.43,-0.43,-0.4373,-0.4143,-0.3704,-0.3489,-0.282,-0.1808,-0.1544,-0.1055,-0.0301,-0.0303,-0.0202,0.0,0.0,0.0,0.0,0.0,0.0,0.0,0.0,-0.0314,-0.0717,-1.4057,-1.4587,-1.5289,-1.6245,-1.6999,-1.7802,-1.8757,-1.8958,-1.9058,-1.9226,-1.9146,-1.8821,-1.8208,-1.8111,-1.7628,-1.6572,-1.5922,-1.5106,-1.4038,-1.2894,-1.2013,-1.1415,-1.0651,-1.0091,-0.9718,-0.9082,-0.8653,-0.8453,-0.7949,-0.7636,-0.7544,-0.776,-0.8018,-0.8314,-0.9164,-0.9342,-0.9073,-0.9612,-0.9447,-0.8803,-0.8777,-0.9279,-1.0052,-1.0055,-1.026,-1.0512,-1.0338,-1.0027,-0.9615,-0.9316,-0.8788,-0.8234,-0.7849,-0.7372,-0.6923,-0.6644,-0.6069,-0.5481,-0.5414,-0.4816,-0.4225,-0.4333,-0.4205,-0.3995,-0.391,0.0,-0.42,-0.4403,0.0,-0.4898,-0.5112,0.0,0.0,-0.5568,-0.544,-0.5518,-0.6145,-0.6223,-0.6825,-0.8401,-0.7976,-0.7287,-0.6659,-0.5335,-0.4358,-0.3997,-0.3997,-0.4087,-0.4212,-0.4255,-0.43,-0.43,-0.43,-0.43,-0.43,-0.4308,-0.4085,-0.3701,-0.3205,-0.2492,-0.1532,-0.1074,-0.0591,-0.0049,-0.005,-0.005,0.0,0.0,0.0,0.0,0.0,0.0,0.0,0.0,-0.0314,-0.0717,-1.3674,-1.4138,-1.4714,-1.5437,-1.6296,-1.7127,-1.7834,-1.8338,-1.873,-1.8927,-1.9024,-1.8897,-1.8363,-1.834,-1.8178,-1.7686,-1.6773,-1.5846,-1.5014,-1.3897,-1.2805,-1.1793,-1.1456,-1.0816,-0.9779,-0.9372,-0.8867,-0.828,-0.7749,-0.7421,-0.7333,-0.7363,-0.7653,-0.8158,-0.8895,-0.9393,-0.9674,-0.9791,-0.9777,-0.9618,-0.9032,-0.9302,-0.9994,-0.9616,-0.9955,-1.0621,-1.1001,-1.081,-1.0386,-1.029,-0.9616,-0.8669,-0.8255,-0.7613,-0.6902,-0.6456,-0.5943,-0.5494,-0.5281,-0.4767,-0.4313,-0.4456,-0.4128,-0.3798,-0.3891,-0.3863,-0.3858,-0.4036,0.0,0.0,0.0,0.0,0.0,0.0,-0.4499,-0.4558,-0.4865,-0.4816,-0.5298,-0.6753,-0.6522,-0.5899,-0.5073,-0.4345,-0.3869,-0.363,-0.3818,-0.3973,-0.4014,-0.4193,-0.43,-0.43,-0.43,-0.43,-0.43,-0.43,-0.4096,-0.3636,-0.3126,-0.2367,-0.1407,-0.1005,-0.0531,0.0,0.0,0.0,0.0,0.0,0.0,0.0,0.0,0.0,0.0,0.0,-0.0225,-0.0538,-1.3224,-1.3712,-1.4217,-1.4601,-1.5422,-1.6239,-1.6932,-1.7727,-1.8293,-1.8476,-1.8616,-1.8577,-1.8335,-1.8393,-1.8451,-1.8451,-1.7494,-1.6625,-1.6009,-1.4752,-1.3541,-1.2383,-1.2043,-1.1283,-1.0001,-0.9581,-0.8978,-0.8194,-0.7593,-0.7259,-0.7151,-0.708,-0.7434,-0.8173,-0.8822,-0.9591,-1.0373,-1.0203,-1.0222,-1.0295,-0.9413,-0.9478,-1.0039,-0.9821,-1.0198,-1.0994,-1.1708,-1.171,-1.1364,-1.1267,-1.0454,-0.9342,-0.8755,-0.7906,-0.7043,-0.6493,-0.6086,-0.57,-0.5463,-0.5036,-0.466,-0.475,-0.4278,-0.3843,-0.4029,-0.389,-0.3793,-0.3995,-0.4273,0.0,0.0,0.0,-0.4326,-0.4095,0.0,-0.3942,-0.3989,-0.3888,-0.4222,-0.5305,-0.5181,-0.467,-0.382,-0.3618,-0.3479,-0.3362,-0.3614,-0.3822,-0.3895,-0.4132,-0.4275,-0.43,-0.43,-0.4255,-0.421,-0.421,-0.3942,-0.3406,-0.3004,-0.2293,-0.1286,-0.0937,-0.0473,0.0,0.0,0.0,0.0,0.0,0.0,0.0,0.0,-0.0047,-0.0093,-0.0046,-0.0226,-0.0543,-1.2896,-1.3552,-1.4116,-1.4116,-1.4481,-1.5179,-1.6423,-1.7287,-1.7938,-1.8266,-1.8078,-1.7975,-1.8096,-1.823,-1.83,-1.83,-1.8048,-1.7579,-1.6905,-1.5321,-1.4035,-1.3202,-1.1969,-1.1025,-1.0382,-0.9503,-0.8821,-0.8383,-0.7519,-0.708,-0.7002,-0.6945,-0.7478,-0.8514,-0.9326,-1.0205,-1.1091,-1.1212,-1.094,-1.0428,-0.9835,-0.9868,-1.036,-1.0983,-1.1396,-1.1755,-1.2433,-1.2656,-1.2556,-1.205,-1.1323,-1.0441,-0.9321,-0.8433,-0.7655,-0.7114,-0.6596,-0.6191,-0.6179,-0.5738,-0.5248,-0.5185,-0.4725,-0.4263,-0.4218,-0.4141,-0.4143,-0.4353,-0.4646,-0.4856,-0.479,-0.4736,0.0,0.0,0.0,0.0,0.0,0.0,0.0,0.0,0.0,-0.3778,-0.3348,-0.3188,-0.3137,-0.3218,-0.3405,-0.3626,-0.3887,-0.4075,-0.4214,-0.4295,-0.43,-0.4166,-0.3901,-0.3901,-0.3588,-0.2911,-0.2648,-0.202,-0.1078,-0.0825,-0.0463,0.0,0.0,0.0,0.0,0.0,0.0,0.0,0.0,-0.0145,-0.0333,-0.0093,-0.0323,-0.0788,-1.2704,-1.2919,-1.3208,-1.3272,-1.3957,-1.5011,-1.6503,-1.6621,-1.6837,-1.7608,-1.7735,-1.7832,-1.7943,-1.8359,-1.8642,-1.8642,-1.8406,-1.78,-1.6791,-1.5669,-1.4451,-1.2998,-1.2605,-1.1913,-1.0826,-1.0288,-0.9533,-0.8603,-0.7718,-0.716,-0.6945,-0.6855,-0.7243,-0.8006,-0.881,-0.9898,-1.1112,-1.1133,-1.1411,-1.1712,-1.122,-1.1162,-1.1456,-1.1517,-1.1815,-1.2236,-1.291,-1.3003,-1.2734,-1.2621,-1.1739,-1.0634,-0.999,-0.9145,-0.8288,-0.7734,-0.7375,-0.7064,-0.6836,-0.6489,-0.6131,-0.6086,-0.5586,-0.5128,-0.5224,-0.5081,-0.4995,-0.5372,-0.5553,-0.5631,-0.5583,0.0,0.0,0.0,0.0,0.0,0.0,0.0,0.0,0.0,0.0,0.0,0.0,0.0,-0.3089,-0.307,-0.3329,-0.3589,-0.3837,-0.4084,-0.421,-0.4295,-0.4121,-0.3991,-0.3901,-0.3588,-0.3272,-0.2911,-0.2332,-0.1705,-0.1077,-0.0677,-0.0317,0.0,0.0,-0.0096,-0.0241,-0.0249,-0.0352,-0.055,-0.0543,-0.0586,-0.063,-0.038,-0.0472,-0.0851,-1.2792,-1.2775,-1.2836,-1.2839,-1.3577,-1.4594,-1.5927,-1.6015,-1.6283,-1.7217,-1.7523,-1.772,-1.7922,-1.8268,-1.8516,-1.8516,-1.8288,-1.774,-1.6719,-1.593,-1.4902,-1.3497,-1.3192,-1.2502,-1.1304,-1.0812,-0.9992,-0.8802,-0.8121,-0.7533,-0.703,-0.6969,-0.7162,-0.7566,-0.8459,-0.9595,-1.0846,-1.1121,-1.1651,-1.2248,-1.1933,-1.1981,-1.2283,-1.2504,-1.2737,-1.3067,-1.3665,-1.3624,-1.332,-1.3253,-1.2426,-1.1279,-1.0705,-0.9955,-0.9173,-0.8684,-0.846,-0.8352,-0.8122,-0.7854,-0.7613,-0.7498,-0.6914,-0.6376,-0.6403,-0.6192,-0.6048,-0.6338,-0.6389,-0.6354,-0.6304,-0.6183,0.0,0.0,0.0,0.0,0.0,-0.296,0.0,0.0,0.0,0.0,0.0,0.0,-0.3039,-0.3061,-0.333,-0.3528,-0.3703,-0.3932,-0.4035,-0.4118,-0.3798,-0.3633,-0.3544,-0.3093,-0.269,-0.2374,-0.1794,-0.1301,-0.0852,-0.0538,-0.027,0.0,-0.0094,-0.0239,-0.0434,-0.0598,-0.0808,-0.0958,-0.1046,-0.114,-0.1187,-0.0825,-0.0967,-0.146,-1.3116,-1.3116,-1.3075,-1.2824,-1.3291,-1.3973,-1.4777,-1.5505,-1.6244,-1.7061,-1.7432,-1.7724,-1.7954,-1.8032,-1.8032,-1.7998,-1.7823,-1.7426,-1.6826,-1.6118,-1.5373,-1.4662,-1.3772,-1.2848,-1.1943,-1.1174,-1.0217,-0.9089,-0.8701,-0.8101,-0.7296,-0.723,-0.7198,-0.7232,-0.8286,-0.9312,-1.0324,-1.1132,-1.1742,-1.2118,-1.2091,-1.2337,-1.2858,-1.3781,-1.4139,-1.4181,-1.4559,-1.4531,-1.4249,-1.3968,-1.3258,-1.2336,-1.1427,-1.0778,-1.0272,-0.9882,-0.9836,-0.9869,-0.9888,-0.9744,-0.9531,-0.9309,-0.867,-0.801,-0.7676,-0.746,-0.73,-0.7215,-0.719,-0.7141,-0.6904,-0.6519,-0.6053,0.0,0.0,0.0,0.0,0.0,0.0,0.0,0.0,0.0,0.0,0.0,0.0,0.0,0.0,0.0,0.0,-0.3637,-0.3733,-0.3776,-0.3371,-0.3093,-0.2867,-0.2377,-0.1884,-0.1391,-0.1166,-0.0852,-0.0404,-0.0404,-0.0227,-0.0046,-0.0284,-0.0434,-0.0492,-0.1052,-0.1263,-0.1313,-0.1564,-0.1866,-0.2012,-0.1484,-0.179,-0.2521,-1.3488,-1.3438,-1.3604,-1.385,-1.3983,-1.4281,-1.4961,-1.5376,-1.5929,-1.6727,-1.7199,-1.7613,-1.8018,-1.8342,-1.8425,-1.8261,-1.7943,-1.7465,-1.6693,-1.6089,-1.5495,-1.4845,-1.4493,-1.4056,-1.3528,-1.25,-1.1404,-1.0268,-0.9332,-0.8339,-0.7296,-0.723,-0.7115,-0.7015,-0.7795,-0.8707,-0.9771,-1.0715,-1.1688,-1.2575,-1.289,-1.3319,-1.3794,-1.4322,-1.4657,-1.4866,-1.4964,-1.465,-1.4126,-1.3569,-1.2839,-1.2065,-1.1726,-1.1236,-1.0785,-1.1042,-1.09,-1.0733,-1.0925,-1.081,-1.0589,-1.0359,-0.9918,-0.9471,-0.9218,-0.8963,-0.8803,-0.8673,-0.8539,-0.8322,-0.7922,-0.7419,-0.6818,0.0,0.0,0.0,0.0,0.0,0.0,0.0,0.0,0.0,0.0,0.0,0.0,0.0,0.0,0.0,-0.3392,-0.3504,-0.3461,-0.3296,-0.3102,-0.278,-0.2377,-0.1884,-0.148,-0.1166,-0.0762,-0.0497,-0.0413,-0.0184,-0.0186,-0.0331,-0.058,-0.0929,-0.1327,-0.1854,-0.2221,-0.2423,-0.2675,-0.2975,-0.3123,-0.2609,-0.2761,-0.3327,-1.3882,-1.3872,-1.4194,-1.4913,-1.5008,-1.5091,-1.5369,-1.5729,-1.6197,-1.681,-1.726,-1.7666,-1.8005,-1.8193,-1.8212,-1.8045,-1.7752,-1.7351,-1.6883,-1.6369,-1.5861,-1.5446,-1.5019,-1.4562,-1.4125,-1.3151,-1.2041,-1.0738,-0.9827,-0.8717,-0.7416,-0.7215,-0.695,-0.6658,-0.7315,-0.8165,-0.9247,-1.0916,-1.212,-1.3016,-1.3522,-1.3899,0.0,-1.4559,-1.4741,-1.4783,-1.4573,-1.4268,-1.3867,-1.3387,-1.2713,-1.2069,-1.1883,-1.1626,-1.1366,-1.1571,-1.1619,-1.165,-1.1811,-1.1744,-1.1573,-1.1483,-1.114,-1.0742,-1.0476,-1.024,-1.0012,-0.9755,-0.9374,-0.8954,-0.8397,-0.7673,-0.6821,-0.5666,0.0,0.0,0.0,0.0,0.0,0.0,0.0,0.0,0.0,0.0,0.0,0.0,0.0,0.0,0.0,-0.314,-0.3024,-0.2778,-0.2426,-0.2061,-0.1705,-0.1211,-0.0896,-0.0807,-0.0407,-0.0274,-0.0416,-0.0236,-0.0384,-0.0832,-0.1098,-0.1566,-0.2089,-0.2624,-0.3032,-0.3264,-0.3493,-0.3732,-0.393,-0.3632,-0.3682,-0.393,-1.4362,-1.4399,-1.4778,-1.5822,-1.6087,-1.6117,-1.6009,-1.6375,-1.6777,-1.7097,-1.7492,-1.7825,-1.7988,-1.7911,-1.7834,-1.7796,-1.7497,-1.7273,-1.7235,-1.6739,-1.6385,-1.6181,-1.5455,-1.4831,-1.4279,-1.3474,-1.236,-1.0957,-1.0202,-0.9068,-0.7624,-0.7179,-0.6723,-0.6292,-0.69,-0.783,-0.9108,-1.1439,-1.2792,-1.3421,-1.3919,-1.4237,-1.4433,-1.4573,-1.4475,-1.4223,-1.3747,-1.3535,-1.3477,-1.3231,-1.2672,-1.2098,-1.1958,-1.1892,-1.1834,-1.1761,-1.2066,-1.2425,-1.2457,-1.2457,-1.2457,-1.2457,-1.2145,-1.1779,-1.1498,-1.1327,-1.1036,-1.053,-0.9987,-0.9394,-0.8678,-0.7592,-0.6392,-0.5069,-0.4522,0.0,0.0,0.0,0.0,0.0,0.0,0.0,0.0,0.0,0.0,0.0,0.0,0.0,0.0,0.0,-0.2559,-0.2267,-0.1755,-0.1346,-0.1122,-0.0717,-0.0494,-0.045,-0.0229,-0.0232,-0.0469,-0.0485,-0.0847,-0.1375,-0.1757,-0.2257,-0.277,-0.3406,-0.3791,-0.3982,-0.4062,-0.4236,-0.4437,-0.4437,-0.4437,-0.4437,-1.5193,-1.5247,-1.5504,-1.5928,-1.6606,-1.7064,-1.703,-1.7037,-1.7079,-1.7313,-1.7748,-1.8026,-1.8098,-1.8362,-1.8439,-1.8263,-1.7904,-1.7614,-1.7441,-1.7059,-1.6703,-1.6514,-1.6094,-1.5696,-1.5251,-1.3948,-1.2768,-1.1799,-1.0293,-0.8942,-0.7741,-0.7119,-0.6545,-0.609,-0.6808,-0.8325,-1.0431,-1.1933,-1.3058,-1.3845,-1.4198,-1.4349,-1.4391,-1.4265,-1.3942,-1.3519,-1.3039,-1.295,-1.2931,-1.2395,-1.1968,-1.1676,-1.1901,-1.1841,-1.1772,-1.2426,-1.2505,-1.2457,-1.2651,-1.2753,-1.2753,-1.2753,-1.2689,-1.2559,-1.2285,-1.2199,-1.1973,-1.1262,-1.0911,-1.0398,-0.9425,-0.7762,-0.6256,-0.5291,-0.48,-0.4502,0.0,0.0,0.0,0.0,0.0,-0.3565,0.0,0.0,0.0,0.0,0.0,0.0,0.0,0.0,-0.2437,-0.2056,-0.1843,-0.1525,-0.1122,-0.1031,-0.0905,-0.0736,-0.0693,-0.0713,-0.0796,-0.1052,-0.133,-0.1689,-0.2433,-0.3024,-0.3406,-0.415,-0.4631,-0.4755,-0.4719,-0.4684,-0.4734,-0.4734,-0.4734,-0.4734,-1.5594,-1.5725,-1.6027,-1.6585,-1.7032,-1.7415,-1.7759,-1.7697,-1.7567,-1.7596,-1.7782,-1.7982,-1.8057,-1.8209,-1.829,-1.8193,-1.8037,-1.7854,-1.7757,-1.7298,-1.6901,-1.6536,-1.6092,-1.5594,-1.5102,-1.4143,-1.3082,-1.1844,-1.0487,-0.9072,-0.764,-0.6908,-0.6457,-0.6268,-0.7768,-0.9432,-1.1143,-1.2578,-1.3656,-1.4455,-1.4435,-1.4349,-1.4181,-1.3717,-1.331,-1.2959,-1.2525,-1.2482,-1.26,-1.2299,-1.2,-1.1796,-1.2124,-1.2115,-1.211,-1.2505,-1.2596,-1.2619,-1.2775,-1.2807,-1.2807,-1.2807,-1.2807,-1.2786,-1.2619,-1.2597,-1.2378,-1.1653,-1.1253,-1.0517,-0.8894,-0.7699,-0.6614,-0.5716,-0.5317,-0.5023,0.0,0.0,0.0,0.0,0.0,0.0,0.0,0.0,0.0,0.0,0.0,0.0,0.0,0.0,-0.2378,-0.1977,-0.1791,-0.1527,-0.1191,-0.1249,-0.1224,-0.1157,-0.1241,-0.1375,-0.1516,-0.1871,-0.2231,-0.2646,-0.3268,-0.3772,-0.4259,-0.4717,-0.4974,-0.5026,-0.4888,-0.4784,-0.4784,-0.4784,-0.4784,-0.4792,-1.5841,-1.6024,-1.6394,-1.7067,-1.7373,-1.7693,-1.8266,-1.8264,-1.8145,-1.7957,-1.7878,-1.7882,-1.8014,-1.7991,-1.7991,-1.7951,-1.7951,-1.791,-1.787,-1.7439,-1.701,-1.6573,-1.5921,-1.5304,-1.4756,-1.4194,-1.3204,-1.1733,-1.066,-0.9287,-0.7643,-0.6896,-0.6641,-0.6941,-0.9106,-1.0652,-1.1739,-1.3273,-1.4321,-1.4874,-1.4518,-1.4223,-1.3899,-1.3199,-1.2798,-1.2503,-1.216,-1.2158,-1.2347,-1.2395,-1.2226,-1.2081,-1.2323,-1.2393,-1.2425,-1.2468,-1.2619,-1.2807,-1.2807,-1.2807,-1.2807,-1.2807,-1.2807,-1.2807,-1.271,-1.2678,-1.2422,-1.1718,-1.106,-1.0119,-0.8404,-0.7644,-0.7045,-0.6245,-0.5857,-0.5514,-0.5164,0.0,0.0,0.0,0.0,0.0,0.0,0.0,0.0,0.0,0.0,0.0,-0.2523,-0.2517,-0.2392,-0.2093,-0.1897,-0.1738,-0.1661,-0.169,-0.1779,-0.1888,-0.1975,-0.2181,-0.2416,-0.2788,-0.3228,-0.3628,-0.4012,-0.4484,-0.5027,-0.5074,-0.5108,-0.5092,-0.4857,-0.4784,-0.4784,-0.4784,-0.4796,-0.4875,-1.6065,-1.6225,-1.6489,-1.6796,-1.7588,-1.8303,-1.8536,-1.8702,-1.8702,-1.8393,-1.8141,-1.7997,-1.7991,-1.7991,-1.791,-1.7749,-1.7732,-1.7668,-1.7465,-1.7229,-1.6968,-1.6683,-1.5947,-1.5323,-1.4896,-1.406,-1.307,-1.1885,-1.0744,-0.9514,-0.8217,-0.7354,-0.7445,-0.8401,-1.0364,-1.1688,-1.2477,-1.403,-1.4683,-1.4631,-1.4448,-1.4026,-1.3417,-1.2945,-1.2424,-1.2082,-1.2077,-1.2118,-1.2173,-1.2332,-1.2245,-1.2151,-1.2354,-1.2393,-1.2457,-1.2662,-1.2797,-1.2807,-1.2807,-1.2807,-1.2807,-1.2807,-1.2807,-1.2759,-1.2467,-1.231,-1.1947,-1.1225,-1.02,-0.9283,-0.8737,-0.7957,-0.725,-0.6874,-0.628,-0.5784,-0.5478,0.0,-0.4788,0.0,0.0,0.0,0.0,-0.317,0.0,0.0,0.0,0.0,0.0,-0.2553,-0.2587,-0.2633,-0.2497,-0.2522,-0.2767,-0.2774,-0.2888,-0.3154,-0.3123,-0.3213,-0.3363,-0.3708,-0.3914,-0.3971,-0.4592,-0.5043,-0.5365,-0.5186,-0.5108,-0.5092,-0.4857,-0.4784,-0.4784,-0.4784,-0.4888,-0.4973,-1.7073,-1.7207,-1.7458,-1.7814,-1.8319,-1.869,-1.8766,-1.895,-1.8972,-1.8692,-1.8158,-1.7789,-1.7627,-1.7749,-1.7749,-1.7546,-1.7505,-1.7424,-1.7221,-1.6894,-1.6525,-1.6113,-1.5857,-1.5484,-1.4895,-1.4628,-1.3919,-1.2791,-1.1742,-1.0581,-0.9313,-0.8335,-0.8414,-0.945,-1.1626,-1.2813,-1.3244,-1.4599,-1.4979,-1.4614,-1.4141,-1.3664,-1.3169,-1.2721,-1.2417,-1.2238,-1.2278,-1.2361,-1.2537,-1.2587,-1.2468,-1.2328,-1.2716,-1.2824,-1.2877,-1.3125,-1.3082,-1.2964,-1.2964,-1.2867,-1.2807,-1.2807,-1.2662,-1.2507,-1.2268,-1.1947,-1.1477,-1.0706,-0.9783,-0.8957,-0.8556,-0.7955,-0.7349,-0.6862,-0.6317,-0.5832,-0.5427,-0.5027,0.0,0.0,0.0,0.0,0.0,0.0,0.0,0.0,0.0,0.0,0.0,-0.2691,-0.2801,-0.2873,-0.2753,-0.2796,-0.3031,-0.2976,-0.3102,-0.3428,-0.3594,-0.3794,-0.3984,-0.4344,-0.4679,-0.4879,-0.5098,-0.527,-0.5365,-0.5186,-0.5141,-0.512,-0.499,-0.4949,-0.4998,-0.4998,-0.5022,-0.5067,-1.7881,-1.8043,-1.8276,-1.8556,-1.8904,-1.915,-1.915,-1.9204,-1.9116,-1.8812,-1.8136,-1.7664,-1.7565,-1.7653,-1.7587,-1.7343,-1.7302,-1.718,-1.6812,-1.636,-1.5933,-1.5533,-1.5459,-1.529,-1.4927,-1.49,-1.446,-1.3453,-1.2658,-1.1648,-1.0394,-0.9762,-0.9825,-1.0591,-1.2697,-1.3723,-1.3903,-1.4907,-1.5063,-1.4579,-1.3978,-1.3498,-1.3052,-1.2687,-1.2492,-1.2425,-1.249,-1.2619,-1.2807,-1.2807,-1.2651,-1.2587,-1.2985,-1.3104,-1.3157,-1.3405,-1.3297,-1.3104,-1.3104,-1.2931,-1.2797,-1.2684,-1.2533,-1.2299,-1.1953,-1.1523,-1.0924,-0.9992,-0.9181,-0.8519,-0.8217,-0.7763,-0.7332,-0.6887,-0.6323,-0.5783,-0.5395,-0.4984,0.0,-0.422,-0.4063,-0.3777,-0.3405,-0.3401,0.0,0.0,0.0,0.0,0.0,-0.2828,-0.3002,-0.3127,-0.2879,-0.2901,-0.3137,-0.3097,-0.3275,-0.3595,-0.3943,-0.4249,-0.4457,-0.4867,-0.5154,-0.5382,-0.5382,-0.5382,-0.5369,-0.5214,-0.5132,-0.5176,-0.5071,-0.5051,-0.5108,-0.5108,-0.5124,-0.5157,-1.8318,-1.8428,-1.8579,-1.8621,-1.9213,-1.9683,-1.9683,-1.9506,-1.9223,-1.8779,-1.8117,-1.7738,-1.7894,-1.7763,-1.7529,-1.7139,-1.7098,-1.6812,-1.617,-1.5658,-1.5325,-1.5131,-1.4657,-1.4555,-1.487,-1.4653,-1.4229,-1.36,-1.3333,-1.2572,-1.1375,-1.1563,-1.1745,-1.1924,-1.352,-1.4258,-1.4422,-1.4994,-1.4937,-1.4475,-1.3993,-1.3507,-1.3076,-1.2879,-1.265,-1.2447,-1.2673,-1.2807,-1.2807,-1.2807,-1.2807,-1.2851,-1.3028,-1.3104,-1.3157,-1.3405,-1.3297,-1.3104,-1.3104,-1.2931,-1.2753,-1.2479,-1.2414,-1.2209,-1.1502,-1.1015,-1.0305,-0.8901,-0.8245,-0.79,-0.7893,-0.7452,-0.7092,-0.7092,-0.629,-0.5668,-0.5517,-0.5034,-0.4647,-0.4418,-0.4349,-0.4222,-0.4,-0.3944,0.0,0.0,0.0,0.0,0.0,-0.3009,-0.3118,-0.3398,-0.294,-0.2902,-0.3276,-0.3282,-0.3463,-0.3782,-0.4357,-0.465,-0.4807,-0.5226,-0.5382,-0.5382,-0.5382,-0.5382,-0.5373,-0.5279,-0.5188,-0.518,-0.5141,-0.5108,-0.5108,-0.5108,-0.5165,-0.5188,-1.9273,-1.9299,-1.9453,-1.971,-1.9949,-2.003,-1.985,-1.9805,-1.9517,-1.8835,-1.8396,-1.8008,-1.7721,-1.7488,-1.7221,-1.6802,-1.6666,-1.636,-1.5658,-1.5367,-1.5033,-1.4657,-1.4695,-1.4731,-1.4609,-1.4955,-1.4937,-1.4536,-1.4242,-1.3478,-1.2373,-1.266,-1.2809,-1.2896,-1.4174,-1.4552,-1.4308,-1.4624,-1.4396,-1.3779,-1.3462,-1.3158,-1.2867,-1.2817,-1.2749,-1.2662,-1.2786,-1.2807,-1.2807,-1.2807,-1.2807,-1.2883,-1.3233,-1.3362,-1.3437,-1.3846,-1.3674,-1.3362,-1.3362,-1.3071,-1.2797,-1.2673,-1.2309,-1.1775,-1.1231,-1.0165,-0.9103,-0.8472,-0.7937,-0.7635,-0.7635,-0.7238,-0.6789,-0.6479,-0.5902,-0.5384,-0.5015,-0.4634,-0.4355,-0.413,-0.4093,-0.405,-0.3867,-0.3718,0.0,0.0,0.0,0.0,0.0,-0.2651,-0.2756,-0.2967,-0.261,-0.2536,-0.2828,-0.2678,-0.2796,-0.3104,-0.3557,-0.4123,-0.4807,-0.5004,-0.521,-0.5382,-0.5382,-0.5382,-0.5373,-0.5284,-0.5279,-0.5328,-0.5239,-0.5239,-0.5296,-0.5296,-0.5312,-0.5337,-1.9898,-1.9949,-2.0018,-2.0257,-2.0201,-2.011,-1.9928,-1.9654,-1.9242,-1.8596,-1.8179,-1.7766,-1.7263,-1.7011,-1.6868,-1.6746,-1.6496,-1.6088,-1.55,-1.5063,-1.4657,-1.4279,-1.4469,-1.4588,-1.4522,-1.499,-1.5105,-1.4874,-1.4555,-1.3926,-1.3075,-1.3473,-1.3554,-1.3403,-1.4327,-1.4574,-1.4238,-1.4306,-1.4048,-1.3624,-1.3252,-1.3016,-1.2877,-1.283,-1.2785,-1.2807,-1.2807,-1.2807,-1.2807,-1.2807,-1.2807,-1.2894,-1.333,-1.3416,-1.3427,-1.3911,-1.3782,-1.3459,-1.3362,-1.3011,-1.264,-1.2507,-1.1978,-1.1301,-1.049,-0.9338,-0.8376,-0.8025,-0.7635,-0.7326,-0.7238,-0.684,-0.639,-0.6035,-0.5502,-0.5032,-0.4755,-0.4504,-0.4271,-0.415,-0.4113,-0.4049,-0.3853,-0.3726,-0.3467,-0.3086,0.0,0.0,-0.2138,-0.2297,-0.2437,-0.2487,-0.2143,-0.1965,-0.2022,-0.1951,-0.2031,-0.2374,-0.3107,-0.3816,-0.4493,-0.4768,-0.4987,-0.5214,-0.5326,-0.5382,-0.5377,-0.532,-0.5328,-0.5377,-0.5316,-0.5333,-0.5382,-0.5382,-0.5382,-0.5382,-2.0292,-2.0292,-2.0292,-2.0292,-2.0065,-1.9882,-1.9837,-1.9242,-1.8596,-1.8133,-1.7606,-1.7106,-1.6636,-1.6476,-1.6543,-1.6921,-1.6473,-1.6007,-1.5591,-1.488,-1.4389,-1.4191,-1.4148,-1.4282,-1.4549,-1.4843,-1.4868,-1.4611,-1.4352,-1.3989,-1.3534,-1.396,-1.393,-1.3567,-1.4088,-1.4292,-1.4292,-1.3979,-1.3883,-1.3835,-1.3292,-1.3098,-1.305,-1.2856,-1.2807,-1.2807,-1.2807,-1.2807,-1.2807,-1.2807,-1.2807,-1.2894,-1.3308,-1.3287,-1.32,-1.3674,-1.3642,-1.3405,-1.3168,-1.2734,-1.2318,-1.2062,-1.1524,-1.0773,-0.9449,-0.8645,-0.804,-0.7598,-0.7275,-0.701,-0.684,-0.639,-0.5991,-0.5719,-0.5146,-0.4737,-0.4739,-0.4488,-0.4328,-0.4364,-0.4295,-0.4158,-0.3939,-0.3849,-0.3496,-0.2679,-0.243,-0.2102,-0.153,-0.1897,-0.2036,-0.1938,-0.1564,-0.1279,-0.1084,-0.1132,-0.1341,-0.1621,-0.2829,-0.3568,-0.39,-0.4526,-0.4875,-0.4931,-0.527,-0.5382,-0.5382,-0.5382,-0.5382,-0.5382,-0.5382,-0.5382,-0.5382,-0.5382,-0.5382,-0.5382,-2.0292,-2.0292,-2.0246,-2.0019,-1.9928,-1.97,-1.915,-1.8719,-1.8257,-1.7559,-1.7246,-1.6965,-1.6636,-1.6565,-1.6589,-1.6704,-1.6325,-1.5876,-1.5389,-1.5188,-1.5014,-1.4807,-1.4794,-1.4834,-1.4901,-1.4955,-1.4882,-1.4678,-1.4395,-1.4111,-1.3826,-1.3897,-1.3933,-1.3837,-1.4124,-1.4292,-1.4244,-1.3775,-1.3593,-1.3545,-1.305,-1.2856,-1.2856,-1.2807,-1.2807,-1.2807,-1.2807,-1.2807,-1.2807,-1.2807,-1.2807,-1.2862,-1.3104,-1.3157,-1.32,-1.3674,-1.3523,-1.3129,-1.2865,-1.2587,-1.2311,-1.1813,-1.0855,-0.9875,-0.9084,-0.8336,-0.7773,-0.7531,-0.7149,-0.684,-0.6795,-0.6257,-0.5725,-0.5502,-0.5018,-0.4625,-0.4463,-0.4357,-0.4283,-0.4238,-0.4039,-0.3896,-0.3809,-0.3328,-0.2955,-0.2825,-0.21,-0.1585,-0.1505,-0.1224,-0.109,-0.125,-0.1063,-0.0937,-0.0871,-0.091,-0.1164,-0.1701,-0.2002,-0.2627,-0.3585,-0.3997,-0.4484,-0.4931,-0.527,-0.5382,-0.5382,-0.5382,-0.5382,-0.5382,-0.5382,-0.5382,-0.5382,-0.5382,-0.5382,-0.5382,-1.999,-1.999,-1.9899,-1.9608,-1.9471,-1.9196,-1.855,-1.8164,-1.7699,-1.7044,-1.6777,-1.6555,-1.6258,-1.6211,-1.6211,-1.6211,-1.6017,-1.5798,-1.5527,-1.5314,-1.5098,-1.5008,-1.5008,-1.4963,-1.4829,-1.4956,-1.4825,-1.4544,-1.4112,-1.3871,-1.3727,-1.3835,-1.3979,-1.4064,-1.4352,-1.4496,-1.4448,-1.3919,-1.363,-1.3448,-1.3012,-1.2807,-1.2807,-1.2807,-1.2807,-1.2807,-1.2807,-1.2807,-1.2807,-1.2807,-1.2807,-1.2851,-1.3028,-1.3028,-1.3017,-1.3383,-1.3308,-1.3032,-1.2678,-1.2317,-1.1834,-1.0904,-1.0021,-0.9204,-0.8644,-0.8127,-0.7724,-0.7601,-0.7262,-0.6891,-0.6663,-0.6071,-0.549,-0.5179,-0.4777,-0.4478,-0.43,-0.43,-0.4283,-0.4234,-0.4042,-0.3798,-0.3578,-0.3114,-0.2645,-0.2262,-0.163,-0.1187,-0.098,-0.0599,-0.0504,-0.0706,-0.066,-0.0567,-0.042,-0.0573,-0.0833,-0.1313,-0.1764,-0.233,-0.3117,-0.3892,-0.4424,-0.476,-0.521,-0.5382,-0.5382,-0.5382,-0.5382,-0.5382,-0.5382,-0.5382,-0.5382,-0.5382,-0.5326,-0.5154,-1.9487,-1.9487,-1.9396,-1.915,-1.8874,-1.855,-1.804,-1.7512,-1.7044,-1.6588,-1.6305,-1.6035,-1.5832,-1.5784,-1.5784,-1.5784,-1.5792,-1.5795,-1.5795,-1.5367,-1.5142,-1.5142,-1.5142,-1.4993,-1.4721,-1.4864,-1.4735,-1.4256,-1.3775,-1.3545,-1.3497,-1.3835,-1.4064,-1.4292,-1.464,-1.4736,-1.464,-1.4148,-1.3775,-1.3448,-1.3012,-1.2807,-1.2807,-1.2807,-1.2807,-1.2807,-1.2807,-1.2807,-1.2807,-1.2807,-1.2807,-1.2851,-1.2985,-1.292,-1.2851,-1.2996,-1.305,-1.2908,-1.2422,-1.1785,-1.1002,-0.9871,-0.9266,-0.8761,-0.8311,-0.8053,-0.7806,-0.7651,-0.7362,-0.6979,-0.6502,-0.5903,-0.5332,-0.4857,-0.4509,-0.432,-0.432,-0.4275,-0.4279,-0.4291,-0.404,-0.3671,-0.3312,-0.2985,-0.2383,-0.1509,-0.1167,-0.0794,-0.035,-0.0103,-0.0105,-0.0315,-0.0318,-0.0213,0.0,-0.0267,-0.0587,-0.091,-0.1738,-0.2354,-0.2692,-0.3898,-0.448,-0.4592,-0.5154,-0.5382,-0.5382,-0.5382,-0.5382,-0.5382,-0.5382,-0.5382,-0.5382,-0.5326,-0.5154,-0.4875,-1.8966,-1.892,-1.8874,-1.8627,-1.8411,-1.804,-1.7512,-1.6998,-1.6588,-1.6319,-1.6021,-1.5832,-1.5784,-1.5784,-1.5784,-1.5784,-1.5792,-1.5812,-1.5812,-1.5725,-1.5698,-1.5698,-1.5698,-1.5604,-1.5355,-1.4981,-1.4507,-1.3979,-1.3883,-1.3738,-1.3497,-1.4016,-1.4256,-1.434,-1.4831,-1.4892,-1.464,-1.4148,-1.3775,-1.3448,-1.3012,-1.2807,-1.2807,-1.2807,-1.2807,-1.2807,-1.2807,-1.2807,-1.2807,-1.2807,-1.2807,-1.2818,-1.2851,-1.284,-1.2818,-1.2851,-1.2667,-1.2412,-1.1893,-1.0855,-0.9871,-0.9624,-0.9057,-0.8463,-0.8236,-0.7994,-0.7794,-0.7624,-0.7221,-0.6744,-0.6455,-0.5832,-0.5228,-0.4866,-0.4564,-0.4368,-0.4368,-0.4185,-0.407,-0.4188,-0.3597,-0.315,-0.3058,-0.2243,-0.1682,-0.1577,-0.0923,-0.047,-0.0376,-0.0162,0.0,-0.0055,-0.0054,-0.0053,0.0,-0.0267,-0.0591,-0.0926,-0.1529,-0.2258,-0.3071,-0.3751,-0.4372,-0.4875,-0.5214,-0.5382,-0.5382,-0.5382,-0.5382,-0.5382,-0.5382,-0.5382,-0.5382,-0.5098,-0.4931,-0.4819,-1.8272,-1.8087,-1.7947,-1.7714,-1.7574,-1.734,-1.6777,-1.6494,-1.6305,-1.6021,-1.5879,-1.5784,-1.5784,-1.5784,-1.5784,-1.5784,-1.5784,-1.5784,-1.5784,-1.5784,-1.5784,-1.5784,-1.5784,-1.5721,-1.548,-1.5109,-1.4715,-1.4326,-1.418,-1.4109,-1.416,-1.44,-1.4688,-1.4962,-1.5035,-1.5035,-1.4892,-1.4196,-1.3775,-1.3448,-1.3012,-1.2807,-1.2807,-1.2807,-1.2807,-1.2807,-1.2807,-1.2807,-1.2807,-1.2807,-1.2807,-1.2807,-1.2807,-1.2807,-1.284,-1.291,-1.2611,-1.2029,-1.1345,-1.0413,-0.9525,-0.9229,-0.8684,-0.8166,-0.8104,-0.7985,-0.7867,-0.766,-0.7301,-0.6881,-0.6361,-0.583,-0.5273,-0.4844,-0.4621,-0.4477,-0.4383,-0.4245,-0.4083,-0.387,-0.3422,-0.2904,-0.2475,-0.1939,-0.1447,-0.0999,-0.0584,-0.0323,-0.0219,-0.0055,0.0,0.0,0.0,-0.0055,-0.0219,-0.0329,-0.0715,-0.1386,-0.1994,-0.267,-0.3418,-0.4148,-0.4651,-0.4931,-0.527,-0.5382,-0.5382,-0.5382,-0.527,-0.5154,-0.5154,-0.5043,-0.4875,-0.454,-0.4339,-0.4085,-1.7693,-1.7337,-1.7106,-1.6932,-1.6838,-1.6697,-1.6272,-1.6177,-1.6021,-1.5832,-1.5784,-1.5784,-1.5784,-1.5784,-1.5784,-1.5784,-1.5784,-1.5784,-1.5784,-1.5784,-1.5784,-1.5784,-1.5784,-1.5652,-1.5486,-1.5258,-1.501,-1.479,-1.4618,-1.4607,-1.4783,-1.4879,-1.507,-1.5404,-1.5261,-1.5083,-1.4892,-1.4268,-1.3773,-1.34,-1.3019,-1.2862,-1.2807,-1.2807,-1.2851,-1.2894,-1.2894,-1.2926,-1.298,-1.298,-1.298,-1.298,-1.298,-1.298,-1.2964,-1.3036,-1.2613,-1.1885,-1.1092,-1.0295,-0.9604,-0.9045,-0.8542,-0.819,-0.814,-0.8089,-0.8039,-0.7743,-0.7434,-0.7008,-0.6391,-0.5855,-0.5363,-0.4909,-0.4703,-0.4545,-0.4362,-0.4175,-0.3901,-0.3513,-0.3104,-0.2615,-0.1942,-0.1595,-0.1127,-0.0432,-0.0328,-0.022,0.0,0.0,0.0,0.0,-0.0056,-0.0168,-0.0393,-0.0617,-0.1065,-0.1795,-0.2578,-0.3194,-0.3701,-0.454,-0.4931,-0.5043,-0.527,-0.5382,-0.5382,-0.5382,-0.521,-0.4875,-0.4875,-0.4704,-0.4369,-0.4036,-0.3672,-0.3307,-1.7457,-1.7023,-1.6636,-1.6636,-1.6414,-1.6272,-1.6224,-1.5974,-1.5832,-1.5784,-1.5784,-1.5784,-1.5784,-1.5784,-1.5784,-1.5784,-1.5784,-1.5784,-1.5784,-1.5784,-1.5784,-1.5784,-1.5642,-1.5499,-1.5478,-1.523,-1.5086,-1.506,-1.506,-1.506,-1.5083,-1.5309,-1.5309,-1.5131,-1.5356,-1.5057,-1.4364,-1.4276,-1.3849,-1.312,-1.3095,-1.2953,-1.2807,-1.2807,-1.2948,-1.3082,-1.3082,-1.3233,-1.3427,-1.3427,-1.3427,-1.3427,-1.3427,-1.3427,-1.3375,-1.3079,-1.2607,-1.2032,-1.1207,-1.0586,-1.0016,-0.9399,-0.9026,-0.8758,-0.8497,-0.8452,-0.8347,-0.8033,-0.7561,-0.7037,-0.6463,-0.5879,-0.537,-0.5029,-0.4696,-0.4486,-0.4494,-0.3772,-0.333,-0.3384,-0.2441,-0.1766,-0.174,-0.0982,-0.0495,-0.0391,-0.0168,0.0,0.0,0.0,0.0,0.0,-0.0224,-0.0393,-0.0393,-0.129,-0.1739,-0.1795,-0.297,-0.3701,-0.398,-0.4596,-0.5043,-0.5382,-0.5382,-0.5382,-0.5382,-0.5382,-0.521,-0.4875,-0.4875,-0.454,-0.398,-0.3757,-0.3253,-0.2694,-1.7092,-1.6663,-1.6334,-1.6143,-1.6021,-1.5927,-1.5927,-1.5879,-1.5784,-1.5784,-1.5784,-1.5784,-1.5784,-1.5784,-1.5784,-1.5784,-1.5784,-1.5784,-1.5784,-1.5784,-1.5784,-1.5784,-1.5909,-1.5919,-1.5725,-1.581,-1.5761,-1.5593,-1.5593,-1.5586,-1.5547,-1.5642,-1.5652,-1.5593,-1.5325,-1.5022,-1.4761,-1.4267,-1.3892,-1.3563,-1.3409,-1.3287,-1.3211,-1.3211,-1.3265,-1.3351,-1.3502,-1.361,-1.3685,-1.3685,-1.3581,-1.3403,-1.3255,-1.3059,-1.2884,-1.2558,-1.237,-1.2147,-1.1291,-1.0754,-1.0264,-0.9489,-0.9115,-0.8846,-0.8584,-0.8321,-0.8065,-0.7586,-0.7223,-0.6717,-0.6036,-0.5678,-0.5439,-0.519,-0.4827,-0.4548,-0.439,-0.3805,-0.3183,-0.269,-0.2145,-0.1544,-0.0943,-0.0611,-0.0334,-0.0168,-0.0056,0.0,0.0,0.0,-0.0056,-0.0224,-0.0561,-0.0785,-0.0953,-0.1683,-0.2356,-0.2914,-0.3754,-0.4313,-0.4596,-0.4987,-0.527,-0.5382,-0.5382,-0.5382,-0.5382,-0.5154,-0.4901,-0.4526,-0.4192,-0.3674,-0.3102,-0.2639,-0.2222,-0.1794,-1.7103,-1.667,-1.6313,-1.6019,-1.5965,-1.5939,-1.5798,-1.5784,-1.5784,-1.5784,-1.5784,-1.5784,-1.5784,-1.5784,-1.5784,-1.5784,-1.5912,-1.5965,-1.5965,-1.5965,-1.5925,-1.5784,-1.6019,-1.6042,-1.5751,-1.5947,-1.5947,-1.5751,-1.5751,-1.5792,-1.5784,-1.5784,-1.5747,-1.5619,-1.5194,-1.4898,-1.469,-1.4191,-1.3905,-1.3748,-1.3659,-1.3545,-1.348,-1.348,-1.3577,-1.3728,-1.3879,-1.4029,-1.4159,-1.4159,-1.389,-1.3592,-1.3382,-1.2963,-1.246,-1.2084,-1.1954,-1.1837,-1.1072,-1.0671,-1.0331,-0.964,-0.9268,-0.8941,-0.8568,-0.8301,-0.7981,-0.7338,-0.6963,-0.656,-0.5818,-0.556,-0.5435,-0.5275,-0.4905,-0.4561,-0.4237,-0.3636,-0.2934,-0.2185,-0.1739,-0.1234,-0.0449,-0.0336,-0.0224,0.0,0.0,0.0,0.0,0.0,-0.0113,-0.0396,-0.0787,-0.1234,-0.1738,-0.2242,-0.2861,-0.3589,-0.4313,-0.4704,-0.4931,-0.527,-0.5382,-0.5382,-0.5382,-0.5382,-0.5382,-0.5043,-0.4675,-0.4244,-0.3746,-0.3062,-0.2277,-0.192,-0.1499,-0.1009,-1.7579,-1.7117,-1.662,-1.6326,-1.6273,-1.6179,-1.5885,-1.5784,-1.5784,-1.5784,-1.5784,-1.5784,-1.5784,-1.5784,-1.5784,-1.5784,-1.6112,-1.6273,-1.6273,-1.6321,-1.6139,-1.5798,-1.5784,-1.5689,-1.5499,-1.5499,-1.5499,-1.5499,-1.5499,-1.5594,-1.5784,-1.5784,-1.5547,-1.5096,-1.5022,-1.4592,-1.3895,-1.4138,-1.3956,-1.3502,-1.3739,-1.3685,-1.3491,-1.3491,-1.3782,-1.4202,-1.4202,-1.4503,-1.4891,-1.4891,-1.4561,-1.4093,-1.4093,-1.3322,-1.2273,-1.1728,-1.1345,-1.0962,-1.0421,-1.0312,-1.0202,-0.9871,-0.9596,-0.9265,-0.865,-0.8484,-0.8263,-0.7376,-0.6932,-0.6492,-0.5935,-0.5601,-0.5382,-0.5382,-0.4875,-0.4369,-0.4036,-0.3253,-0.2468,-0.1851,-0.129,-0.0785,-0.0449,-0.0168,0.0,0.0,0.0,0.0,0.0,0.0,-0.0115,-0.0402,-0.0962,-0.1738,-0.2688,-0.2968,-0.325,-0.3645,-0.4484,-0.4931,-0.4931,-0.527,-0.5382,-0.5382,-0.5382,-0.5382,-0.5382,-0.5043,-0.454,-0.398,-0.3698,-0.2858,-0.1794,-0.1794,-0.1177,-0.0393,-1.74,-1.7177,-1.6978,-1.6633,-1.658,-1.654,-1.646,-1.6446,-1.6446,-1.6446,-1.6446,-1.6446,-1.6446,-1.6446,-1.6446,-1.6446,-1.6526,-1.658,-1.658,-1.638,-1.6184,-1.5897,-1.57,-1.5547,-1.5499,-1.5309,-1.5226,-1.5226,-1.5404,-1.5547,-1.5594,-1.5594,-1.5412,-1.5083,-1.4847,-1.4519,-1.416,-1.4219,-1.4094,-1.3997,-1.4234,-1.4277,-1.4234,-1.4406,-1.4557,-1.4697,-1.4869,-1.4963,-1.5081,-1.5081,-1.474,-1.4053,-1.3133,-1.2505,-1.1946,-1.1181,-1.0907,-1.0688,-1.0091,-0.9816,-0.9651,-0.9541,-0.9437,-0.9265,-0.865,-0.8152,-0.766,-0.6993,-0.6432,-0.5935,-0.5601,-0.5437,-0.5326,-0.5098,-0.476,-0.4313,-0.3813,-0.2917,-0.2132,-0.1514,-0.0897,-0.0449,-0.0168,-0.0056,0.0,0.0,0.0,0.0,0.0,-0.0174,-0.0402,-0.0747,-0.1358,-0.2074,-0.2968,-0.3474,-0.398,-0.454,-0.4987,-0.527,-0.527,-0.5382,-0.5382,-0.5382,-0.5382,-0.5382,-0.5382,-0.4819,-0.4339,-0.3856,-0.2973,-0.2133,-0.1409,-0.0988,-0.0496,-0.0111,-1.7568,-1.7408,-1.7313,-1.7088,-1.6954,-1.6847,-1.6727,-1.67,-1.67,-1.67,-1.67,-1.67,-1.67,-1.67,-1.67,-1.67,-1.6807,-1.6877,-1.6894,-1.6629,-1.6219,-1.5742,-1.5379,-1.5094,-1.4994,-1.4849,-1.4814,-1.4912,-1.5303,-1.5534,-1.5645,-1.5791,-1.5539,-1.5071,-1.4871,-1.4568,-1.4267,-1.4299,-1.4331,-1.4352,-1.4579,-1.4676,-1.4686,-1.4826,-1.4945,-1.5052,-1.5135,-1.5253,-1.5386,-1.5386,-1.485,-1.3931,-1.2488,-1.1936,-1.1673,-1.0806,-1.0476,-1.0257,-0.9761,-0.943,-0.9217,-0.9217,-0.9217,-0.9044,-0.8429,-0.7937,-0.7382,-0.6659,-0.6158,-0.5712,-0.5437,-0.5382,-0.5326,-0.5154,-0.476,-0.4313,-0.3698,-0.2917,-0.2132,-0.1402,-0.0897,-0.0505,-0.0168,-0.0056,0.0,0.0,0.0,-0.0058,-0.0177,-0.029,-0.0692,-0.1277,-0.1771,-0.25,-0.3543,-0.4032,-0.4455,-0.4931,-0.5214,-0.5382,-0.5382,-0.5382,-0.5382,-0.5382,-0.5382,-0.5326,-0.5154,-0.454,-0.4009,-0.3476,-0.2431,-0.1646,-0.109,-0.061,-0.0223,0.0,-1.7942,-1.7836,-1.7662,-1.7662,-1.7501,-1.7219,-1.6874,-1.682,-1.682,-1.678,-1.678,-1.673,-1.673,-1.673,-1.668,-1.668,-1.6983,-1.7146,-1.7107,-1.6795,-1.6266,-1.5442,-1.4796,-1.4336,-1.4029,-1.4155,-1.431,-1.448,-1.5139,-1.5544,-1.5809,-1.6061,-1.5771,-1.5062,-1.4953,-1.4653,-1.4173,-1.4385,-1.448,-1.4502,-1.4815,-1.4902,-1.4891,-1.4912,-1.5042,-1.5156,-1.5188,-1.5328,-1.551,-1.5451,-1.4802,-1.3685,-1.2156,-1.1654,-1.1481,-1.0586,-1.0154,-0.9839,-0.9493,-0.9154,-0.894,-0.8885,-0.8885,-0.8712,-0.8159,-0.7771,-0.7276,-0.6497,-0.5991,-0.5712,-0.5437,-0.5437,-0.5437,-0.5382,-0.4931,-0.4369,-0.3698,-0.3085,-0.2412,-0.1458,-0.1121,-0.0785,-0.0449,-0.0168,0.0,0.0,0.0,-0.0116,-0.0412,-0.0464,-0.0927,-0.1943,-0.2263,-0.301,-0.4344,-0.4511,-0.4729,-0.4942,-0.527,-0.5382,-0.5382,-0.5382,-0.5382,-0.5382,-0.5382,-0.5154,-0.4875,-0.4204,-0.3589,-0.297,-0.2074,-0.1404,-0.0788,-0.0457,-0.023,0.0,-1.7982,-1.8183,-1.829,-1.829,-1.8237,-1.8103,-1.7742,-1.7702,-1.7609,-1.7422,-1.7238,-1.7095,-1.7095,-1.6873,-1.6703,-1.6703,-1.6767,-1.6725,-1.6537,-1.6233,-1.5683,-1.4821,-1.4059,-1.341,-1.2872,-1.3326,-1.362,-1.3674,-1.4429,-1.4937,-1.5253,-1.5303,-1.5151,-1.4757,-1.4498,-1.4193,-1.3899,-1.4331,-1.448,-1.4512,-1.4941,-1.5052,-1.4902,-1.5095,-1.5085,-1.4931,-1.4893,-1.4929,-1.4913,-1.4435,-1.3973,-1.3421,-1.2432,-1.2135,-1.1942,-1.0902,-1.0683,-1.054,-0.9632,-0.9327,-0.921,-0.894,-0.8768,-0.8484,-0.8097,-0.7438,-0.6771,-0.6386,-0.5884,-0.5493,-0.5437,-0.5545,-0.5545,-0.5098,-0.5094,-0.4815,-0.3754,-0.325,-0.269,-0.1794,-0.1402,-0.1009,-0.0449,-0.0168,0.0,0.0,0.0,-0.0116,-0.0412,-0.087,-0.1448,-0.2294,-0.3014,-0.3741,-0.4501,-0.4832,-0.51,-0.5366,-0.5414,-0.5382,-0.5382,-0.5382,-0.5382,-0.5382,-0.5098,-0.4987,-0.4819,-0.4036,-0.3306,-0.2688,-0.1794,-0.1018,-0.0458,-0.0172,-0.0058,0.0,-1.8382,-1.8477,-1.8531,-1.8677,-1.8584,-1.8437,-1.829,-1.8089,-1.7875,-1.7662,-1.7357,-1.7067,-1.6802,-1.6756,-1.6667,-1.6641,-1.6654,-1.6478,-1.6041,-1.5803,-1.5175,-1.404,-1.3435,-1.275,-1.1912,-1.2327,-1.275,-1.3182,-1.4013,-1.4589,-1.4862,-1.524,-1.5194,-1.4847,-1.4764,-1.4603,-1.4352,-1.4663,-1.4805,-1.4729,-1.5049,-1.5106,-1.4902,-1.4849,-1.4817,-1.4675,-1.4343,-1.4097,-1.3904,-1.3508,-1.3288,-1.3049,-1.2506,-1.233,-1.222,-1.1649,-1.1329,-1.0996,-1.0174,-0.9761,-0.9356,-0.8843,-0.838,-0.8048,-0.7826,-0.7215,-0.6604,-0.6158,-0.5717,-0.5437,-0.5545,-0.5824,-0.5931,-0.5601,-0.5596,-0.5262,-0.4369,-0.381,-0.325,-0.2522,-0.2018,-0.1402,-0.0505,-0.028,-0.0169,-0.0172,-0.0171,-0.0401,-0.0814,-0.1147,-0.1774,-0.2732,-0.3404,-0.4095,-0.4882,-0.5016,-0.5226,-0.5508,-0.5422,-0.5382,-0.5382,-0.5382,-0.5382,-0.5382,-0.5043,-0.4763,-0.4428,-0.3642,-0.2914,-0.2188,-0.1414,-0.0799,-0.0346,-0.0117,0.0,0.0,-1.8878,-1.8771,-1.8718,-1.8958,-1.8798,-1.8624,-1.8571,-1.8302,-1.7939,-1.7562,-1.7234,-1.6825,-1.6291,-1.6417,-1.6508,-1.6446,-1.647,-1.6177,-1.5603,-1.5355,-1.4669,-1.3327,-1.2934,-1.2301,-1.1324,-1.1371,-1.1854,-1.2663,-1.3576,-1.4137,-1.4505,-1.5261,-1.5386,-1.5055,-1.5199,-1.5061,-1.4845,-1.4981,-1.4959,-1.4731,-1.4934,-1.487,-1.4657,-1.4364,-1.4287,-1.4143,-1.3571,-1.3212,-1.2918,-1.2646,-1.2637,-1.2655,-1.2448,-1.2465,-1.2521,-1.2367,-1.1957,-1.1495,-1.0852,-1.0168,-0.9455,-0.8772,-0.806,-0.7493,-0.7438,-0.6993,-0.6437,-0.5991,-0.5656,-0.5545,-0.588,-0.6209,-0.6432,-0.6386,-0.6158,-0.5712,-0.5094,-0.4484,-0.3924,-0.325,-0.2578,-0.1739,-0.0729,-0.0561,-0.0508,-0.0457,-0.0509,-0.0733,-0.1259,-0.1412,-0.2034,-0.3272,-0.3679,-0.4281,-0.5214,-0.5146,-0.5218,-0.5484,-0.5414,-0.5382,-0.5382,-0.5382,-0.5382,-0.5382,-0.5043,-0.4596,-0.4036,-0.3362,-0.2638,-0.1805,-0.1144,-0.0692,-0.0407,-0.012,0.0,0.0,-1.8918,-1.9092,-1.9265,-1.9305,-1.9279,-1.9158,-1.8905,-1.8529,-1.8095,-1.7329,-1.6792,-1.629,-1.5908,-1.5867,-1.5817,-1.5795,-1.5795,-1.5569,-1.4993,-1.4678,-1.4081,-1.3088,-1.252,-1.2056,-1.1631,-1.1077,-1.1166,-1.1791,-1.2663,-1.3461,-1.4151,-1.4514,-1.4866,-1.5232,-1.5039,-1.4778,-1.4448,-1.4582,-1.4401,-1.4106,-1.4137,-1.4061,-1.3856,-1.3512,-1.3291,-1.3043,-1.2627,-1.2409,-1.2232,-1.1755,-1.1919,-1.2386,-1.2393,-1.2724,-1.3005,-1.2521,-1.2404,-1.2236,-1.123,-1.028,-0.9539,-0.9187,-0.8183,-0.7154,-0.6882,-0.6381,-0.5991,-0.6163,-0.5991,-0.5935,-0.6492,-0.6877,-0.6988,-0.6715,-0.6604,-0.6265,-0.5429,-0.5039,-0.4484,-0.3642,-0.2522,-0.1795,-0.1626,-0.1121,-0.0842,-0.0844,-0.0842,-0.0954,-0.1294,-0.1797,-0.2543,-0.3618,-0.4192,-0.4772,-0.5471,-0.5455,-0.5415,-0.5398,-0.5386,-0.5382,-0.5382,-0.5382,-0.5382,-0.5382,-0.5043,-0.4707,-0.4369,-0.3474,-0.2769,-0.2122,-0.1264,-0.0702,-0.0421,-0.0122,0.0,0.0,-1.9172,-1.9279,-1.943,-1.943,-1.943,-1.9261,-1.8942,-1.8612,-1.8133,-1.7272,-1.6765,-1.6236,-1.5568,-1.5456,-1.5495,-1.5627,-1.5453,-1.5162,-1.4707,-1.4167,-1.3519,-1.2776,-1.2205,-1.1742,-1.1454,-1.0936,-1.0914,-1.1383,-1.2006,-1.2718,-1.3583,-1.405,-1.4519,-1.5027,-1.4683,-1.4395,-1.4097,-1.4204,-1.3911,-1.3341,-1.3509,-1.3325,-1.2963,-1.2633,-1.2357,-1.2073,-1.1393,-1.1137,-1.1139,-1.1231,-1.164,-1.2238,-1.2747,-1.3158,-1.3467,-1.3377,-1.3128,-1.2721,-1.1842,-1.0817,-0.9831,-0.9121,-0.7975,-0.696,-0.673,-0.6214,-0.5824,-0.5991,-0.6158,-0.6432,-0.6877,-0.7321,-0.7549,-0.7271,-0.7104,-0.671,-0.5991,-0.5489,-0.4819,-0.3924,-0.2748,-0.1964,-0.1795,-0.157,-0.1402,-0.1402,-0.1402,-0.1514,-0.1795,-0.2076,-0.2644,-0.3627,-0.4249,-0.4814,-0.5439,-0.5439,-0.5418,-0.5382,-0.5382,-0.5382,-0.5382,-0.5382,-0.5382,-0.5382,-0.5043,-0.476,-0.448,-0.3866,-0.3113,-0.2243,-0.1857,-0.1189,-0.0489,-0.0123,0.0,0.0]},{"header":{"parameterUnit":"m.s-1","parameterCategory":1,"la1":30.6,"la2":28.766,"lo1":-90.7593,"lo2":-88.6598,"dx":0.0162,"dy":0.0183,"nx":116,"ny":114,"refTime":"2022-12-06T18:00:00:Z","depth":0,"parameterNumber":3,"parameterNumberName":"V-component_of_WINDS"},"data":[0.0,0.0,0.0,0.0,0.0,0.0,0.0,0.0,0.0,0.0,0.0,0.0,0.0,0.0,0.0,0.0,0.0,0.0,0.0,0.0,0.0,0.0,0.0,0.0,0.0,0.0,0.0,0.0,0.0,0.0,0.0,0.0,0.0,0.0,0.0,0.0,0.0,0.0,0.0,0.0,0.0,0.0,0.0,0.0,0.0,0.0,0.0,0.0,0.0,0.0,0.0,0.0,0.0,0.0,0.0,0.0,0.0,0.0,0.0,0.0,0.0,0.0,0.0,0.0,0.0,0.0,0.0,0.0,0.0,0.0,0.0,0.0,0.0,0.0,0.0,0.0,0.0,0.0,0.0,0.0,0.0,0.0,0.0,0.0,0.0,0.0,0.0,0.0,0.0,0.0,0.0,0.0,0.0,0.0,0.0,0.0,0.0,0.0,0.0,0.0,0.0,0.0,0.0,0.0,0.0,0.0,0.0,0.0,0.0,0.0,0.0,0.0,0.0,0.0,0.0,0.0,0.0,0.0,0.0,0.0,0.0,0.0,0.0,0.0,0.0,0.0,0.0,0.0,0.0,0.0,0.0,0.0,0.0,0.0,0.0,0.0,0.0,0.0,0.0,0.0,0.0,0.0,0.0,0.0,0.0,0.0,0.0,0.0,0.0,0.0,0.0,0.0,0.0,0.0,0.0,0.0,0.0,0.0,0.0,0.0,0.0,0.0,0.0,0.0,0.0,0.0,0.0,0.0,0.0,0.0,0.0,0.0,0.0,0.0,0.0,0.0,0.0,0.0,0.0,0.0,0.0,0.0,0.0,0.0,0.0,0.0,0.0,0.0,0.0,0.0,0.0,0.0,0.0,0.0,0.0,0.0,0.0,0.0,0.0,0.0,0.0,0.0,0.0,0.0,0.0,0.0,0.0,0.0,0.0,0.0,0.0,0.0,0.0,0.0,0.0,0.0,0.0,0.0,0.0,0.0,0.0,0.0,0.0,0.0,0.0,0.0,0.0,0.0,0.0,0.0,0.0,0.0,0.0,0.0,0.0,0.0,0.0,0.0,0.0,0.0,0.0,0.0,0.0,0.0,0.0,0.0,0.0,0.0,0.0,0.0,0.0,0.0,0.0,0.0,0.0,0.0,0.0,0.0,0.0,0.0,0.0,0.0,0.0,0.0,0.0,0.0,0.0,0.0,0.0,0.0,0.0,0.0,0.0,0.0,0.0,0.0,0.0,0.0,0.0,0.0,0.0,0.0,0.0,0.0,0.0,0.0,0.0,0.0,0.0,0.0,0.0,0.0,0.0,0.0,0.0,0.0,0.0,0.0,0.0,0.0,0.0,0.0,0.0,0.0,0.0,0.0,0.0,0.0,0.0,0.0,0.0,0.0,0.0,0.0,0.0,0.0,0.0,0.0,0.0,0.0,0.0,0.0,0.0,0.0,0.0,0.0,0.0,0.0,0.0,0.0,0.0,0.0,0.0,0.0,0.0,0.0,0.0,0.0,0.0,0.0,0.0,0.0,0.0,0.0,0.0,0.0,0.0,0.0,0.0,0.0,0.0,0.0,0.0,0.0,0.0,0.0,0.0,0.0,0.0,0.0,0.0,0.0,0.0,0.0,0.0,0.0,0.0,0.0,0.0,0.0,0.0,0.0,0.0,0.0,0.0,0.0,0.0,0.0,0.0,0.0,0.0,0.0,0.0,0.0,0.0,0.0,0.0,0.0,0.0,0.0,0.0,0.0,0.0,0.0,0.0,0.0,0.0,0.0,0.0,0.0,0.0,0.0,0.0,0.0,0.0,0.0,0.0,0.0,0.0,0.0,0.0,0.0,0.0,0.0,0.0,0.0,0.0,0.0,0.0,0.0,0.0,0.0,0.0,0.0,0.0,0.0,0.0,0.0,0.0,0.0,0.0,0.0,0.0,0.0,0.0,0.0,0.0,0.0,0.0,0.0,0.0,0.0,0.0,0.0,0.0,0.0,0.0,0.0,0.0,0.0,0.0,0.0,0.0,0.0,0.0,0.0,0.0,0.0,0.0,0.0,0.0,0.0,0.0,0.0,0.0,0.0,0.0,0.0,0.0,0.0,0.0,0.0,0.0,0.0,0.0,0.0,0.0,0.0,0.0,0.0,0.0,0.0,0.0,0.0,0.0,0.0,0.0,0.0,0.0,0.0,0.0,0.0,0.0,0.0,0.0,0.0,0.0,0.0,0.0,0.0,0.0,0.0,0.0,0.0,0.0,0.0,0.0,0.0,0.0,0.0,0.0,0.0,0.0,0.0,0.0,0.0,0.0,0.0,0.0,0.0,0.0,0.0,0.0,0.0,0.0,0.0,0.0,0.0,0.0,0.0,0.0,0.0,0.0,0.0,0.0,0.0,0.0,0.0,0.0,0.0,0.0,0.0,0.0,0.0,0.0,0.0,0.0,0.0,0.0,0.0,0.0,0.0,0.0,0.0,0.0,0.0,0.0,0.0,0.0,0.0,0.0,0.0,0.0,0.0,0.0,0.0,0.0,0.0,0.0,0.0,0.0,0.0,0.0,0.0,0.0,0.0,0.0,0.0,0.0,0.0,0.0,0.0,0.0,0.0,0.0,0.0,0.0,0.0,0.0,0.0,0.0,0.0,0.0,0.0,0.0,0.0,0.0,0.0,0.0,0.0,0.0,0.0,0.0,0.0,0.0,0.0,0.0,0.0,0.0,0.0,0.0,0.0,0.0,0.0,0.0,0.0,0.0,0.0,0.0,0.0,0.0,0.0,0.0,0.0,0.0,0.0,0.0,0.0,0.0,0.0,0.0,0.0,0.0,0.0,0.0,0.0,0.0,0.0,0.0,0.0,0.0,0.0,0.0,0.0,0.0,0.0,0.0,0.0,0.0,0.0,0.0,0.0,0.0,0.0,0.0,0.0,0.0,0.0,0.0,0.0,0.0,0.0,0.0,0.0,0.0,0.0,0.0,0.0,0.0,0.0,0.0,0.0,0.0,0.0,0.0,0.0,0.0,0.0,0.0,0.0,0.0,0.0,0.0,0.0,0.0,0.0,0.0,0.0,0.0,0.0,0.0,0.0,0.0,0.0,0.0,0.0,0.0,0.0,0.0,0.0,0.0,0.0,0.0,0.0,0.0,0.0,0.0,0.0,0.0,0.0,0.0,0.0,0.0,0.0,0.0,0.0,0.0,0.0,0.0,0.0,0.0,0.0,0.0,0.0,0.0,0.0,0.0,0.0,0.0,0.0,0.0,0.0,0.0,0.0,0.0,0.0,0.0,0.0,0.0,0.0,0.0,0.0,0.0,0.0,0.0,0.0,0.0,0.0,0.0,0.0,0.0,0.0,0.0,0.0,0.0,0.0,0.0,0.0,0.0,0.0,0.0,0.0,0.0,0.0,0.0,0.0,0.0,0.0,0.0,0.0,0.0,0.0,0.0,0.0,0.0,0.0,0.0,0.0,0.0,0.0,0.0,0.0,0.0,0.0,0.0,0.0,0.0,0.0,0.0,0.0,0.0,0.0,0.0,0.0,0.0,0.0,0.0,0.0,0.0,0.0,0.0,0.0,0.0,0.0,0.0,0.0,0.0,0.0,0.0,0.0,0.0,0.0,0.0,0.0,0.0,0.0,0.0,0.0,0.0,0.0,0.0,0.0,0.0,0.0,0.0,0.0,0.0,0.0,0.0,0.0,0.0,0.0,0.0,0.0,0.0,0.0,0.0,0.0,0.0,0.0,0.0,0.0,0.0,0.0,0.0,0.0,0.0,0.0,0.0,0.0,0.0,0.0,0.0,0.0,0.0,0.0,0.0,0.0,0.0,0.0,0.0,0.0,0.0,0.0,0.0,0.0,0.0,0.0,0.0,0.0,0.0,0.0,0.0,0.0,0.0,0.0,0.0,0.0,0.0,0.0,0.0,0.0,0.0,0.0,0.0,0.0,0.0,0.0,0.0,0.0,0.0,0.0,0.0,0.0,0.0,0.0,0.0,0.0,0.0,0.0,0.0,0.0,0.0,0.0,0.0,0.0,0.0,0.0,0.0,0.0,0.0,0.0,0.0,0.0,0.0,0.0,0.0,0.0,0.0,0.0,0.0,0.0,0.0,0.0,0.0,0.0,0.0,0.0,0.0,0.0,0.0,0.0,0.0,0.0,0.0,0.0,0.0,0.0,0.0,0.0,0.0,0.0,0.0,0.0,0.0,0.0,0.0,0.0,0.0,0.0,0.0,0.0,0.0,0.0,0.0,0.0,0.0,0.0,0.0,0.0,0.0,0.0,0.0,0.0,0.0,0.0,0.0,0.0,0.0,0.0,0.0,0.0,0.0,0.0,0.0,0.0,0.0,0.0,0.0,0.0,0.0,0.0,0.0,0.0,0.0,0.0,0.0,0.0,0.0,0.0,0.0,0.0,0.0,0.0,0.0,0.0,0.0,0.0,0.0,0.0,0.0,0.0,0.0,0.0,0.0,0.0,0.0,0.0,0.0,0.0,0.0,0.0,0.0,0.0,0.0,0.0,0.0,0.0,0.0,0.0,0.0,0.0,0.0,0.0,0.0,0.0,0.0,0.0,0.0,0.0,0.0,0.0,0.0,0.0,0.0,0.0,0.0,0.0,0.0,0.0,0.0,0.0,0.0,0.0,0.0,0.0,0.0,0.0,0.0,0.0,0.0,0.0,0.0,0.0,0.0,0.0,0.0,0.0,0.0,0.0,0.0,0.0,0.0,0.0,0.0,0.0,0.0,0.0,0.0,0.0,0.0,0.0,0.0,0.0,0.0,0.0,0.0,0.0,0.0,0.0,0.0,0.0,0.0,0.0,0.0,0.0,0.0,0.0,0.0,0.0,0.0,0.0,0.0,0.0,0.0,0.0,0.0,0.0,0.0,0.0,0.0,0.0,0.0,0.0,0.0,0.0,0.0,0.0,0.0,0.0,0.0,0.0,0.0,0.0,0.0,0.0,0.0,0.0,0.0,0.0,0.0,0.0,0.0,0.0,0.0,0.0,0.0,0.0,0.0,0.0,0.0,0.0,0.0,0.0,0.0,0.0,0.0,0.0,0.0,0.0,0.0,0.0,0.0,0.0,0.0,0.0,0.0,0.0,0.0,0.0,0.0,0.0,0.0,0.0,0.0,0.0,0.0,0.0,0.0,0.0,0.0,0.0,0.0,0.0,0.0,0.0,0.0,0.0,0.0,0.0,0.0,0.0,0.0,0.0,0.0,0.0,0.0,0.0,0.0,0.0,0.0,0.0,0.0,0.0,0.0,0.0,0.0,0.0,0.0,0.0,0.0,0.0,0.0,0.0,0.0,0.0,0.0,0.0,0.0,0.0,0.0,0.0,0.0,0.0,0.0,0.0,0.0,0.0,0.0,0.0,0.0,0.0,0.0,0.0,0.0,0.0,0.0,0.0,0.0,0.0,0.0,0.0,0.0,0.0,0.0,0.0,0.0,0.0,0.0,0.0,0.0,0.0,0.0,0.0,0.0,0.0,0.0,0.0,0.0,0.0,0.0,0.0,0.0,0.0,0.0,0.0,0.0,0.0,0.0,0.0,0.0,0.0,0.0,0.0,0.0,0.0,0.0,0.0,0.0,0.0,0.0,0.0,0.0,0.0,0.0,0.0,0.0,0.0,0.0,0.0,0.0,0.0,0.0,0.0,0.0,0.0,0.0,0.0,0.0,0.0,0.0,0.0,0.0,0.0,0.0,0.0,0.0,0.0,0.0,0.0,0.0,0.0,0.0,0.0,0.0,0.0,0.0,0.0,0.0,0.0,0.0,0.0,0.0,0.0,0.0,0.0,0.0,0.0,0.0,0.0,0.0,0.0,0.0,0.0,0.0,0.0,0.0,0.0,0.0,0.0,0.0,0.0,0.0,0.0,0.0,0.0,0.0,0.0,0.0,0.0,0.0,0.0,0.0,0.0,0.0,0.0,0.0,0.0,0.0,0.0,0.0,0.0,0.0,0.0,0.0,0.0,0.0,0.0,0.0,0.0,0.0,0.0,0.0,0.0,0.0,0.0,0.0,0.0,0.0,0.0,0.0,0.0,0.0,0.0,0.0,0.0,0.0,0.0,0.0,0.0,0.0,0.0,0.0,0.0,0.0,0.0,0.0,0.0,0.0,0.0,0.5269,0.4777,0.0,0.0,0.0,0.0,0.0,0.0,0.0,0.0,0.0,0.0,0.0,0.0,0.0,0.0,0.0,0.0,0.0,0.0,0.0,0.0,0.0,0.0,0.0,0.7705,0.7705,0.7705,0.7729,0.0,0.0,0.0,0.0,0.0,0.0,0.0,0.0,0.0,0.7084,0.6789,0.7783,0.8606,0.9261,0.903,0.843,0.7537,0.0,0.0,0.0,0.0,0.0,0.0,0.0,0.0,0.0,0.0,0.0,0.0,0.0,0.0,0.0,0.0,0.0,0.0,0.0,0.0,0.0,0.0,0.0,0.0,0.0,0.0,0.0,0.0,0.0,0.0,0.0,0.0,0.0,0.0,0.0,0.0,0.0,0.0,0.0,0.0,0.0,0.0,0.0,0.0,0.0,0.0,0.0,0.0,0.0,0.0,0.0,0.0,0.0,0.0,0.0,0.0,0.0,0.0,0.0,0.0,0.0,0.0,0.0,0.0,0.0,0.0,0.0,0.0,0.0,0.0,0.6917,0.6146,0.0,0.0,0.0,0.0,0.0,0.0,0.0,0.0,0.0,0.0,0.0,0.0,0.0,0.0,0.0,0.0,0.0,0.0,0.0,0.0,0.0,0.7725,0.7817,0.788,0.7958,0.8016,0.8036,0.8047,0.8108,0.7985,0.0,0.0,0.0,0.0,0.7548,0.8068,0.8178,0.7838,0.9392,1.0891,1.2278,1.2696,1.1881,1.0071,0.925,0.0,0.0,0.0,0.0,0.0,0.0,0.0,0.0,0.0,0.0,0.0,0.0,0.0,0.0,0.0,0.0,0.0,0.0,0.0,0.0,0.0,0.0,0.0,0.0,0.0,0.0,0.0,0.0,0.0,0.0,0.0,0.0,0.0,0.0,0.0,0.0,0.0,0.0,0.0,0.0,0.0,0.0,0.0,0.0,0.0,0.0,0.0,0.0,0.0,0.0,0.0,0.0,0.0,0.0,0.0,0.0,0.0,0.0,0.0,0.0,0.0,0.0,0.0,1.0254,1.0185,0.9948,1.0176,1.0294,1.0277,0.8968,0.8051,0.7461,0.7198,0.0,0.0,0.0,0.0,0.0,0.0,0.0,0.0,0.0,0.0,0.0,0.0,0.0,0.0,0.0,0.0,0.0,0.0,0.0,0.7856,0.8277,0.8613,0.8967,0.932,0.934,0.9357,0.9357,0.8708,0.0,0.0,0.0,0.8517,0.8931,0.9473,0.9963,1.0415,1.2298,1.3836,1.4981,1.5121,1.5336,1.5537,1.2805,1.1122,1.0308,0.0,0.0,0.0,0.0,0.0,0.0,0.0,0.0,0.0,0.0,0.0,0.0,0.0,0.0,0.0,0.0,0.0,0.0,0.0,0.0,0.0,0.0,0.0,0.0,0.0,0.0,0.0,0.0,0.0,0.0,0.0,0.0,0.0,0.0,0.0,0.0,0.0,0.0,0.0,0.0,0.0,1.034,1.0242,0.0,0.0,0.0,0.0,0.0,0.0,0.0,0.0,0.0,0.0,0.0,0.0,0.0,1.2756,1.2757,1.2839,1.2734,1.2466,1.2001,1.1621,1.1332,1.1531,1.1563,1.1424,1.1705,0.0,0.9394,0.8915,0.0,0.0,0.0,0.0,0.0,0.0,0.0,0.0,0.0,0.0,0.0,0.0,0.0,0.0,0.0,0.0,0.0,0.0,0.0,0.0,0.0,0.9316,0.9883,1.0293,1.0332,1.0254,1.0057,0.9503,0.0,0.0,0.9011,0.9178,0.9742,1.0547,1.1777,1.3505,1.4584,1.5759,1.69,1.73,1.7662,1.7888,1.6729,1.5085,1.3166,1.2434,0.0,0.0,0.0,0.0,0.0,0.0,0.0,0.0,0.0,0.0,0.0,0.0,0.0,0.0,0.0,0.0,0.0,0.0,0.0,0.0,0.0,0.0,0.0,0.0,0.0,0.0,0.0,0.0,0.0,0.0,0.0,0.0,0.0,0.0,0.0,0.0,0.0,0.0,0.0,1.1286,1.1934,1.1973,1.1847,1.1638,0.0,0.0,0.0,0.0,0.0,0.0,0.0,0.0,0.0,1.3984,1.4633,1.5064,1.5211,1.4788,1.4516,1.4395,1.3845,1.3449,1.3217,1.3333,1.3304,1.3246,1.3507,1.3085,1.2124,1.1101,1.0116,0.9183,0.0,0.0,0.0,0.0,0.8285,0.8375,0.0,0.0,0.0,0.0,0.0,0.0,0.0,0.0,0.0,0.0,0.0,0.0,0.9326,1.0196,1.0993,1.1613,1.1597,1.1489,1.126,1.0547,1.0046,0.9833,0.9727,1.0021,1.0724,1.2152,1.3914,1.5971,1.6783,1.7673,1.8553,1.9382,1.9831,1.989,1.9995,1.8545,1.5962,1.503,1.3769,1.232,0.0,0.0,0.0,0.0,0.0,0.0,0.0,0.0,0.0,0.0,0.0,0.0,0.0,0.0,0.0,0.0,0.0,0.0,0.0,0.0,0.0,0.0,0.0,0.0,0.0,0.0,0.0,0.0,0.0,0.0,0.0,0.0,0.0,0.0,0.0,0.0,0.0,1.304,1.3667,1.3772,1.3577,1.3443,0.0,0.0,0.0,0.0,0.0,0.0,1.5012,1.5984,1.6571,1.6658,1.7093,1.7356,1.7467,1.6655,1.6208,1.613,1.5397,1.4971,1.4776,1.4795,1.4765,1.4736,1.4765,1.4655,1.4327,1.3023,1.1947,1.1057,1.0835,1.0381,0.9941,1.0445,1.0676,1.0789,0.0,0.0,0.0,0.0,0.0,0.0,0.0,0.0,0.0,0.0,0.0,0.9202,1.0296,1.1334,1.2402,1.3657,1.3536,1.3429,1.3536,1.1955,1.1085,1.1186,1.088,1.1181,1.2151,1.4796,1.6493,1.7213,1.9017,1.9922,2.002,2.133,2.2162,2.2489,2.2004,2.0558,1.8469,1.7601,1.6549,1.5338,1.369,0.0,0.0,0.0,0.0,0.0,0.0,0.0,0.0,0.0,0.0,0.0,0.0,0.0,0.0,0.0,0.0,0.0,0.0,0.0,0.0,0.0,0.0,0.0,0.0,0.0,0.0,0.0,0.0,0.0,0.0,0.0,0.0,0.0,0.0,0.0,0.0,0.0,0.0,1.5398,1.5596,0.0,0.0,0.0,0.0,1.5979,1.652,1.706,1.7578,1.8581,1.9226,1.9483,2.0077,2.0121,1.955,1.8759,1.8096,1.7575,1.6532,1.5874,1.5545,1.5555,1.5468,1.5381,1.5546,1.5526,1.5264,1.4213,1.3477,1.2952,1.2812,1.2551,1.2288,1.2739,1.2877,1.2816,0.0,0.0,0.0,0.8571,0.8516,0.8418,0.8319,0.8076,0.8059,0.8507,0.9108,0.994,1.109,1.2681,1.3946,1.4667,1.4844,1.4822,1.468,1.3431,1.2617,1.2461,1.2552,1.3431,1.5225,1.6484,1.7836,1.9289,1.9844,2.05,2.1193,2.1957,2.2423,2.2639,2.2926,2.2495,2.1517,2.0027,1.8808,1.7743,1.6065,1.4312,0.0,0.0,0.0,0.0,0.0,0.0,0.0,0.0,0.0,0.0,0.0,0.0,0.0,0.0,0.0,0.0,0.0,0.0,0.0,0.0,0.0,0.0,0.0,0.0,0.0,0.0,0.0,0.0,0.0,0.0,0.0,0.0,0.0,0.0,0.0,0.0,0.0,1.723,1.7395,0.0,1.7454,1.7451,1.7679,1.8215,1.8445,1.8952,1.9864,2.049,2.0921,2.1043,2.1392,2.1112,2.0166,1.9342,1.8591,1.7871,1.7055,1.656,1.6361,1.6381,1.6296,1.6161,1.6267,1.6239,1.6161,1.5863,1.5187,1.4324,1.4424,1.4255,1.4046,1.4506,1.4613,1.4619,0.0,0.0,0.0,0.8578,0.8481,0.8368,0.8276,0.8111,0.8207,0.8754,0.9618,1.065,1.1963,1.363,1.4974,1.5701,1.585,1.5849,1.5721,1.4764,1.4086,1.3809,1.4485,1.561,1.7261,1.8014,1.9059,2.0399,2.0599,2.1137,2.1998,2.2469,2.2818,2.304,2.3532,2.3775,2.3733,2.2516,2.1274,1.9915,1.8217,1.6582,1.499,0.0,0.0,0.0,0.0,0.0,0.0,0.0,0.0,0.0,0.0,0.0,0.0,0.0,0.0,0.0,0.0,0.0,0.0,0.0,0.0,0.0,0.0,0.0,0.0,0.0,0.0,0.0,0.0,0.0,0.0,0.0,0.0,0.0,0.0,1.7087,1.7958,1.8716,1.8862,1.893,1.9115,1.9139,1.9373,1.9898,1.9926,2.0446,2.1615,2.1895,2.2056,2.2189,2.2179,2.162,2.0461,1.9631,1.8876,1.8187,1.7588,1.7234,1.7088,1.706,1.7004,1.692,1.6864,1.6807,1.6807,1.6976,1.6588,1.5905,1.5932,1.5848,1.5705,1.6048,1.6119,1.6106,0.0,0.0,0.806,0.8513,0.8502,0.8354,0.824,0.8309,0.857,0.9078,1.0061,1.1333,1.296,1.4134,1.5388,1.6793,1.6551,1.6437,1.6738,1.5917,1.539,1.5328,1.6647,1.7603,1.8071,1.9506,2.029,2.0444,2.1361,2.1985,2.2346,2.2989,2.3519,2.3886,2.3885,2.429,2.4958,2.4976,2.3887,2.1966,2.0144,1.8858,1.7782,0.0,0.0,0.0,0.0,0.0,0.0,0.0,0.0,0.0,0.0,0.0,0.0,0.0,0.0,0.0,0.0,0.0,0.0,0.0,0.0,0.0,0.0,0.0,0.0,0.0,0.0,0.0,0.0,0.0,0.0,0.0,0.0,0.0,1.7909,1.8916,1.969,1.9812,1.9982,2.0075,2.0217,2.0241,2.0457,2.0968,2.1021,2.1527,2.2724,2.2671,2.2718,2.2987,2.2531,2.1733,2.0505,1.9724,1.9099,1.8595,1.8147,1.7865,1.77,1.759,1.7534,1.7534,1.739,1.7284,1.7234,1.7451,1.7617,1.7673,1.7368,1.7207,1.7256,1.7451,1.7396,1.7179,0.8195,0.8363,0.8462,0.8592,0.853,0.8432,0.829,0.8339,0.875,0.9778,1.0574,1.1758,1.3611,1.4934,1.5989,1.6831,1.7014,1.7205,1.7491,1.6903,1.6954,1.7835,1.8629,1.9436,2.0299,2.0826,2.1289,2.1756,2.2199,2.254,2.2826,2.3158,2.3372,2.3482,2.3931,2.4155,2.4255,2.4768,2.475,2.4248,2.2892,2.1458,2.003,0.0,0.0,0.0,0.0,0.0,0.0,0.0,0.0,0.0,0.0,0.0,0.0,0.0,0.0,0.0,0.0,0.0,0.0,0.0,0.0,0.0,0.0,0.0,0.0,0.0,0.0,0.0,0.0,0.0,0.0,0.0,1.9286,1.9752,1.9391,1.9825,2.0348,2.0898,2.0928,2.0928,2.1072,2.1072,2.1126,2.1288,2.1288,2.1639,2.2395,2.232,2.2352,2.2638,2.2417,2.1748,2.0593,2.0363,1.9794,1.8868,1.8753,1.8598,1.8356,1.8306,1.8278,1.8278,1.8088,1.8007,1.8007,1.8111,1.8166,1.8166,1.7838,1.7783,1.7865,1.792,1.7838,1.7678,0.8119,0.8373,0.8572,0.86,0.8544,0.8446,0.8319,0.8547,0.9093,1.007,1.093,1.2198,1.4153,1.5281,1.6276,1.7145,1.7519,1.778,1.8006,1.8063,1.8491,1.9392,2.0415,2.1179,2.1625,2.2123,2.2521,2.2753,2.2767,2.292,2.3113,2.315,2.3224,2.3335,2.3813,2.3973,2.3874,2.4599,2.4896,2.4796,2.4242,2.3407,2.2405,2.1325,2.0209,1.901,1.747,1.6565,1.5898,1.4461,0.0,0.0,0.0,0.0,0.0,0.0,0.0,0.0,0.0,0.0,0.0,0.0,0.0,0.0,0.0,0.0,0.0,0.0,0.0,0.0,0.0,0.0,0.0,0.0,2.1235,2.1481,2.1273,2.1139,2.1195,2.1527,2.1434,2.1361,2.1385,2.1385,2.1385,2.1385,2.1385,2.1656,2.2278,2.2229,2.2238,2.2326,2.2194,2.1641,2.0629,2.055,2.0138,1.9422,1.9422,1.9317,1.9107,1.9107,1.9081,1.9001,1.8895,1.8815,1.8762,1.8813,1.8839,1.8866,0.0,0.0,0.0,0.0,1.8383,1.8197,0.7819,0.8154,0.8516,0.8586,0.8544,0.846,0.8333,0.8838,0.9492,1.0222,1.1188,1.2564,1.4505,1.5328,1.623,1.747,1.7835,1.8093,1.8343,1.9235,1.9916,2.0278,2.1903,2.2641,2.2301,2.3336,2.3736,2.3432,2.3312,2.3239,2.3298,2.3113,2.3113,2.3298,2.3666,2.3758,2.37,2.4393,2.4517,2.4247,2.4587,2.4678,2.4485,2.3253,2.2245,2.1277,1.9498,1.8668,1.818,1.6935,0.0,0.0,0.0,0.0,0.0,0.0,0.0,0.0,0.0,0.0,0.0,0.0,0.0,0.0,0.0,0.0,0.0,0.0,0.0,0.0,0.0,0.0,0.0,0.0,2.2753,2.2761,2.3084,2.254,2.2006,2.1841,2.1674,2.153,2.141,2.1385,2.1385,2.1385,2.1385,2.1656,2.2278,2.2251,0.0,0.0,0.0,2.1476,2.0673,2.0548,2.0372,2.0093,2.0093,2.0016,1.9914,1.9964,1.9937,1.9834,1.9858,1.9829,1.9698,1.9648,1.9626,1.963,1.9131,1.8893,1.8919,1.9052,1.8922,1.8709,0.8136,0.8354,0.8516,0.8586,0.8586,0.8544,0.8396,0.8895,0.968,1.0782,1.154,1.2705,1.4659,1.5228,1.5795,1.6574,1.7102,1.7758,1.8654,1.9869,2.0698,2.1011,2.2504,2.3235,2.3013,2.3899,2.4126,2.3653,2.3892,2.3759,2.3298,2.3261,2.3187,2.3075,2.3298,2.336,2.3243,2.3874,2.4213,2.4318,2.4823,2.4862,2.4536,2.4008,2.3363,2.2465,2.0987,2.0041,1.9258,1.7727,1.7149,1.6948,1.6328,1.5422,0.0,0.0,0.0,0.0,0.0,0.0,0.0,0.0,0.0,0.0,0.0,0.0,0.0,0.0,0.0,0.0,0.0,0.0,0.0,2.3069,2.3498,2.364,2.3436,2.2926,2.2397,2.2006,2.1746,2.153,2.141,2.1385,2.1385,2.1385,2.1385,2.1656,2.2278,2.1844,2.1792,2.2227,2.177,2.1374,2.1068,2.1044,2.0921,2.0646,2.0646,0.0,2.0447,2.0965,2.1173,2.1147,2.1534,2.166,2.1608,2.1012,2.0552,2.0195,1.9785,1.9604,1.9604,1.9656,1.9552,1.9396,0.8403,0.84,0.8375,0.8516,0.853,0.8467,0.841,0.888,0.9605,1.0571,1.1396,1.2482,1.398,1.4623,1.5219,1.5853,1.6808,1.7921,1.9263,2.0212,2.0937,2.1469,2.304,2.383,2.3612,2.4556,2.4834,2.4378,2.4095,2.3738,2.327,2.3053,2.2834,2.2652,2.2871,2.2764,2.2472,2.2811,2.2996,2.3142,2.3641,2.3903,2.4037,2.4294,2.379,2.274,2.1699,2.0849,2.0088,1.8957,1.8581,1.8505,1.7929,1.72,1.64,0.0,0.0,0.0,0.0,0.0,0.0,0.0,0.0,0.0,0.0,0.0,0.0,0.0,0.0,2.0548,2.2226,0.0,2.32,2.3802,2.3916,2.3812,2.3553,2.3038,2.2535,2.2147,2.1864,2.1602,2.141,2.1385,2.1521,2.1844,2.1871,2.209,2.2713,2.247,2.2442,2.2741,2.247,2.2282,2.2206,2.2206,2.2129,2.2001,2.2001,2.195,2.1925,2.2218,2.2299,2.2246,2.2485,2.2564,2.2457,2.1773,2.1354,2.1117,2.0601,2.0321,2.0194,2.0194,2.0118,1.9991,0.8684,0.8526,0.8425,0.8567,0.8546,0.8517,0.8453,0.8878,0.9416,1.0097,1.1067,1.208,1.3019,1.374,1.4438,1.5153,1.6439,1.7817,1.9315,2.0022,2.0696,2.1394,2.3004,2.3822,2.3658,2.4667,2.5046,2.4731,2.3991,2.3468,2.3107,2.2741,2.2421,2.2207,2.2364,2.2112,2.1661,2.1788,2.1832,2.1877,2.2365,2.2804,2.3229,2.3961,2.3636,2.2649,2.182,2.115,2.0616,1.9987,1.9811,1.9736,1.9284,1.8782,1.823,1.7561,1.6678,0.0,0.0,0.0,0.0,0.0,0.0,0.0,0.0,1.9009,2.0142,2.0871,2.1785,2.2744,2.3678,2.3756,2.3823,2.4287,2.3994,2.3631,2.337,2.2949,2.2518,2.2147,2.1912,2.1753,2.1572,2.1575,2.1844,2.2441,2.252,2.2792,2.3363,2.3362,2.3334,2.3418,2.3335,2.3228,2.3201,2.3201,2.3201,2.3201,2.3201,2.3201,2.3201,2.3337,2.3311,2.3231,2.3339,2.3259,2.3018,2.2403,2.2082,2.1922,2.1309,2.0945,2.0747,2.0698,2.0623,2.0523,0.9044,0.9018,0.8993,0.8952,0.8951,0.8869,0.8695,0.8916,0.9264,0.9709,1.0761,1.1598,1.2013,1.2583,1.3328,1.4409,1.5472,1.6547,1.7614,1.8958,1.9831,2.01,2.158,2.2432,2.24,2.3285,2.3627,2.3401,2.3489,2.3229,2.2662,2.2514,2.2204,2.1856,2.1774,2.1523,2.1207,2.1497,2.1694,2.1745,2.2211,2.234,2.2276,2.2472,2.2597,2.2455,2.1251,2.0769,2.0616,1.9987,1.9811,1.9786,1.9736,1.9334,1.8783,1.8111,1.779,1.757,1.6846,1.6926,1.7289,1.7575,1.7976,1.8441,0.0,1.9977,2.1017,2.2304,2.2978,2.3603,2.4356,2.4338,2.4142,2.3909,2.3653,2.3297,2.2852,2.2586,2.2287,2.1888,2.1817,2.1918,2.2167,2.2196,2.2468,2.3066,2.3249,2.3601,2.4149,2.3843,2.3814,2.4177,2.371,2.3385,2.3201,2.3201,2.3201,2.3201,2.3201,2.3201,2.3228,2.3743,2.3987,2.4014,2.4557,2.4475,2.3933,2.3284,2.2716,2.22,2.158,2.1337,2.1264,2.1046,2.0947,2.0947,0.9604,0.9637,0.9666,0.9603,0.9099,0.8658,0.8497,0.8464,0.8603,0.9,0.9807,1.0418,1.0554,1.1145,1.2045,1.3293,1.4454,1.5785,1.7292,1.8301,1.91,1.9631,2.0833,2.1597,2.1789,2.2737,2.326,2.337,2.2954,2.2591,2.2369,2.1991,2.1677,2.1383,2.1247,2.1125,2.1007,2.1051,2.1192,2.1439,2.1684,2.1842,2.1868,2.1509,2.1197,2.0949,2.0769,2.0211,0.0,1.9657,1.9431,1.9181,1.9453,1.9403,1.918,1.8907,1.8782,1.8607,1.8086,1.8269,1.8622,1.8782,1.9368,2.0062,2.0757,2.1678,2.2673,2.3697,2.4306,2.4637,2.4572,2.439,2.4007,2.3268,2.2778,2.2438,2.2189,2.1983,2.1859,2.1972,2.1975,2.2059,2.2278,2.2605,2.3066,2.3689,2.3877,2.4231,2.4805,2.4778,2.4777,2.4805,2.4614,2.4395,2.4231,2.4231,2.4231,2.4231,2.4231,2.4231,2.4258,2.4502,2.4639,2.4666,2.491,2.4856,2.4557,2.3581,2.3066,2.2713,2.1765,2.1385,2.1385,2.1264,2.1242,2.1242,1.0175,1.0228,1.0246,1.0193,0.939,0.8727,0.8628,0.8396,0.833,0.8523,0.9047,0.9388,0.9343,0.9921,1.0817,1.1952,1.331,1.48,1.6445,1.7366,1.818,1.8873,1.9823,2.0483,2.0702,2.1629,2.2194,2.2453,2.1853,2.1539,2.1484,2.1018,2.0762,2.0709,2.0545,2.0566,2.0654,2.0551,2.0678,2.1011,2.1056,2.1214,2.1313,2.0857,2.0239,1.9635,2.0062,1.9508,1.8635,1.9033,1.8808,1.8436,1.9001,1.9173,1.9172,1.9345,1.9263,1.9127,1.9003,1.9093,1.9263,1.9324,2.0012,2.088,2.1557,2.2458,2.3379,2.4195,2.4742,2.4934,2.4429,2.413,2.3679,2.28,2.2259,2.1893,2.1772,2.1624,2.1633,2.2033,2.2298,2.2456,2.2587,2.3069,2.3663,2.4286,2.4505,2.4806,2.5272,2.5467,2.5495,2.53,2.53,2.5188,2.5018,2.5018,2.5018,2.5018,2.5181,2.5154,2.5018,2.5018,2.5018,2.5018,2.5018,2.5018,2.491,2.3716,2.3254,2.3145,2.1972,2.1506,2.1506,2.1506,2.1458,2.1385,1.0676,1.0676,1.0657,1.0601,0.9977,0.9445,0.9372,0.9078,0.8762,0.844,0.8706,0.8847,0.8659,0.9115,0.9713,1.0409,1.1936,1.3279,1.4329,1.5873,1.6948,1.7362,1.8248,1.875,1.8802,1.9455,1.9805,1.9835,1.9906,1.9906,1.9782,1.9426,1.9454,1.9745,1.9525,1.9693,2.0107,1.9976,2.0118,2.045,2.0569,2.0495,2.0281,2.0557,1.9987,1.9033,1.9058,1.8609,1.8038,1.8038,1.7919,1.7849,1.8412,1.8583,1.8655,1.9221,1.921,1.9042,1.9321,1.9263,1.9089,1.8953,1.958,2.0361,2.0824,2.1642,2.2538,2.3275,2.3766,2.4044,2.4016,2.3712,2.3222,2.2618,2.2271,2.2001,2.1727,2.1699,2.178,2.2076,2.2734,2.3214,2.3354,2.3685,2.4175,2.4909,2.53,2.5467,2.5494,2.5743,2.5771,2.5494,2.5494,2.5328,2.5018,2.5018,2.5018,2.5018,2.5588,2.5561,2.5018,2.5018,2.5018,2.5018,2.5018,2.5018,2.491,2.3823,2.3385,2.3301,2.2217,2.1793,2.1793,2.1793,2.1602,2.1385,1.1023,1.1042,1.0964,1.0831,1.0481,1.0134,0.9849,0.9023,0.8441,0.8463,0.8485,0.0,0.0,0.0,0.0,0.0,1.1264,1.2559,1.3569,1.4973,1.5925,1.623,1.7222,1.7922,1.8247,1.8881,1.9358,1.9565,1.9795,1.9795,1.9588,1.9545,1.9429,1.9243,1.903,1.9026,1.9179,1.9363,1.9607,1.9867,1.997,2.0079,2.0158,1.9732,1.8882,1.7877,0.0,1.7115,1.6808,1.6808,1.6605,1.6474,1.6979,1.7628,1.8301,1.8936,1.8946,1.88,1.9211,1.9407,1.9546,1.9718,2.0327,2.095,2.1293,2.1848,2.2527,2.3306,2.3758,2.3847,2.3336,2.3092,2.2576,2.1554,2.1141,2.0941,2.0852,2.0852,2.1088,2.1798,2.2311,2.2882,2.3615,2.4158,2.4605,2.485,2.5131,2.53,2.53,2.5495,2.5522,2.53,2.53,2.5407,2.5588,2.5588,2.5805,2.6212,2.6373,2.6373,2.6183,2.5778,2.5588,2.5561,2.5181,2.5018,2.4937,2.4259,2.374,2.3329,2.2658,2.2152,2.1793,2.1888,2.1864,2.1793,1.1271,1.1271,1.1233,1.1099,1.0831,0.0,0.0,0.0,0.0,0.0,0.0,0.0,0.0,0.0,0.0,0.0,0.0,1.1659,1.2646,1.3837,1.4746,1.5287,1.6057,1.668,1.7052,1.7757,1.8251,1.8423,1.8799,1.8866,1.8693,1.874,1.8687,1.8636,1.8495,1.8545,1.8706,1.8859,1.8973,1.9063,1.9136,1.9255,1.9273,1.8659,1.7877,0.0,1.6195,1.5695,1.543,1.5803,1.5711,1.5618,1.6478,1.7481,1.8462,1.9039,1.9098,1.903,1.9409,1.9715,1.9991,2.0159,2.0614,2.1074,2.1282,2.1604,2.2022,2.2531,2.2862,2.2887,2.2271,2.215,2.1803,2.088,2.0647,2.0581,2.0581,2.064,2.0968,2.1747,2.2184,2.2778,2.3636,2.4305,2.4708,2.4791,2.5075,2.5244,2.53,2.5467,2.5495,2.5356,2.5328,2.5435,2.5648,2.5807,2.6321,2.7104,2.6888,2.6915,2.7077,2.6267,2.5887,2.586,2.5263,2.5018,2.4964,2.4559,2.4148,2.3763,2.3361,2.285,2.2341,2.2436,2.2367,2.2217,1.1446,1.1446,1.1446,0.0,0.0,0.0,0.0,0.0,0.0,0.0,0.0,0.0,0.0,0.0,0.0,0.0,0.0,0.0,1.1489,1.2467,1.3461,1.4471,1.4794,1.5055,1.5335,1.6098,1.6497,1.6421,1.6972,1.7234,1.7219,1.7052,1.7312,1.789,1.789,1.8159,1.8561,1.8369,1.8159,1.8005,1.8071,1.7921,1.765,1.736,1.6898,1.6224,1.5185,1.4431,1.4045,1.5011,1.5198,1.5325,1.6931,1.8157,1.9095,1.9511,1.965,1.9709,1.9948,2.0201,2.0412,2.0312,2.0488,2.0754,2.0914,2.0996,2.1057,2.1091,2.1212,2.1222,2.0913,2.0966,2.0966,2.0626,2.0754,2.0905,2.0905,2.1065,2.1383,2.1815,2.2304,2.2854,2.3539,2.416,2.4622,2.482,2.5075,2.53,2.5494,2.5633,2.5688,2.5688,2.5578,2.5439,2.5271,2.5729,2.6568,2.7736,2.7135,2.7189,2.7736,2.6541,2.6025,2.597,2.5373,2.5101,2.5047,2.4751,2.4584,2.45,2.4257,2.384,2.3372,2.3344,2.3112,2.2729,0.0,0.0,0.0,0.0,0.0,0.0,0.0,0.0,0.0,0.0,0.0,0.0,0.0,0.0,0.0,0.0,0.0,0.0,1.0567,1.1471,1.2427,1.3421,1.3728,1.4089,1.457,1.5024,1.529,1.5387,1.6211,1.6482,1.6182,1.6584,1.666,1.6519,1.662,1.674,1.6806,1.6573,1.648,1.6541,1.6572,1.6337,1.5976,1.5657,1.5185,1.4626,1.391,1.3817,1.4068,1.4237,1.4874,1.5876,1.7508,1.8496,1.9199,1.9867,2.0305,2.0657,2.1048,2.1081,2.1054,2.1276,2.1181,2.1074,2.1138,2.0745,2.0511,2.074,2.0534,2.0229,2.0059,2.0337,2.0557,2.0475,2.0794,2.1041,2.1041,2.1228,2.1388,2.1486,2.2056,2.2726,2.339,2.4218,2.4821,2.5076,2.53,2.5467,2.5633,2.5688,2.5743,2.5853,2.5716,2.5855,2.6243,2.6679,2.7278,2.8078,2.7913,2.8161,2.8711,2.7968,2.7611,2.7583,2.698,2.6457,2.6015,2.6049,2.5577,2.4873,2.4916,2.4693,2.4287,2.3899,2.3798,2.3802,0.0,0.0,0.0,0.0,0.0,0.0,0.0,0.0,0.0,0.0,0.0,0.0,0.0,0.0,0.0,0.0,0.0,0.0,0.0,1.0665,1.1438,1.2265,1.2622,1.2983,1.3393,1.381,1.4058,1.4176,1.4953,1.5157,1.4803,1.5186,1.5176,1.4828,1.4921,1.5103,1.5307,1.4971,1.4945,0.0,0.0,1.4699,1.4335,1.3956,1.3778,1.3627,1.304,1.372,1.4955,1.5361,1.638,1.7726,1.8851,1.964,2.0259,2.0856,2.1223,2.151,2.1956,2.1922,2.1758,2.1885,2.1675,2.1322,2.0996,2.0587,2.0167,1.9738,1.9367,1.9004,1.869,1.8965,1.9328,1.9678,2.0092,2.0424,2.0621,2.0919,2.1134,2.1288,2.1963,2.2726,2.3484,2.4363,2.5076,2.555,2.5633,2.5716,2.588,2.588,2.5962,2.6071,2.5962,2.6133,2.6693,2.6885,2.7357,2.7996,2.7996,2.8302,2.8858,2.8277,2.8138,2.8391,2.778,2.7333,2.7027,2.7171,2.6722,2.6038,2.6197,2.5914,2.5321,2.5091,2.5035,2.4956,0.0,0.0,0.0,0.0,0.0,0.0,0.0,0.0,0.0,1.0023,0.9835,0.9595,0.9245,0.9393,0.0,0.0,0.0,0.0,0.0,0.0,1.0626,1.1267,1.1529,1.1796,1.2089,1.2463,1.2673,1.2762,1.3358,1.3537,1.3282,1.3411,1.3383,1.3168,1.3227,1.3538,1.3944,1.3541,1.3473,1.3604,1.3329,1.3056,1.2722,0.0,1.2605,1.2964,1.2839,1.4232,1.634,1.7419,1.8676,1.9859,2.041,2.1066,2.1725,2.2113,2.2226,2.2342,2.2694,2.2635,2.2451,2.2297,2.2049,2.1603,2.0932,2.054,1.9963,1.8658,1.8209,1.7821,1.7329,1.753,1.8008,1.8784,1.925,1.9681,2.0151,2.0543,2.0909,2.1201,2.1963,2.2823,2.3754,2.4622,2.5356,2.6071,2.6127,2.621,2.6233,2.6233,2.6313,2.6447,2.634,2.6462,2.6834,2.6834,2.7145,2.7766,2.7766,2.8104,2.8753,2.8217,2.8331,2.8957,2.8448,2.8165,2.8109,2.8225,2.7997,2.7618,2.7777,2.7313,2.6589,2.6534,2.638,2.6108,0.0,0.0,0.0,0.0,0.0,0.0,0.0,0.0,0.0,0.0,1.0582,0.9922,0.0,0.0,0.0,0.0,0.0,0.0,0.0,0.0,0.0,1.1166,1.07,1.0575,1.0961,1.0828,1.0848,1.1033,1.1637,1.1984,1.2109,1.2355,1.244,1.2404,1.2569,1.2713,1.2778,1.2365,1.2203,1.2207,1.1883,1.1468,1.1082,1.1545,0.0,0.0,1.4113,1.5988,1.7734,1.8918,1.9654,2.0143,2.0781,2.1646,2.2455,2.2757,2.3,2.3199,2.3245,2.306,2.2818,2.2787,2.2543,2.2152,2.1685,2.0769,1.9785,1.9092,1.815,1.733,1.696,1.7492,1.8232,1.8814,1.966,2.0346,2.0697,2.1052,2.1292,2.1351,2.2218,2.313,2.3959,2.4991,2.5715,2.6071,2.7043,2.7399,2.6875,2.6948,2.7078,2.7207,2.7181,2.7133,2.7065,2.7065,2.736,2.8031,2.8031,2.8561,2.9581,2.9465,2.9784,3.0424,3.0308,3.0046,2.9694,2.9723,2.951,2.9134,2.8651,2.8527,2.8556,2.7455,2.7132,2.7149,0.0,0.0,0.0,0.0,0.0,0.0,0.0,1.1808,1.2451,1.2898,1.2393,1.1735,1.1173,1.0684,1.0429,0.0,0.0,0.0,0.0,0.0,0.0,0.0,0.0,0.0,1.0964,1.0793,1.069,1.0594,0.0,1.1049,1.0824,1.0997,1.1002,1.086,1.0984,1.119,1.1423,1.0961,1.0933,1.1223,1.1058,1.0858,1.0726,0.0,0.0,0.0,1.4836,1.6468,1.7929,1.9178,2.0085,2.0857,2.1955,2.2709,2.323,2.3488,2.3599,2.3624,2.345,2.321,2.3,2.2909,2.2625,2.2219,2.1621,2.0631,1.9621,1.8807,1.7824,1.7026,1.6716,1.713,1.7706,1.826,1.9216,1.999,2.0343,2.0924,2.138,2.1517,2.2402,2.3339,2.4131,2.5104,2.5852,2.6285,2.7079,2.743,2.7033,2.7181,2.7361,2.7514,2.7514,2.7514,2.7458,2.7458,2.7633,2.8008,2.7961,2.8568,2.9735,2.9681,3.0214,3.116,3.1248,3.1127,3.0945,3.1031,3.0599,2.9879,2.9598,2.9231,2.8805,2.823,2.8148,2.8232,0.0,0.0,0.0,0.0,0.0,0.0,0.0,1.2404,1.3378,1.4118,1.4296,1.3993,1.299,1.197,1.1285,0.0,0.0,0.0,0.0,0.0,0.0,0.0,0.0,0.0,0.0,0.0,0.0,1.0569,1.0775,0.0,0.0,0.0,0.0,0.0,0.971,0.9972,1.0328,0.9922,1.0072,0.0,0.0,1.0726,0.0,0.0,0.0,0.0,0.0,1.675,1.8001,1.9027,2.0047,2.1135,2.2512,2.3282,2.3706,2.3929,2.3933,2.3772,2.3509,2.3271,2.309,2.303,2.2694,2.2229,2.1566,2.0592,1.9509,1.8443,1.7576,1.6858,1.6395,1.6669,1.716,1.7687,1.8595,1.9386,1.9921,2.0663,2.1315,2.1784,2.2647,2.3518,2.4334,2.5216,2.5961,2.6443,2.6945,2.7233,2.7211,2.7386,2.7615,2.7785,2.781,2.789,2.8014,2.8014,2.8033,2.81,2.8033,2.8596,2.9667,2.9713,3.0383,3.1556,3.1762,3.1938,3.2023,3.2104,3.1566,3.0675,3.0572,2.9918,2.8998,2.8991,2.9091,2.9157,0.0,0.0,0.0,0.0,0.0,0.0,0.0,1.2968,1.4417,1.5159,1.584,1.6032,1.552,1.3278,1.1666,0.0,0.0,0.0,0.0,0.0,0.0,0.0,0.0,0.0,0.0,0.0,0.0,1.0412,1.0622,0.0,0.0,0.0,0.0,0.0,0.0,0.9892,0.9942,0.9905,0.0,0.0,0.0,0.0,0.0,0.0,0.0,0.0,0.0,1.7565,1.8717,1.8889,1.9374,2.0116,2.1226,2.243,2.3489,2.368,2.3681,2.3628,2.3599,2.336,2.3125,2.33,2.3018,2.2575,2.226,2.099,1.9575,1.8442,1.754,1.6723,1.584,1.6348,1.7074,1.7625,1.8204,1.9006,2.0175,2.0679,2.1263,2.2231,2.307,2.3872,2.4679,2.5439,2.6042,2.6472,2.7052,2.7543,2.7896,2.7945,2.8113,2.8501,2.8501,2.8549,2.87,2.87,2.8723,2.8723,2.8723,2.8969,2.9558,3.0207,3.0917,3.1632,3.2272,3.2715,3.2962,3.2989,3.2678,3.2127,3.1544,3.0887,3.0273,2.9772,2.9614,2.9659,0.0,0.0,0.0,0.0,0.0,0.0,1.1541,1.3119,1.4609,1.5664,1.6424,1.6693,1.6198,1.4636,1.3185,1.2176,0.0,0.0,0.0,0.0,0.0,0.0,0.0,0.0,0.0,0.0,1.1063,1.0894,1.0961,0.0,0.0,0.0,0.0,0.0,0.0,1.0166,0.9918,1.0323,0.0,0.0,0.0,0.0,0.0,0.0,0.0,0.0,0.0,0.0,1.8495,1.8893,1.9126,1.9374,2.0062,2.1015,2.2141,2.3363,2.3535,2.3425,2.3699,2.3599,2.345,2.3654,2.308,2.2393,2.2088,2.079,1.9337,1.8206,1.7606,1.7057,1.6235,1.6786,1.751,1.7897,1.8576,1.939,2.016,2.1005,2.1785,2.2392,2.3372,2.4279,2.4963,2.5715,2.6416,2.7126,2.7463,2.7765,2.8088,2.8039,2.8168,2.8453,2.8549,2.8692,2.8881,2.8881,2.8905,2.8975,2.8905,2.9178,2.9817,3.0024,3.0472,3.1156,3.1586,3.1809,3.1968,3.2165,3.19,3.135,3.1165,3.0735,3.017,2.9955,3.0011,3.0194,0.0,0.0,0.0,0.0,0.0,1.0811,1.1626,1.3117,1.4549,1.5756,1.6683,1.6999,1.6466,1.5712,1.4684,1.322,1.2447,0.0,0.0,0.0,0.0,0.0,0.0,0.0,0.0,0.0,1.194,1.1637,1.1832,1.175,0.0,0.0,1.1302,1.0979,0.0,0.0,0.0,0.0,0.0,0.0,0.0,0.0,0.0,0.0,0.0,0.0,0.0,0.0,0.0,0.0,0.0,1.8776,1.9212,1.9856,2.0786,2.2405,2.3038,2.3287,2.3589,2.3735,2.3754,2.3803,2.319,2.2406,2.1895,2.0715,1.9347,1.7983,1.7583,1.7236,1.6483,1.69,1.7613,1.8238,1.8881,1.9533,2.0352,2.1359,2.2264,2.2703,2.3822,2.4794,2.5411,2.6203,2.6967,2.766,2.784,2.8014,2.8235,2.821,2.8284,2.8508,2.8668,2.8826,2.9013,2.9059,2.9106,2.9229,2.9106,2.9367,2.9848,2.9942,3.027,3.0741,3.1177,3.1363,3.1469,3.175,3.1519,3.0985,3.1098,3.0784,3.0225,3.007,3.027,3.0683,0.0,0.0,0.0,0.0,0.0,0.0,1.1608,1.2941,1.427,1.5374,1.6685,1.7227,1.6485,1.6524,1.5887,1.4145,1.3019,0.0,0.0,0.0,0.0,0.0,0.0,0.0,0.0,0.0,1.2758,1.268,1.3277,1.3317,1.2793,1.266,1.2327,1.189,0.0,0.0,0.0,0.0,0.0,0.0,0.0,0.0,0.0,0.0,0.0,0.0,0.0,0.0,0.0,0.0,0.0,0.0,0.0,1.9184,1.9691,2.0631,2.2009,2.3182,2.3208,2.3629,2.4029,2.3678,2.3339,2.2849,2.19,2.0968,1.9761,1.7899,1.7451,1.7163,1.6336,1.6477,1.7196,1.8659,1.8786,1.9239,2.0783,2.1686,2.2501,2.33,2.4472,2.5439,2.6041,2.6993,2.7685,2.7984,2.8137,2.8235,2.8387,2.8597,2.874,2.8794,2.8975,2.9183,2.9289,2.9434,2.9512,2.9512,2.9512,2.9512,2.9544,3.0183,3.0503,3.0535,3.1357,3.1798,3.1996,3.2206,3.2032,3.1615,3.1656,3.1316,3.0724,3.0196,3.0441,3.1041,0.0,0.0,0.0,0.0,0.0,0.0,0.0,1.2178,1.3304,1.4081,1.5093,1.5681,1.5527,1.5307,1.4843,1.4002,1.3341,0.0,0.0,0.0,0.0,0.0,0.0,0.0,0.0,0.0,1.3038,1.3242,1.368,1.386,1.3826,1.3874,1.3387,1.2461,1.2505,1.2262,0.0,0.0,0.0,0.0,0.0,0.0,0.0,0.0,0.0,0.0,0.0,0.0,0.0,0.0,0.0,0.0,0.0,0.0,0.0,1.9953,2.1247,2.2538,2.2937,2.3312,2.3555,2.3606,2.2967,2.2221,2.167,2.0741,1.9464,1.7652,1.7587,1.7583,1.6877,1.7022,1.7804,1.9586,1.9646,2.0063,2.1758,2.2613,2.3365,2.4258,2.5618,2.6707,2.7229,2.783,2.8301,2.847,2.8685,2.8881,2.9021,2.9152,2.9175,2.9013,2.9243,2.947,2.9649,2.9694,2.9716,2.9716,2.9716,2.9716,2.9716,2.9942,3.0061,3.0182,3.052,3.0795,3.0991,3.1172,3.127,3.1274,3.1395,3.1385,3.1336,3.1155,3.1336,3.1554,0.0,0.0,0.0,0.0,0.0,0.0,0.0,1.1715,1.2601,1.3287,1.4054,1.4589,1.466,1.4465,1.4136,1.3716,1.3348,0.0,0.0,0.0,0.0,0.0,0.0,0.0,1.3035,1.3376,1.3725,1.404,1.4812,1.5265,1.5405,1.5475,1.5083,1.4254,1.3945,1.3437,0.0,0.0,0.0,0.0,0.0,0.0,1.5081,0.0,0.0,0.0,0.0,0.0,0.0,0.0,0.0,0.0,0.0,0.0,0.0,0.0,2.056,2.1736,2.2654,2.3029,2.3151,2.3134,2.2516,2.1755,2.1169,2.055,1.9661,1.8103,1.8039,1.815,1.7678,1.7747,1.8455,2.0299,2.0577,2.1131,2.2724,2.3844,2.5008,2.6365,2.7362,2.8092,2.8547,2.8762,2.8912,2.9036,2.9198,2.9357,2.9538,2.9716,2.9772,2.9705,2.9738,2.987,3.0054,3.0097,3.0151,3.0151,3.0151,3.0097,3.0087,3.013,3.0194,3.0258,3.0468,3.0613,0.0,3.0985,3.1201,3.1355,3.147,3.1635,3.1749,3.1509,3.1669,3.1933,0.0,0.0,0.0,0.0,0.0,0.0,0.0,1.148,1.2203,1.2839,1.347,1.3887,1.3897,1.3885,1.3713,1.3286,0.0,0.0,0.0,0.0,0.0,0.0,0.0,0.0,1.3593,1.4196,1.4671,1.5039,1.6514,1.7315,1.7345,1.7322,1.7195,1.6866,1.5704,1.4957,0.0,0.0,0.0,0.0,1.4651,1.4777,0.0,0.0,0.0,0.0,0.0,0.0,0.0,0.0,0.0,0.0,0.0,0.0,0.0,0.0,0.0,0.0,0.0,2.2759,2.2792,2.2371,2.202,2.1497,2.0489,2.0389,0.0,1.9006,1.8736,1.8719,1.8668,1.8594,1.9122,2.0861,2.1603,2.2373,2.3647,2.5423,2.7309,2.9274,2.9428,2.9527,2.9942,2.9717,2.9582,2.9639,2.9661,2.9804,3.0022,3.0246,3.0477,3.0736,3.0447,3.0363,3.0551,3.0688,3.0749,3.0736,3.0749,3.0654,3.0551,3.0675,3.0736,3.0757,3.1024,3.1142,3.1181,3.1504,3.1691,3.1855,3.1912,3.202,3.2056,3.1428,3.1619,3.2127,0.0,0.0,0.0,0.0,0.0,0.0,0.0,0.0,0.0,0.0,1.2403,1.2695,1.2907,1.2765,1.2666,0.0,0.0,0.0,0.0,0.0,0.0,0.0,0.0,0.0,1.3686,1.4322,1.5196,1.628,1.7404,1.8243,1.8723,1.8614,1.8067,1.7162,1.6273,1.5317,0.0,0.0,0.0,0.0,1.4873,1.5027,0.0,0.0,0.0,0.0,1.9158,1.9654,0.0,0.0,0.0,0.0,0.0,0.0,0.0,0.0,2.0186,2.0465,2.1276,0.0,2.2071,2.201,2.1799,2.1414,0.0,2.0436,2.0028,1.9307,1.914,1.914,1.9154,1.9501,2.0236,2.1648,2.2664,2.3666,2.4904,2.6996,2.8914,3.0305,3.0235,3.0204,3.0633,3.0291,3.0065,3.014,3.0342,3.051,3.0601,3.0804,3.1024,3.1293,3.1293,3.1235,3.1117,3.1078,3.1131,3.1176,3.1131,3.1078,3.1117,3.1157,3.1254,3.1389,3.1466,3.1545,3.1712,3.182,3.1984,3.2249,3.2267,3.2371,3.2453,3.2294,3.2364,3.2416,0.0,0.0,0.0,0.0,0.0,0.0,0.0,0.0,0.0,0.0,0.0,1.211,1.2317,1.2129,0.0,0.0,0.0,0.0,0.0,0.0,0.0,0.0,0.0,1.3245,1.3991,1.4738,1.5821,1.7299,1.8588,1.9592,2.0342,2.0479,1.9853,1.8594,1.6809,1.5398,0.0,0.0,0.0,1.4994,1.5134,0.0,0.0,0.0,0.0,0.0,1.9472,1.9993,0.0,2.0801,2.054,2.0079,0.0,0.0,0.0,0.0,2.0042,2.0231,2.1119,2.1281,2.1166,2.1219,2.103,2.0753,2.0509,2.0378,2.023,1.9977,1.9948,2.0058,2.0486,2.0814,2.1561,2.3261,2.4214,2.5505,2.7636,2.9138,3.0548,3.1931,3.187,3.1727,3.1767,3.1351,3.0979,3.0716,3.0878,3.1018,3.1103,3.1298,3.1504,3.1691,3.1784,3.1747,3.1564,3.1542,3.1542,3.1564,3.1542,3.1523,3.1523,3.1579,3.162,3.1747,3.1839,3.193,3.2037,3.2091,3.2267,3.2439,3.2473,3.2574,3.2724,3.2721,3.2737,3.2682,0.0,0.0,0.0,0.0,0.0,0.0,0.0,0.0,0.0,0.0,0.0,0.0,0.0,0.0,0.0,0.0,0.0,0.0,0.0,0.0,0.0,0.0,0.0,1.3533,1.4533,1.5392,1.6669,1.8396,1.9905,2.1165,2.2105,2.2385,2.1644,1.9929,1.7176,1.5386,0.0,0.0,1.4902,1.5208,1.5359,0.0,0.0,0.0,0.0,0.0,0.0,0.0,0.0,2.1197,2.0963,2.0429,2.1001,0.0,0.0,0.0,0.0,0.0,2.1332,2.1126,2.0623,2.0831,2.067,2.052,2.0522,2.0719,2.0893,2.0949,2.1045,2.1302,2.1964,2.2335,2.3184,2.501,2.6022,2.7611,3.0553,3.1279,3.2067,3.3604,3.3494,3.3222,3.2907,3.2383,3.1793,3.1283,3.1351,3.1447,3.1542,3.1728,3.191,3.1948,3.209,3.2108,3.1984,3.1948,3.1948,3.1966,3.1948,3.1912,3.1873,3.193,3.1984,3.202,3.2179,3.2249,3.2284,3.2371,3.2473,3.2574,3.2639,3.2737,3.287,3.2965,3.2997,3.3013,0.0,0.0,0.0,0.0,0.0,0.0,0.0,0.0,0.0,0.0,0.0,0.0,0.0,0.0,0.0,0.0,0.0,0.0,0.0,0.0,0.0,1.3758,1.3772,1.423,1.5323,1.6301,1.7896,2.0122,2.1259,2.261,2.407,2.3735,2.1875,1.8772,1.6898,1.5482,1.4517,1.4686,1.4948,1.5223,1.5477,0.0,0.0,0.0,0.0,0.0,0.0,0.0,0.0,2.1408,2.1137,2.0584,2.1299,0.0,0.0,0.0,0.0,0.0,2.1136,2.1344,2.1541,2.2404,2.2716,2.2725,2.2449,2.256,2.2596,2.2144,2.2499,2.2807,2.2459,2.3957,2.531,2.5649,2.7627,2.9733,3.1398,3.2409,3.3355,3.4423,3.3634,3.3126,3.3296,3.2258,3.1583,3.1523,3.171,3.1839,3.1857,3.202,3.2161,3.2144,3.2284,3.2319,3.2301,3.2161,3.2108,3.2144,3.2108,3.2073,3.2161,3.2267,3.2353,3.2387,3.2506,3.2539,3.2539,3.2556,3.2672,3.287,3.2914,3.3075,3.325,3.3289,3.3319,3.3457,0.0,0.0,0.0,0.0,0.0,0.0,0.0,0.0,0.0,0.0,0.0,0.0,0.0,0.0,0.0,0.0,0.0,0.0,0.0,0.0,0.0,1.4029,1.5005,1.5719,1.6187,1.7874,1.9636,2.1473,2.2875,2.418,2.5349,2.3638,2.1555,1.9119,1.7029,1.5534,1.4624,1.4765,1.5056,1.5388,0.0,0.0,0.0,0.0,0.0,0.0,0.0,0.0,0.0,0.0,2.1162,2.0889,2.1123,0.0,0.0,0.0,0.0,0.0,2.1914,2.2281,2.265,2.4112,2.3815,2.3185,2.3177,2.329,2.3349,2.3243,2.344,2.3901,2.468,2.5664,2.6696,2.784,2.958,3.121,3.2239,3.3189,3.4124,3.5065,3.4454,3.385,3.3734,3.2848,3.2157,3.1892,3.1984,3.2055,3.2055,3.2581,3.2932,3.302,3.3442,3.3741,3.3794,3.3741,3.3266,3.2371,3.2792,3.3037,3.3072,3.3634,3.388,3.3932,3.4017,3.3802,3.341,3.341,3.3259,3.3008,3.3086,3.3253,3.3481,3.3595,3.3935,3.4416,0.0,0.0,0.0,0.0,0.0,0.0,0.0,0.0,0.0,0.0,0.0,0.0,0.0,0.0,0.0,0.0,0.0,0.0,0.0,0.0,1.3772,1.4403,1.6186,1.7205,1.7294,1.9599,2.1537,2.3059,2.4603,2.5586,2.5936,2.3339,2.1205,1.9374,1.7103,1.5579,1.4714,1.4871,1.5149,1.5551,0.0,0.0,0.0,0.0,0.0,0.0,0.0,0.0,0.0,0.0,0.0,0.0,0.0,0.0,0.0,2.1196,2.1196,2.1484,2.2815,2.3205,2.3618,2.5222,2.48,2.4102,2.437,2.464,2.4843,2.4929,2.5079,2.5614,2.691,2.7436,2.8235,2.9987,3.1194,3.2144,3.267,3.3537,3.4341,3.5091,3.4666,3.4138,3.38,3.3133,3.2588,3.2161,3.2214,3.2249,3.2249,3.3055,3.3583,3.3706,3.4465,3.4907,3.5031,3.5135,3.4496,3.3121,3.3825,3.4143,3.416,3.4851,3.5204,3.5186,3.5359,3.5034,3.4478,3.4478,3.4199,3.3749,3.3825,3.3895,3.3977,3.388,3.4415,3.5256,0.0,0.0,0.0,0.0,0.0,0.0,0.0,0.0,0.0,0.0,0.0,0.0,0.0,0.0,0.0,0.0,0.0,0.0,0.0,0.0,1.3831,1.5,1.6886,1.8204,1.8842,2.127,2.3414,2.5258,2.6454,2.6538,2.559,2.3339,2.1057,1.8771,1.6932,1.5579,1.4714,1.492,1.5225,1.5623,1.594,0.0,0.0,0.0,0.0,0.0,0.0,0.0,0.0,0.0,0.0,0.0,0.0,0.0,2.228,2.228,2.2329,2.2573,2.3422,2.3786,2.4182,2.5179,2.6089,2.6813,2.7132,2.7848,2.8277,2.7828,2.8253,2.8612,2.8253,2.93,3.0482,3.1261,3.191,3.2368,3.2334,3.3141,3.3775,3.3809,3.3387,3.3118,3.3068,3.2594,3.2214,3.2214,3.2301,3.2388,3.2388,3.3213,3.3688,3.3706,3.4623,3.5065,3.5101,3.5321,3.5285,3.4923,3.5097,3.5203,3.522,3.534,3.5407,3.549,3.5624,3.5668,3.5659,3.5659,3.567,3.5726,3.5766,3.5528,3.499,3.4273,3.4534,3.5409,0.0,0.0,0.0,0.0,0.0,0.0,0.0,0.0,0.0,0.0,0.0,0.0,0.0,0.0,0.0,0.0,0.0,0.0,0.0,1.2989,1.3931,1.505,1.6679,1.8477,2.0404,2.3152,2.5139,2.6334,2.7494,2.7278,2.5716,2.3471,2.1343,1.9347,1.7605,1.6357,1.5515,1.5677,1.58,1.5883,1.6066,1.6318,0.0,0.0,0.0,0.0,0.0,0.0,0.0,0.0,2.1268,2.1683,2.2143,2.2471,2.28,2.326,2.3456,2.3719,2.4596,2.4928,2.5258,2.6243,2.7538,2.8455,2.8083,2.8271,2.8596,2.899,2.93,2.9592,2.997,3.0855,3.1653,3.1841,3.2402,3.2769,3.2803,3.3495,3.4037,3.415,3.354,3.3148,3.3239,3.3051,3.2949,3.3002,3.3565,3.3899,3.3899,3.4801,3.535,3.5368,3.6827,3.738,3.693,3.7653,3.7753,3.7147,3.666,3.6443,3.6443,3.7043,3.7326,3.7358,3.7437,3.728,3.6836,3.6836,3.6604,3.6252,3.6371,3.6297,3.6118,3.5876,3.6335,3.708,0.0,0.0,0.0,0.0,0.0,0.0,0.0,0.0,0.0,0.0,0.0,0.0,0.0,0.0,0.0,0.0,0.0,0.0,1.218,1.3026,1.3876,1.4758,1.6347,1.831,2.0654,2.3447,2.5608,2.7077,2.7732,2.7138,2.5347,2.3222,2.1325,1.9574,1.825,1.715,1.6371,1.6346,1.6352,1.6386,1.6339,1.6477,0.0,0.0,0.0,0.0,0.0,0.0,0.0,0.0,2.1005,2.1711,2.2478,2.3012,2.3528,2.431,2.4457,2.4552,2.5435,2.5564,2.5773,2.7018,2.8308,2.926,2.9227,2.9367,2.9729,3.0403,3.0558,3.08,3.1426,3.195,3.2319,3.2214,3.2526,3.2801,3.2782,3.325,3.36,3.371,3.3468,3.3314,3.3421,3.3668,3.3862,3.3916,3.4499,3.4907,3.4907,3.583,3.6452,3.6487,3.824,3.8975,3.8517,3.9279,3.9426,3.8941,3.8099,3.7702,3.7677,3.8334,3.8615,3.8661,3.8707,3.8457,3.8007,3.8007,3.7704,3.7221,3.7161,3.7115,3.7091,3.6957,3.7418,3.8078,0.0,0.0,0.0,0.0,0.0,0.0,0.0,0.0,0.0,0.0,0.0,0.0,0.0,0.0,0.0,0.0,0.0,0.0,1.218,1.3026,1.3668,1.4072,1.6,1.7812,1.9351,2.1832,2.4581,2.7678,2.705,2.5945,2.4258,2.2426,2.0781,1.9293,1.8679,1.7983,1.7194,1.679,1.6849,1.7189,1.6772,1.6759,1.701,0.0,0.0,0.0,0.0,0.0,0.0,0.0,2.0487,2.1245,2.2057,2.3323,2.4625,2.5465,2.5221,2.4902,2.5857,2.5631,2.5539,2.7183,2.8207,2.9238,3.0861,3.1741,3.2249,3.2388,3.2439,3.2507,3.2507,3.2556,3.2556,3.244,3.2406,3.2354,3.2143,3.2179,3.2214,3.2214,3.3002,3.3511,3.3512,3.4287,3.4799,3.4799,3.4995,3.5118,3.5118,3.6058,3.6661,3.671,3.8468,3.9472,3.9601,3.98,3.9994,4.0111,3.942,3.9007,3.8788,3.8862,3.895,3.8984,3.8984,3.9027,3.9082,3.9082,3.9082,3.9022,3.8308,3.8,3.7938,3.7206,3.7418,3.8128,0.0,0.0,0.0,0.0,0.0,0.0,0.0,0.0,0.0,0.0,0.0,0.0,0.0,0.0,0.0,0.0,0.0,0.0,1.2526,1.2866,1.3384,1.4072,1.5178,1.6647,1.8522,2.1161,2.3825,2.643,2.5512,2.4559,2.3629,2.2066,2.1103,2.0761,2.0439,1.973,1.8785,1.839,1.8141,1.8005,1.755,1.7518,1.7719,0.0,0.0,0.0,0.0,0.0,0.0,0.0,0.0,0.0,2.2118,2.285,2.359,2.5438,2.5876,2.5967,2.6894,2.7467,2.7887,2.8508,2.9601,3.0712,3.127,3.1454,3.1687,3.2351,3.2591,3.2707,3.2707,3.2724,3.2901,3.3366,3.3421,3.337,3.33,3.3794,3.397,3.3388,3.4041,3.4553,3.4553,3.535,3.5864,3.5864,3.6506,3.697,3.7058,3.7428,3.7708,3.7828,3.9028,3.9707,3.98,4.0624,4.1073,4.1141,4.1083,4.0388,3.9092,3.9212,3.9266,3.9293,3.9293,3.9307,3.932,3.932,3.932,3.9296,3.9114,3.9039,3.9052,3.89,3.9011,3.9236,0.0,0.0,0.0,0.0,0.0,0.0,0.0,0.0,0.0,0.0,1.344,1.3127,0.0,0.0,0.0,0.0,0.0,0.0,1.2727,1.2903,1.3307,1.3999,1.4714,1.6086,1.8192,1.9955,2.1599,2.3117,2.3246,2.3157,2.2898,2.1778,2.1383,2.1613,2.1257,2.0548,1.9594,1.8923,1.8544,1.8407,1.795,1.7873,1.8036,0.0,0.0,0.0,0.0,0.0,0.0,0.0,0.0,0.0,2.1823,2.2527,2.3223,2.5614,2.6109,2.6147,2.747,2.8191,2.8759,2.9479,3.0548,3.1614,3.2301,3.2129,3.2063,3.2891,3.3235,3.3437,3.3758,3.3862,3.4005,3.442,3.4457,3.4423,3.4389,3.4799,3.4941,3.4443,3.5066,3.5563,3.5563,3.6328,3.6899,3.6934,3.7505,3.7933,3.8055,3.8171,3.8303,3.8453,3.9662,4.0393,4.0582,4.1511,4.2106,4.2238,4.2006,4.1373,4.036,4.0424,4.0437,4.0437,4.0437,4.045,4.0476,4.0476,4.0502,4.054,4.0603,4.0614,4.0577,4.037,4.0291,4.0254,0.0,0.0,0.0,0.0,0.0,0.0,0.0,0.0,0.0,1.2884,1.2816,1.2651,0.0,0.0,0.0,1.2419,1.2621,1.2762,1.2833,1.3007,1.3343,1.3889,1.4651,1.6026,1.8077,1.8403,1.8608,1.8673,2.0565,2.169,2.2007,2.1535,2.1576,2.2084,2.1499,2.0735,1.9833,1.8754,1.8393,1.8545,1.8095,1.8033,1.8122,1.7547,0.0,0.0,0.0,0.0,0.0,0.0,0.0,0.0,2.1045,2.2009,2.3092,2.5567,2.5833,2.5746,2.7627,2.8243,2.8699,3.029,3.1225,3.2161,3.3621,3.3459,3.3174,3.3906,3.4233,3.4578,3.5297,3.5506,3.5522,3.5565,3.5548,3.5498,3.5466,3.5485,3.5521,3.5449,3.6112,3.6559,3.6559,3.7291,3.781,3.7934,3.807,3.8204,3.834,3.8385,3.8512,3.8704,4.0205,4.1209,4.1609,4.2404,4.2969,4.3297,4.2524,4.2216,4.2334,4.2119,4.2018,4.2018,4.2018,4.207,4.2134,4.2134,4.2172,4.2208,4.2281,4.2316,4.2252,4.1601,4.1282,4.113,0.0,0.0,0.0,0.0,0.0,0.0,0.0,0.0,1.3529,1.3235,1.305,1.2859,1.2597,1.2437,0.0,1.2685,1.2791,1.292,1.3025,1.3129,1.3448,1.4036,1.5184,1.6072,1.6728,1.7189,1.7295,1.7006,1.8492,1.9698,2.0709,2.1004,2.1772,2.2849,2.2511,2.1714,2.0588,1.9527,1.9152,1.9217,1.8272,1.829,1.8755,1.7781,1.7086,0.0,0.0,0.0,0.0,0.0,0.0,0.0,1.8934,1.9798,2.0943,2.3389,2.4417,2.5296,2.7691,2.9264,3.0492,3.1613,3.2509,3.3298,3.4114,3.43,3.4455,3.5042,3.5367,3.5597,3.5742,3.5794,3.6028,3.6612,3.6709,3.666,3.6644,3.7133,3.7277,3.6716,3.7277,3.773,3.773,3.7995,3.8191,3.8207,3.8287,3.8417,3.8596,3.8627,3.8704,3.8833,3.9867,4.0785,4.1571,4.2485,4.3347,4.4135,4.4059,4.4038,4.4027,4.2697,4.2121,4.2172,4.2172,4.2221,4.2245,4.2245,4.2293,4.2351,4.242,4.2476,4.2531,4.2432,4.1978,4.1398,0.0,0.0,0.0,0.0,0.0,0.0,0.0,0.0,1.3222,1.3107,1.3028,1.2908,1.2804,1.2685,0.0,0.0,1.299,1.3042,1.3129,1.3181,1.3627,1.4525,1.528,1.5912,1.6435,1.6342,1.6224,1.6117,1.6973,1.819,1.9749,2.0645,2.1512,2.2317,2.1923,2.1053,1.9826,1.8758,1.8377,1.8453,1.8038,1.8152,1.8496,1.7334,1.6553,1.6049,1.5514,0.0,0.0,0.0,0.0,0.0,0.0,0.0,2.0356,2.2361,2.356,2.4716,2.6898,2.8965,3.0919,3.2634,3.3662,3.4438,3.5126,3.5681,3.6221,3.6885,3.6739,3.6625,3.7041,3.7114,3.7223,3.7644,3.7685,3.7669,3.7669,3.798,3.8089,3.7742,3.8016,3.8234,3.8234,3.832,3.8352,3.8385,3.8481,3.8611,3.875,3.881,3.9099,3.96,4.0465,4.137,4.2379,4.3278,4.3976,4.4496,4.4632,4.4751,4.4814,4.3844,4.3429,4.3491,4.3491,4.3552,4.3634,4.3634,4.3692,4.3781,4.3846,4.3927,4.3881,4.3541,4.3159,4.2679,0.0,0.0,0.0,0.0,0.0,0.0,0.0,0.0,0.0,1.2913,1.2913,1.2913,1.2948,1.2931,1.299,0.0,0.0,0.0,1.3198,1.3315,1.3821,1.4904,1.5177,1.5578,1.6159,1.5591,1.5291,1.5262,1.5811,1.6974,1.8691,2.0225,2.1125,2.1485,2.0949,1.9977,1.8744,1.7624,1.7252,1.7384,1.7543,1.7791,1.796,1.6755,1.6075,1.5663,1.5175,1.5034,1.5145,1.5876,0.0,0.0,0.0,0.0,2.002,2.1499,2.2642,2.3858,2.5795,2.836,3.1041,3.3215,3.4347,3.5182,3.608,3.6838,3.7595,3.8536,3.8031,3.7682,3.8339,3.8449,3.8449,3.8449,3.8449,3.8449,3.8449,3.8449,3.8449,3.8449,3.8449,3.8449,3.8449,3.8465,3.8512,3.8575,3.8689,3.878,3.8848,3.8964,3.9486,4.0416,4.1306,4.224,4.3226,4.412,4.4565,4.4632,4.4789,4.4936,4.5148,4.496,4.4912,4.4986,4.496,4.5019,4.517,4.5143,4.5246,4.535,4.5428,4.5409,4.5352,4.4716,4.4367,4.403,0.0,0.0,0.0,0.0,0.0,0.0,0.0,0.0,0.0,0.0,1.2965,1.2965,1.3146,1.3112,1.3094,1.3181,1.3181,1.3181,1.3198,0.0,0.0,1.4326,1.5001,1.5066,1.4359,1.4718,1.4432,1.3527,1.4936,1.6052,1.6986,1.9431,2.0902,2.1485,2.0949,1.9977,1.8727,1.753,1.712,1.7295,1.6894,1.7303,1.7967,1.6825,1.6483,1.655,1.6104,1.5605,1.5226,1.5454,1.5619,0.0,0.0,0.0,1.8471,1.9425,2.081,2.2493,2.4957,2.8571,3.1924,3.2868,3.377,3.4785,3.6239,3.6602,3.7026,3.8479,3.8609,3.8548,3.8658,3.8658,3.8658,3.8658,3.8658,3.8658,3.8658,3.8658,3.8658,3.8658,3.8658,3.8658,3.8658,3.8719,3.8743,3.8743,3.8877,3.8979,3.9078,3.9147,3.9629,4.0648,4.1501,4.2406,4.3337,4.4231,4.4712,4.4789,4.4974,4.5121,4.5253,4.5321,4.5281,4.5235,4.525,4.5301,4.5371,4.541,4.5505,4.5559,4.5559,4.5586,4.5552,4.5525,4.5063,4.4329,0.0,0.0,0.0,0.0,0.0,0.0,0.0,0.0,0.0,0.0,0.0,1.3207,1.3318,1.3215,1.3163,1.3198,1.2973,1.2695,1.244,1.2659,1.3021,1.3453,1.3575,1.3645,1.3769,1.3806,1.3657,1.3248,1.4449,1.5595,1.6648,1.8974,2.0203,2.0482,2.024,1.939,1.8137,1.7317,1.6817,1.6653,1.7009,1.7585,1.8183,1.7825,1.7659,1.7511,1.7008,1.646,1.5986,1.6138,1.6547,1.7039,1.7085,0.0,0.0,0.0,2.0292,2.1848,2.4889,2.7811,3.0363,3.2062,3.3471,3.4829,3.641,3.705,3.7572,3.8699,3.887,3.8795,3.8704,3.8689,3.8689,3.8689,3.8689,3.8689,3.8689,3.8689,3.8704,3.875,3.8765,3.878,3.881,3.8818,3.8862,3.8906,3.9007,3.9092,3.9137,3.9285,3.9776,4.074,4.1669,4.2586,4.3517,4.4448,4.4984,4.5154,4.526,4.5381,4.5464,4.5547,4.5521,4.5467,4.5475,4.553,4.5573,4.5616,4.5665,4.5704,4.5704,4.5712,4.5734,4.5771,4.5582,4.5112,0.0,0.0,0.0,0.0,0.0,0.0,0.0,0.0,0.0,0.0,0.0,1.3429,1.3412,0.0,0.0,0.0,1.2585,1.2198,1.1855,1.1829,1.2109,1.2661,1.2448,1.2573,1.3174,1.3007,1.2918,1.286,1.3954,1.5131,1.6427,1.831,1.9378,1.9726,1.9887,1.9121,1.7669,1.7089,1.6561,1.62,1.72,1.8024,1.868,1.9152,1.9269,1.9161,1.8815,1.8063,1.7285,1.743,1.7702,1.7949,1.7987,1.8632,0.0,0.0,0.0,2.1501,2.4256,2.6343,2.835,3.0612,3.2562,3.4371,3.6196,3.7131,3.7907,3.8813,3.8964,3.8877,3.8765,3.8735,3.8719,3.8689,3.8689,3.8689,3.8719,3.8719,3.875,3.8803,3.8833,3.8862,3.8906,3.895,3.8993,3.905,3.9124,3.9219,3.9259,3.9452,3.9977,4.0879,4.164,4.2541,4.3675,4.469,4.5291,4.5448,4.5521,4.5599,4.5634,4.5712,4.5704,4.5695,4.568,4.5704,4.5734,4.574,4.5768,4.5834,4.5834,4.5834,4.5841,4.588,4.5911,4.5708,0.0,0.0,0.0,0.0,0.0,0.0,0.0,0.0,0.0,0.0,0.0,1.3564,1.3497,1.2986,1.2622,1.2622,1.2127,1.1855,1.1903,1.1903,1.1962,1.2134,1.2437,0.0,1.1999,1.2322,1.2246,1.1682,1.3153,1.4543,1.5874,1.7206,1.851,1.981,2.0397,1.9552,1.7669,1.6995,1.6487,1.62,1.72,1.8377,1.9637,2.0755,2.1482,2.1927,2.2164,2.0889,1.907,1.928,1.8427,1.7241,1.7264,1.7868,1.8584,0.0,0.0,0.0,2.2242,2.4286,2.6551,2.8243,3.0471,3.2835,3.5207,3.6383,3.738,3.8813,3.905,3.8964,3.8892,3.8818,3.8795,3.8704,3.8689,3.8719,3.881,3.8773,3.8803,3.8877,3.8935,3.8979,3.8979,3.912,3.9202,3.9202,3.9363,3.9489,3.9489,3.9611,4.0143,4.1128,4.1244,4.2112,4.3948,4.4968,4.5491,4.5509,4.5634,4.5718,4.58,4.5873,4.5906,4.5893,4.5861,4.5886,4.5893,4.5886,4.5905,4.5905,4.5905,4.5905,4.5911,4.5975,4.5997,4.5774,0.0,0.0,0.0,0.0,0.0,0.0,0.0,0.0,0.0,0.0,0.0,0.0,0.0,1.3559,1.3298,1.2901,1.2064,1.1413,1.1149,1.1084,1.1123,1.1252,1.1406,1.1513,1.1508,1.178,1.1847,1.1659,1.3088,1.4274,1.5229,1.7435,1.8731,1.9248,1.984,1.9268,1.7876,1.7649,1.7304,1.7076,1.8491,2.0202,2.2022,2.3136,2.3977,2.4504,2.4306,2.317,2.1811,2.195,2.1304,2.0371,1.9869,1.9912,2.0069,1.9565,1.9908,2.0573,2.1387,2.2608,2.4202,2.6371,2.8347,3.0575,3.3495,3.5184,3.6558,3.815,3.8856,3.9239,3.912,3.8935,3.8773,3.878,3.878,3.878,3.8788,3.8862,3.895,3.9036,3.9106,3.9161,3.9253,3.9307,3.936,3.9399,3.9477,3.9551,3.9635,3.9823,4.0068,4.0487,4.1103,4.2364,4.4252,4.5194,4.5696,4.5764,4.5827,4.5822,4.5874,4.595,4.5968,4.598,4.6008,4.5997,4.5962,4.5958,4.598,4.6035,4.6035,4.6046,4.6027,4.606,4.5732,4.5126,0.0,0.0,0.0,0.0,0.0,0.0,0.0,0.0,1.4365,1.4305,0.0,0.0,0.0,0.0,1.3505,1.2699,1.1979,1.1342,1.083,1.0755,1.0767,1.0899,1.097,1.1123,1.133,1.1534,1.1678,1.1725,1.3184,1.4244,1.491,1.7227,1.8443,1.867,1.9095,1.8838,1.8003,1.7806,1.7638,1.7619,1.9049,2.1128,2.3454,2.4548,2.576,2.6766,2.629,2.542,2.4505,2.4354,2.3608,2.2614,2.1803,2.1166,2.0643,2.0098,1.9974,2.011,2.0645,2.1379,2.2445,2.4294,2.622,2.8451,3.1417,3.3543,3.5394,3.6981,3.8215,3.8937,3.8859,3.8892,3.8921,3.8862,3.8862,3.8862,3.8892,3.8993,3.9106,3.9188,3.9256,3.9346,3.9412,3.9464,3.9514,3.9577,3.9649,3.9728,3.984,3.9989,4.0129,4.0221,4.1481,4.2765,4.4035,4.524,4.5874,4.5932,4.5929,4.5941,4.5941,4.6014,4.6025,4.603,4.6081,4.6076,4.603,4.6017,4.6042,4.6104,4.6104,4.6117,4.6103,4.5807,4.5358,4.4754,0.0,0.0,0.0,0.0,0.0,0.0,0.0,0.0,1.4683,1.4533,0.0,0.0,0.0,0.0,0.0,1.2108,1.1942,1.1661,1.1085,1.0958,1.0982,1.1111,1.1181,1.1273,1.1399,1.1593,1.1736,1.1831,1.335,1.4435,1.5044,1.6506,1.7531,1.8161,1.8223,1.8161,1.7991,1.7439,1.7427,1.7831,1.8786,2.0979,2.381,2.4906,2.6777,2.8688,2.8169,2.7698,2.719,2.6487,2.5187,2.3669,2.2754,2.1327,2.0018,2.0012,2.0005,1.9982,0.0,0.0,0.0,2.2086,2.4105,2.658,2.9035,3.1541,3.3773,3.533,3.7004,3.8191,3.8115,3.871,3.9175,3.9036,3.9007,3.9021,3.9069,3.9151,3.9256,3.9386,3.9451,3.9527,3.9527,3.9639,3.971,3.9705,3.9911,4.001,4.012,4.0223,4.0364,4.0492,4.2317,4.3273,4.3298,4.5076,4.5997,4.5997,4.5986,4.6002,4.6002,4.6071,4.6081,4.6085,4.6091,4.6087,4.6085,4.6108,4.6091,4.6111,4.6111,4.6126,4.6105,4.5222,4.4886,4.4629,0.0,0.0,0.0,0.0,0.0,1.5427,1.5007,1.5301,1.5394,0.0,0.0,0.0,1.5289,1.4955,1.4626,1.4386,1.3078,1.2174,1.2019,1.1506,1.1215,1.125,1.1307,1.1421,1.1538,1.1736,1.216,1.2812,1.3752,1.4615,1.5291,1.6244,1.6787,1.6974,1.7082,1.6858,1.6391,1.7166,1.7993,1.8875,1.9867,2.2343,2.5472,2.612,2.8105,3.0442,3.0049,2.9935,2.995,2.9867,2.8753,2.692,2.4252,2.2255,2.083,2.0221,2.005,2.0065,2.0025,0.0,0.0,0.0,0.0,0.0,2.661,2.9861,3.277,3.38,3.6313,3.8264,3.824,3.8902,3.9399,3.936,3.9229,3.9161,3.9151,3.9296,3.9451,3.9477,3.9589,3.9662,3.9708,3.9754,3.9811,3.9922,4.001,4.0139,4.0239,4.0454,4.0622,4.072,4.1883,4.2782,4.3369,4.4533,4.5403,4.5991,4.6056,4.6071,4.6071,4.6074,4.6091,4.6095,4.6134,4.6154,4.6154,4.6173,4.6173,4.6151,4.6164,4.6178,4.6116,4.5275,4.458,4.3881,0.0,0.0,1.5377,1.5503,1.6301,1.6754,1.6137,1.6568,1.6692,0.0,0.0,0.0,1.6412,1.625,1.591,1.5447,1.4129,1.309,1.2514,1.1815,1.1433,1.1415,1.1449,1.1549,1.1714,1.1908,1.2312,1.2873,1.4007,1.4569,1.466,1.58,1.613,1.5814,1.5894,1.5755,1.5482,1.6586,1.7604,1.8595,2.023,2.2685,2.5485,2.6921,2.9096,3.1372,3.1257,3.1618,3.2079,3.1906,3.0259,2.7851,2.5165,2.2924,2.1226,2.0726,2.0355,2.0055,2.0015,2.0005,2.0098,2.0486,0.0,0.0,2.4625,2.7387,3.0039,3.1523,3.3928,3.5871,3.6197,3.6914,3.7565,3.794,3.7904,3.8177,3.916,3.9451,3.9552,3.9576,3.9649,3.9731,3.9818,3.9884,3.9989,4.012,4.0203,4.0334,4.0484,4.0675,4.0798,4.0854,4.1717,4.2441,4.2907,4.4166,4.503,4.5512,4.5915,4.609,4.6113,4.6146,4.613,4.6148,4.622,4.6238,4.6249,4.624,4.6238,4.6201,4.5857,4.5709,4.5563,4.436,4.3581,4.3035,0.0,0.0,1.6314,1.6588,1.768,1.8332,1.7806,1.8231,1.8373,0.0,1.768,1.7726,1.7735,1.7735,1.722,1.5935,1.5151,1.4175,1.2812,1.2082,1.1682,1.1615,1.1637,1.1725,1.1938,1.2128,1.2354,1.2579,1.4068,1.4454,1.3812,1.5319,1.5558,1.4744,1.4962,1.4984,1.4895,1.6011,1.683,1.7609,2.0213,2.2591,2.4901,2.7471,2.982,3.1795,3.2072,3.2891,3.3704,3.2974,3.0624,2.7712,2.604,2.375,2.1695,2.1575,2.089,2.0124,2.0136,2.0055,2.0007,1.9941,2.0649,0.0,2.3156,2.491,2.6841,2.8993,3.0866,3.2277,3.3016,3.3805,3.4642,3.5495,3.5645,3.6524,3.9015,3.9427,3.9501,3.9674,3.9708,3.9773,3.9905,4.006,4.0176,4.0326,4.0454,4.0622,4.0781,4.0881,4.0907,4.0907,4.1636,4.2116,4.2194,4.3743,4.4613,4.4793,4.558,4.6035,4.6119,4.618,4.6209,4.6197,4.6257,4.6308,4.6315,4.6281,4.6319,4.6196,4.5337,4.4989,4.4799,4.3041,4.2415,4.2298,1.5856,1.6153,1.6657,1.7878,1.8709,1.9181,1.9128,1.9623,1.98,1.9169,1.9505,1.9671,1.923,1.917,1.8671,1.7411,1.6219,1.498,1.3591,1.285,1.2256,1.1711,1.1779,1.1929,1.2128,1.233,1.2824,1.3624,1.4047,1.4478,1.4905,1.5263,1.5052,1.4384,1.5635,1.5241,1.3795,1.6444,1.7461,1.7507,2.0477,2.3658,2.6787,2.8239,3.0427,3.2776,3.3101,3.3789,3.4491,3.3793,3.2238,3.0297,2.8615,2.6318,2.4126,2.3429,2.217,2.095,2.0971,2.0473,2.0,1.9974,2.1117,0.0,2.2652,2.5002,2.7282,2.7766,2.9691,3.1346,3.1459,3.2184,3.2984,3.3744,3.3915,3.5034,3.81,3.8551,3.8825,3.9609,3.9766,3.9873,4.012,4.0203,4.0334,4.0537,4.0675,4.0765,4.0886,4.0883,4.0898,4.0898,4.1058,4.149,4.2194,4.2544,4.3408,4.4793,4.5027,4.5496,4.6196,4.6236,4.6296,4.6267,4.6276,4.6282,4.6286,4.6286,4.6284,4.6203,4.5347,4.4997,4.4802,4.3046,4.2382,4.2262,1.5736,1.6444,1.7322,1.8416,1.9682,2.0563,2.0593,2.1129,2.1337,2.0682,2.0899,2.0998,2.0832,2.0501,1.9918,1.8929,1.7347,1.5959,1.4923,1.39,1.322,1.2912,1.3065,1.3078,1.2895,1.3119,1.3316,1.3493,1.3989,1.4255,1.4274,1.4699,1.4704,1.443,1.5209,1.5218,1.4741,1.6713,1.7949,1.8757,2.1059,2.3682,2.6449,2.8767,3.1068,3.325,3.4256,3.5004,3.5332,3.4622,3.2987,3.1048,2.9802,2.7673,2.5545,2.51,2.3822,2.2509,2.2498,2.1923,2.1308,2.1314,2.164,0.0,0.0,2.3545,2.4651,2.5442,2.6569,2.738,2.7339,2.7662,2.819,2.8981,2.9489,3.0959,3.4247,3.6109,3.7487,3.8428,3.8639,3.8955,3.9635,3.9407,3.9266,3.9423,3.9934,4.0252,4.0301,4.0665,4.0907,4.0907,4.0907,4.1102,4.1529,4.2,4.2679,4.3566,4.446,4.5166,4.5604,4.6097,4.6309,4.6282,4.6284,4.6287,4.6289,4.582,4.5663,4.5584,4.4687,4.4335,4.414,4.2422,4.1796,4.1676,1.5594,1.6674,1.7855,1.8745,2.0348,2.1605,2.1844,2.2343,2.2574,2.2174,2.2214,2.2253,2.225,2.1782,2.1142,2.032,1.866,1.7303,1.6479,1.5211,1.4424,1.4406,1.4437,1.4286,1.3898,1.4017,1.3823,1.3353,1.3923,1.3893,1.3346,1.4176,1.4671,1.4871,1.5352,1.5863,1.6474,1.7699,1.8947,2.0325,2.1934,2.393,2.6303,2.9474,3.1946,3.3926,3.5499,3.6083,3.5983,3.5201,3.341,3.1295,3.0476,2.8647,2.6768,2.6799,2.5495,2.4085,2.4249,2.3482,2.2673,2.2826,2.2245,2.1852,0.0,0.0,0.0,2.3307,2.356,2.3423,2.3183,2.3156,2.3414,2.4221,2.4953,2.6525,2.9729,3.2486,3.4831,3.6717,3.6901,3.738,3.86,3.8201,3.7947,3.8069,3.8913,3.9509,3.9699,4.048,4.0907,4.0907,4.0907,4.0907,4.0907,4.1607,4.2062,4.2338,4.3728,4.452,4.4768,4.5638,4.6042,4.6054,4.6249,4.6289,4.625,4.5547,4.5156,4.4883,4.3867,4.3437,4.3281,4.1758,4.1171,4.1087,1.635,1.7079,1.8021,1.9361,2.0258,2.1216,2.2403,2.2643,2.2966,2.3637,2.3802,2.3662,2.32,2.3078,2.2563,2.1355,2.0426,1.9378,1.813,1.6842,1.5941,1.5462,1.5002,1.482,1.4928,1.45,1.426,1.4243,1.3768,1.3497,1.3505,1.4366,1.5159,1.5929,1.8084,1.8738,1.8348,2.0732,2.1534,2.1384,2.3242,2.5846,2.8887,3.0946,3.3299,3.563,3.6656,3.6621,3.5883,3.5073,3.3677,3.2126,3.1336,2.9845,2.8427,2.8493,2.6822,2.5112,2.5885,2.4492,2.2934,2.3669,2.3256,2.2658,2.2752,0.0,2.2661,2.2782,0.0,2.256,2.1711,0.0,0.0,2.2646,2.2878,2.3902,2.6484,2.7227,2.9414,3.466,3.4721,3.5031,3.6825,3.7079,3.7167,3.7247,3.8033,3.8887,3.966,4.048,4.0907,4.0907,4.0907,4.0907,4.0907,4.0985,4.1479,4.2299,4.2496,4.3053,4.3879,4.4753,4.5152,4.5195,4.5976,4.6289,4.6289,4.6172,4.5703,4.4844,4.3203,4.2539,4.2422,4.1523,4.1171,4.1087,1.601,1.659,1.7381,1.8356,1.942,2.0456,2.1443,2.2345,2.3285,2.4225,2.4792,2.5134,2.5044,2.5012,2.4792,2.4232,2.2771,2.1464,2.0524,1.926,1.8119,1.7159,1.7432,1.7101,1.5998,1.5832,1.5358,1.4524,1.3837,1.3528,1.3576,1.3958,1.482,1.6141,1.8087,1.9583,2.0746,2.245,2.3898,2.5137,2.614,2.8521,3.1458,3.1331,3.3473,3.6738,3.8051,3.7699,3.6521,3.6182,3.4384,3.2213,3.1919,3.1113,3.0198,2.9737,2.8887,2.8101,2.7983,2.6528,2.5101,2.5433,2.4181,2.285,2.2795,2.2047,2.1334,2.1261,0.0,0.0,0.0,0.0,0.0,0.0,2.0088,2.0995,2.2527,2.2778,2.4792,3.0151,3.0522,3.0887,3.226,3.3863,3.4628,3.4183,3.6323,3.78,3.8188,3.9897,4.0907,4.0907,4.0907,4.0907,4.0907,4.0907,4.1125,4.156,4.2071,4.2512,4.2985,4.3856,4.4255,4.4297,4.5156,4.5547,4.5547,4.5547,4.5312,4.4844,4.3086,4.2383,4.2305,4.1484,4.1171,4.109,1.5725,1.6234,1.683,1.7324,1.842,1.9569,2.077,2.2236,2.3679,2.4912,2.5681,2.6286,2.674,2.67,2.6659,2.6659,2.5042,2.3743,2.3077,2.1666,2.0362,1.9298,1.9604,1.9059,1.7365,1.702,1.6238,1.4975,1.4057,1.3616,1.3628,1.371,1.4669,1.6527,1.834,2.0569,2.2961,2.4482,2.6285,2.8095,2.865,3.076,3.3488,3.3024,3.4705,3.7565,3.8901,3.8452,3.7169,3.6708,3.4873,3.2716,3.2392,3.2007,3.1607,3.1047,3.0771,3.0567,3.0213,2.8742,2.73,2.7285,2.5226,2.312,2.2851,2.1645,2.0591,2.0553,2.0656,0.0,0.0,0.0,1.8926,1.8377,0.0,1.885,1.9718,1.9658,2.1225,2.5788,2.6809,2.7536,2.8534,3.0568,3.1763,3.1658,3.4381,3.6362,3.7061,3.9315,4.0674,4.0907,4.0907,4.0912,4.0917,4.0917,4.0943,4.0991,4.165,4.2008,4.209,4.2958,4.3357,4.3398,4.4531,4.5,4.5039,4.5273,4.5234,4.4883,4.3594,4.2969,4.2656,4.1836,4.1484,4.1481,1.5996,1.6367,1.6711,1.6711,1.7373,1.862,2.0926,2.258,2.4241,2.6027,2.6489,2.703,2.7932,2.7938,2.7845,2.7845,2.7075,2.6308,2.5723,2.3818,2.246,2.1917,2.0784,1.9838,1.9121,1.7731,1.6634,1.5849,1.4406,1.371,1.3705,1.3778,1.504,1.736,1.983,2.2265,2.4694,2.7405,2.8688,2.9044,3.0156,3.2152,3.4697,3.7079,3.8016,3.8152,3.884,3.8521,3.7525,3.5882,3.4847,3.402,3.264,3.2316,3.2509,3.2592,3.2063,3.1666,3.2544,3.0957,2.9021,2.9033,2.6456,2.3722,2.2896,2.2076,2.1439,2.1398,2.1975,2.225,2.1384,2.0515,0.0,0.0,0.0,0.0,0.0,0.0,0.0,0.0,0.0,2.5858,2.6784,2.7708,2.8932,3.0613,3.24,3.4497,3.6984,3.8771,4.0092,4.0869,4.0907,4.0921,4.0987,4.0987,4.1015,4.099,4.1087,4.1122,4.1158,4.2023,4.2458,4.2539,4.4258,4.5,4.5078,4.5898,4.5742,4.5,4.4922,4.4414,4.3553,4.2695,4.2342,4.2493,1.6297,1.6278,1.6347,1.6244,1.7197,1.8956,2.1851,2.293,2.4214,2.6477,2.7374,2.8193,2.9137,2.9523,2.9761,2.9761,2.9032,2.8075,2.7002,2.5949,2.4718,2.321,2.3337,2.2643,2.0963,1.9922,1.851,1.6748,1.527,1.4282,1.3778,1.3824,1.4851,1.6738,1.9166,2.2232,2.5709,2.8446,3.0931,3.3189,3.4921,3.6086,3.6895,3.7816,3.8051,3.8082,3.8725,3.8034,3.6722,3.6141,3.4833,3.3345,3.2932,3.2974,3.324,3.3333,3.3614,3.3961,3.4366,3.3001,3.1359,3.0771,2.8083,2.5346,2.4448,2.316,2.2299,2.2814,2.3132,2.3233,2.2924,0.0,0.0,0.0,0.0,0.0,0.0,0.0,0.0,0.0,0.0,0.0,0.0,0.0,2.6854,2.8035,3.1347,3.4148,3.6125,3.8456,4.0053,4.0869,4.0926,4.0978,4.0987,4.1015,4.1002,4.099,4.1067,4.1097,4.1119,4.1401,4.1561,4.1719,4.3398,4.414,4.4257,4.5702,4.6131,4.5817,4.5231,4.4801,4.4449,4.3592,4.3279,4.3312,1.6822,1.6687,1.6541,1.6141,1.73,1.9279,2.2226,2.3357,2.4777,2.7288,2.8386,2.9273,3.0199,3.063,3.0892,3.0892,3.0436,2.9671,2.8596,2.8014,2.7023,2.5518,2.5545,2.4669,2.2735,2.1627,1.9985,1.7654,1.6422,1.5275,1.4216,1.4289,1.489,1.5996,1.8725,2.2067,2.5865,2.9162,3.234,3.5319,3.7277,3.8,3.7944,3.8201,3.8206,3.8219,3.8589,3.7816,3.6597,3.6288,3.5091,3.371,3.3569,3.388,3.4383,3.451,3.541,3.6358,3.645,3.5429,3.4162,3.3307,3.0556,2.7754,2.6543,2.5187,2.4257,2.4506,2.4816,2.4905,2.4596,2.4344,0.0,0.0,0.0,0.0,0.0,1.5779,0.0,0.0,0.0,0.0,0.0,0.0,2.568,2.7132,3.0718,3.3565,3.5236,3.7804,3.9639,4.0455,4.0839,4.1011,4.1019,4.1016,4.1045,4.1025,4.1094,4.1112,4.1085,4.109,4.1288,4.1719,4.3086,4.3866,4.4256,4.5699,4.6282,4.624,4.5652,4.5415,4.5336,4.4484,4.4325,4.4585,1.7604,1.7604,1.7391,1.66,1.7718,1.959,2.2167,2.3932,2.587,2.8394,2.9446,3.0316,3.1176,3.1312,3.1312,3.1331,3.1342,3.1117,3.0512,2.9919,2.9297,2.8698,2.7397,2.5981,2.4554,2.2974,2.1006,1.8688,1.7791,1.6563,1.5,1.5074,1.509,1.5247,1.8503,2.1806,2.5235,2.9576,3.293,3.5571,3.735,3.7968,3.7877,3.8382,3.8585,3.8569,3.8428,3.7854,3.6999,3.627,3.5579,3.4957,3.4402,3.4979,3.5822,3.6093,3.736,3.8683,3.8758,3.8191,3.7358,3.6487,3.3828,3.0973,2.9284,2.821,2.7363,2.6577,2.7069,2.7365,2.6458,2.5669,2.4618,0.0,0.0,0.0,0.0,0.0,0.0,0.0,0.0,0.0,0.0,0.0,0.0,0.0,0.0,0.0,0.0,3.6931,3.8766,3.9664,4.0563,4.1016,4.0994,4.1064,4.109,4.1109,4.1116,4.1124,4.117,4.117,4.164,4.25,4.3397,4.4217,4.5075,4.5925,4.6311,4.627,4.6223,4.6212,4.6089,4.5327,4.5551,4.6181,1.8736,1.9059,1.961,2.0011,2.0393,2.1323,2.326,2.5029,2.684,2.8682,3.0168,3.137,3.2173,3.2753,3.3154,3.32,3.2706,3.2166,3.156,3.0907,3.0246,2.9612,2.9308,2.8739,2.7736,2.563,2.3383,2.1112,1.9134,1.7098,1.5,1.5074,1.5129,1.5305,1.8036,2.1085,2.449,2.9439,3.4066,3.8136,3.8526,3.8545,3.8419,3.8434,3.8433,3.8352,3.8356,3.743,3.6209,3.6171,3.5275,3.4308,3.492,3.5367,3.6119,3.8039,3.8973,3.9708,4.095,4.0698,3.9868,3.8999,3.7176,3.5193,3.3521,3.2457,3.1609,3.0753,3.0791,3.0526,2.9057,2.818,2.6722,0.0,0.0,0.0,0.0,0.0,0.0,0.0,0.0,0.0,0.0,0.0,0.0,0.0,0.0,0.0,3.4443,3.6394,3.8124,3.9668,4.0545,4.1039,4.1064,4.109,4.1106,4.1116,4.1087,4.1442,4.2068,4.207,4.2539,4.3397,4.4293,4.4795,4.5058,4.59,4.6236,4.6226,4.6212,4.6154,4.6105,4.5942,4.5972,4.613,1.9462,2.009,2.1193,2.2639,2.3276,2.3918,2.4896,2.6504,2.8267,2.994,3.1298,3.2368,3.3162,3.3682,3.3982,3.4027,3.374,3.342,3.3046,3.2387,3.1899,3.1581,3.0964,3.0274,2.953,2.7571,2.5244,2.2576,2.0544,1.8174,1.5548,1.5298,1.499,1.4823,1.7391,2.0336,2.3856,3.0404,3.5198,3.8483,3.8722,3.8713,0.0,3.8428,3.8401,3.8385,3.8465,3.7661,3.6602,3.678,3.6026,3.5175,3.5773,3.6596,3.7617,3.9064,4.0353,4.1481,4.2409,4.2347,4.1908,4.1406,4.0001,3.8409,3.7145,3.6156,3.5206,3.402,3.3518,3.2702,3.0668,2.9406,2.7486,2.3828,0.0,0.0,0.0,0.0,0.0,0.0,0.0,0.0,0.0,0.0,0.0,0.0,0.0,0.0,0.0,3.5447,3.7378,3.912,4.0396,4.1042,4.1097,4.1115,4.1084,4.1086,4.1482,4.1913,4.242,4.3202,4.4022,4.4875,4.5729,4.6302,4.6672,4.7114,4.7051,4.6683,4.6314,4.6138,4.6083,4.6146,4.6142,4.6083,2.0415,2.1197,2.254,2.4657,2.606,2.6956,2.711,2.8434,2.9958,3.1654,3.264,3.3436,3.4189,3.4406,3.4534,3.4554,3.4619,3.4644,3.4662,3.4036,3.3687,3.3829,3.2401,3.1357,3.0796,2.906,2.6734,2.3768,2.1879,1.9391,1.6443,1.5617,1.4837,1.4217,1.676,2.0007,2.4119,3.1752,3.5998,3.764,3.8374,3.859,3.8476,3.8465,3.846,3.8554,3.8685,3.8221,3.7537,3.7624,3.7198,3.6689,3.6941,3.815,3.9475,3.9864,4.1565,4.3332,4.3444,4.3444,4.3444,4.3444,4.2355,4.1079,4.0265,3.9502,3.8488,3.6723,3.5862,3.4607,3.1968,3.0032,2.7549,2.3722,2.2479,0.0,0.0,0.0,0.0,0.0,0.0,0.0,0.0,0.0,0.0,0.0,0.0,0.0,0.0,0.0,3.659,3.8449,4.0196,4.1111,4.1117,4.1087,4.1169,4.1287,4.2031,4.2577,4.2966,4.4489,4.5695,4.6659,4.735,4.8072,4.8788,4.8709,4.8171,4.7294,4.6424,4.6095,4.6076,4.6076,4.6076,4.6076,2.3063,2.3819,2.4812,2.5928,2.7982,2.9705,3.0488,3.0975,3.162,3.2647,3.4094,3.5094,3.5233,3.5844,3.6287,3.6332,3.5813,3.5521,3.5563,3.488,3.4532,3.4623,3.3741,3.3281,3.3273,3.0518,2.818,2.6346,2.2783,1.9793,1.7335,1.5944,1.4874,1.4304,1.6798,2.1616,2.8086,3.2237,3.5278,3.7403,3.823,3.8507,3.8491,3.8538,3.8698,3.8848,3.897,3.8423,3.7687,3.7867,3.7389,3.7031,3.8475,3.9188,3.9901,4.1948,4.2902,4.3444,4.412,4.4294,4.4294,4.4294,4.4069,4.3618,4.2844,4.2543,4.1755,3.9439,3.8848,3.7815,3.472,3.1278,2.8221,2.615,2.5132,2.4591,0.0,0.0,0.0,0.0,0.0,2.4034,0.0,0.0,0.0,0.0,0.0,0.0,0.0,0.0,3.5972,3.8422,4.0192,4.1104,4.1117,4.1081,4.1474,4.2181,4.2338,4.3549,4.5618,4.5925,4.6895,4.8369,4.8454,4.8578,4.8709,4.8651,4.8098,4.7222,4.6362,4.6012,4.6007,4.6007,4.6007,4.6007,2.5078,2.5914,2.6872,2.8086,2.9724,3.1257,3.2539,3.3283,3.3836,3.4349,3.5087,3.5774,3.6217,3.6621,3.6886,3.6891,3.6576,3.6404,3.6408,3.5763,3.5433,3.5562,3.4907,3.4618,3.4836,3.2527,3.0177,2.7818,2.4192,2.0803,1.7677,1.6079,1.5167,1.4993,1.9106,2.3868,2.9028,3.2662,3.5344,3.7171,3.8099,3.8507,3.8569,3.8737,3.9209,3.9737,3.9876,3.989,3.9811,3.9456,3.9098,3.9038,4.0285,4.1063,4.1715,4.2902,4.3567,4.4008,4.4369,4.4482,4.4482,4.4482,4.4482,4.4407,4.4008,4.3933,4.3345,4.1318,4.0578,3.9078,3.5021,3.2378,3.0302,2.8734,2.8174,2.7951,0.0,0.0,0.0,0.0,0.0,0.0,0.0,0.0,0.0,0.0,0.0,0.0,0.0,0.0,3.5115,3.7722,3.906,3.9971,4.0412,4.0879,4.1544,4.2406,4.3732,4.5018,4.6303,4.7619,4.866,4.946,4.9854,5.0014,4.9936,4.8992,4.8338,4.7822,4.6502,4.6002,4.6002,4.6002,4.6002,4.6079,2.6892,2.7825,2.8829,3.0243,3.1504,3.2842,3.4263,3.5367,3.5998,3.5918,3.5957,3.626,3.6935,3.6989,3.6989,3.7009,3.7009,3.7029,3.7048,3.6562,3.6375,3.6577,3.597,3.5727,3.5957,3.4372,3.2076,2.9132,2.5815,2.2283,1.8566,1.6804,1.6233,1.6912,2.2189,2.6283,2.9424,3.327,3.567,3.7047,3.8068,3.8554,3.8713,3.9164,3.983,4.0578,4.0886,4.1376,4.1849,4.1346,4.1111,4.1113,4.1938,4.2691,4.3332,4.3482,4.4008,4.4482,4.4482,4.4482,4.4482,4.4482,4.4482,4.4482,4.451,4.4397,4.3861,4.2435,4.1278,3.9304,3.5343,3.3955,3.2967,3.1576,3.1412,3.1474,3.1493,0.0,0.0,0.0,0.0,0.0,0.0,0.0,0.0,0.0,0.0,0.0,2.8835,3.154,3.4213,3.6855,3.7765,3.8828,4.0044,4.0746,4.1798,4.324,4.523,4.6472,4.7086,4.91,5.0091,5.0299,5.0975,5.1249,5.1042,4.931,4.8599,4.8444,4.6701,4.6002,4.6002,4.6002,4.6118,4.6385,2.8834,2.9728,3.0607,3.1506,3.3517,3.5347,3.6281,3.7205,3.751,3.6791,3.6786,3.69,3.6989,3.6989,3.7029,3.7106,3.7071,3.7145,3.7241,3.7265,3.7341,3.747,3.6896,3.6653,3.687,3.5354,3.3393,3.0961,2.7717,2.4465,2.1198,1.8851,1.8899,2.1125,2.5177,2.8391,3.098,3.4186,3.6114,3.7144,3.8136,3.8667,3.8966,3.9988,4.048,4.0787,4.1603,4.1916,4.2104,4.283,4.253,4.2029,4.2905,4.3219,4.3444,4.4158,4.4444,4.4482,4.4482,4.4482,4.4482,4.4482,4.4482,4.4496,4.4578,4.4014,4.3263,4.2447,4.0533,3.8667,3.7471,3.6646,3.5836,3.4955,3.4948,3.5033,3.5083,0.0,3.5183,0.0,0.0,0.0,0.0,2.8653,0.0,0.0,0.0,0.0,0.0,3.0322,3.3337,3.5958,3.6869,3.8472,4.0844,4.0961,4.2637,4.5829,4.6105,4.743,4.9652,4.9901,5.0434,5.1174,5.1201,5.1197,5.1047,4.9337,4.8599,4.8444,4.6701,4.6002,4.6002,4.6002,4.6502,4.7317,3.211,3.2967,3.3805,3.4588,3.5953,3.7079,3.7434,3.8216,3.8684,3.843,3.7646,3.7087,3.7164,3.7106,3.7106,3.7203,3.7222,3.726,3.7354,3.7503,3.7667,3.7845,3.8165,3.8444,3.8676,3.7984,3.6498,3.421,3.089,2.7654,2.4501,2.2072,2.2209,2.4699,2.9049,3.1813,3.3408,3.6021,3.7426,3.7947,3.8459,3.9128,3.9791,4.0347,4.1258,4.2329,4.2643,4.3106,4.3543,4.3895,4.3482,4.2994,4.4346,4.4721,4.4909,4.5772,4.5622,4.5209,4.5209,4.4871,4.4482,4.4482,4.4158,4.3796,4.3864,4.3263,4.2461,4.1775,4.0555,3.9385,3.8594,3.8244,3.7808,3.7026,3.7004,3.7083,3.7145,3.724,0.0,0.0,0.0,0.0,0.0,0.0,0.0,0.0,0.0,0.0,0.0,2.9644,3.2418,3.5039,3.5988,3.7631,4.0198,4.126,4.3013,4.5457,4.6972,4.821,4.9253,5.0281,5.0918,5.1253,5.1192,5.1214,5.1047,4.9337,4.891,4.9227,4.7473,4.7084,4.755,4.755,4.7784,4.8211,3.4905,3.5699,3.6457,3.7015,3.802,3.8727,3.8727,3.9266,3.9743,3.9888,3.8781,3.7881,3.7668,3.7325,3.7184,3.7298,3.7317,3.7373,3.754,3.7739,3.7879,3.8087,3.8749,3.9319,3.9792,3.9719,3.8674,3.6589,3.3968,3.1051,2.7892,2.646,2.6811,2.8902,3.3076,3.5402,3.6337,3.8211,3.9114,3.9255,3.9473,4.0052,4.0774,4.1176,4.2173,4.3332,4.3557,4.4008,4.4482,4.4482,4.412,4.3895,4.5284,4.5697,4.5885,4.6749,4.6373,4.5697,4.5697,4.5097,4.4444,4.4233,4.3707,4.3246,4.31,4.2448,4.1678,4.1027,4.0576,4.0081,3.9506,3.9478,3.9322,3.8808,3.8824,3.8987,3.9319,3.9176,0.0,3.7773,3.7476,3.5935,3.24,3.2361,0.0,0.0,0.0,0.0,0.0,2.9709,3.2283,3.486,3.5587,3.7387,4.0425,4.1682,4.3431,4.5679,4.7454,4.8564,4.9095,5.0547,5.1186,5.1202,5.1202,5.1202,5.1086,4.9609,4.9343,4.9771,4.825,4.8055,4.8599,4.8599,4.8755,4.9066,3.6741,3.7471,3.8093,3.8073,3.9392,4.0467,4.0467,4.0553,4.0644,4.0851,4.0337,3.9608,3.8593,3.7662,3.7167,3.7392,3.7411,3.754,3.7864,3.8036,3.8171,3.829,3.8433,3.893,3.9772,3.9852,3.9093,3.7492,3.6633,3.4541,3.136,3.2206,3.3053,3.4026,3.7147,3.904,3.9895,4.0643,4.1038,4.1162,4.1369,4.1571,4.1791,4.2791,4.3226,4.3407,4.4195,4.4482,4.4482,4.4482,4.4482,4.4632,4.5435,4.5697,4.5885,4.6749,4.6373,4.5697,4.5697,4.5097,4.4294,4.352,4.3294,4.3109,4.2373,4.1654,4.095,4.0358,4.0298,4.0407,4.0368,4.0452,4.0477,4.0477,4.057,4.0977,4.1904,4.1374,4.1184,4.2034,4.1374,4.0169,3.8464,3.7528,0.0,0.0,0.0,0.0,0.0,3.0555,3.3135,3.5698,3.5856,3.7936,4.2217,4.2295,4.4004,4.7388,4.7417,4.8292,4.9925,5.0786,5.1202,5.1202,5.1202,5.1202,5.1125,5.0231,4.9887,4.9809,4.891,4.8599,4.8599,4.8599,4.9143,4.9887,3.9189,3.9568,3.9884,4.0411,4.0902,4.1297,4.1384,4.1406,4.1499,4.1813,4.1196,4.0685,4.0513,3.9163,3.8341,3.8527,3.7989,3.7739,3.8036,3.8154,3.8287,3.8433,3.9045,3.9532,3.9868,4.0948,4.1038,3.9937,3.9129,3.7412,3.482,3.6251,3.7068,3.7451,4.0025,4.1093,4.0972,4.173,4.181,4.1482,4.1586,4.2052,4.2754,4.3095,4.3563,4.4158,4.4407,4.4482,4.4482,4.4482,4.4482,4.4745,4.6148,4.6599,4.6861,4.8288,4.7687,4.6599,4.6599,4.5585,4.4444,4.4195,4.3284,4.246,4.2284,4.1347,4.0433,4.0291,4.036,4.0458,4.0458,4.0531,4.0569,4.0619,4.0707,4.0897,4.1219,4.1067,4.0587,3.9708,3.9358,3.8538,3.6789,3.6923,0.0,0.0,0.0,0.0,0.0,3.149,3.4068,3.6677,3.7918,4.0037,4.315,4.3785,4.4913,4.6576,4.7171,4.834,4.9925,5.0809,5.1181,5.1202,5.1202,5.1202,5.1125,5.027,5.0231,5.0697,4.9843,4.9843,5.0386,5.0386,5.0542,5.0775,4.0797,4.0902,4.1042,4.1534,4.1648,4.1692,4.178,4.1909,4.21,4.2389,4.206,4.1854,4.2064,4.0816,3.9859,3.9571,3.8744,3.8365,3.8606,3.8485,3.8433,3.8575,3.9088,3.9543,3.99,4.1185,4.1642,4.1144,4.0678,3.974,3.8381,3.969,4.0363,4.0496,4.2205,4.2781,4.24,4.2912,4.2916,4.256,4.2677,4.3076,4.3648,4.3662,4.4041,4.4482,4.4482,4.4482,4.4482,4.4482,4.4482,4.4782,4.6486,4.6786,4.6824,4.8514,4.8063,4.6936,4.6599,4.5561,4.4448,4.4161,4.3376,4.2548,4.2071,4.1061,4.0271,4.0342,4.0458,4.0515,4.0531,4.06,4.0633,4.0688,4.0763,4.0981,4.1329,4.1121,4.0635,3.9902,3.9552,3.8931,3.7851,3.8256,3.7732,3.5726,0.0,0.0,3.2625,3.3907,3.5972,3.8592,4.006,4.1868,4.4094,4.4684,4.5384,4.6267,4.7398,4.8483,4.9484,5.0675,5.1203,5.122,5.1208,5.1202,5.1163,5.0619,5.0697,5.1163,5.0581,5.0736,5.1202,5.1202,5.1202,5.1202,4.1604,4.1604,4.1604,4.1604,4.1714,4.1801,4.1823,4.21,4.2389,4.2589,4.2768,4.3012,4.3196,4.2504,4.1597,4.0599,3.977,3.937,3.9579,3.9017,3.8742,3.8857,3.8872,3.9239,3.9974,4.0781,4.127,4.1404,4.1535,4.1659,4.1809,4.2492,4.2872,4.3029,4.3683,4.3986,4.3986,4.4169,4.4199,4.4214,4.434,4.4397,4.4411,4.4468,4.4482,4.4482,4.4482,4.4482,4.4482,4.4482,4.4482,4.4782,4.6411,4.6336,4.6035,4.7687,4.7575,4.6749,4.5923,4.5153,4.4417,4.3678,4.358,4.3208,4.1757,4.0893,4.0419,4.0504,4.0484,4.0531,4.06,4.0633,4.0694,4.0694,4.0809,4.1174,4.1999,4.1398,4.1179,4.1961,4.1301,4.0844,4.0904,4.0913,3.9964,3.7717,3.9026,3.928,3.7899,3.7765,3.8853,4.1283,4.2158,4.3419,4.5143,4.5103,4.5527,4.6417,4.7963,4.8737,4.8868,5.0461,5.1214,5.1208,5.1214,5.1202,5.1202,5.1202,5.1202,5.1202,5.1202,5.1202,5.1202,5.1202,5.1202,5.1202,4.1604,4.1604,4.1626,4.1736,4.178,4.1888,4.2142,4.2292,4.2494,4.2787,4.2956,4.3068,4.3196,4.3014,4.2796,4.2541,4.1179,4.0432,4.062,4.0487,4.0427,4.0545,4.0508,4.0618,4.0802,4.1654,4.2468,4.3241,4.3336,4.3429,4.352,4.3744,4.3855,4.3886,4.3958,4.3986,4.4002,4.4192,4.4289,4.4304,4.4411,4.4468,4.4468,4.4482,4.4482,4.4482,4.4482,4.4482,4.4482,4.4482,4.4482,4.467,4.5697,4.5885,4.6035,4.7687,4.7162,4.5975,4.5806,4.5194,4.4581,4.4473,4.4154,4.3422,4.1838,4.1435,4.1187,4.0636,4.0546,4.06,4.0607,4.0654,4.0732,4.0763,4.0865,4.099,4.1165,4.1019,4.0752,4.0325,4.011,4.0006,4.0014,4.0057,4.0361,4.1036,4.0923,4.1493,4.3099,4.3147,4.3424,4.4045,4.4284,4.5225,4.6984,4.6319,4.6392,4.7235,4.8279,4.9109,4.9715,5.078,5.1249,5.1208,5.1214,5.1202,5.1202,5.1202,5.1202,5.1202,5.1202,5.1202,5.1202,5.1202,5.1202,5.1202,4.1793,4.1793,4.1837,4.1931,4.1995,4.2121,4.2409,4.2534,4.2729,4.2995,4.3142,4.3269,4.334,4.3358,4.3358,4.3358,4.2137,4.1426,4.1528,4.1232,4.1062,4.1095,4.1095,4.1111,4.116,4.1944,4.2901,4.3945,4.4085,4.4162,4.4207,4.4214,4.4169,4.4101,4.4008,4.3961,4.3976,4.4147,4.4237,4.4333,4.4463,4.4482,4.4482,4.4482,4.4482,4.4482,4.4482,4.4482,4.4482,4.4482,4.4482,4.4632,4.5435,4.5435,4.5397,4.6674,4.6411,4.5637,4.5331,4.4985,4.4751,4.4986,4.4511,4.3769,4.2967,4.2551,4.2189,4.1775,4.1716,4.174,4.1777,4.1551,4.1356,4.1435,4.113,4.0888,4.0907,4.0907,4.0752,4.0286,4.058,4.0839,4.0898,4.1289,4.1752,4.2283,4.2664,4.3499,4.4911,4.5777,4.6208,4.6205,4.6558,4.7223,4.8162,4.7731,4.7727,4.8146,4.8992,4.9633,5.0059,5.0867,5.1215,5.1185,5.1181,5.1202,5.1202,5.1202,5.1202,5.1202,5.1202,5.1202,5.1202,5.1202,5.1208,5.1186,4.203,4.203,4.2072,4.2142,4.2267,4.2409,4.2629,4.2806,4.2995,4.3214,4.3322,4.3465,4.3497,4.3515,4.3515,4.3515,4.2805,4.2387,4.2387,4.1796,4.1462,4.1462,4.1462,4.1475,4.1572,4.2267,4.3098,4.4039,4.4192,4.4304,4.4318,4.4214,4.4101,4.3986,4.3913,4.3881,4.3913,4.4033,4.4192,4.4333,4.4463,4.4482,4.4482,4.4482,4.4482,4.4482,4.4482,4.4482,4.4482,4.4482,4.4482,4.4632,4.5284,4.5059,4.4632,4.5322,4.551,4.5388,4.4794,4.4764,4.4962,4.5224,4.4794,4.4298,4.4305,4.3717,4.3167,4.3115,4.3126,4.315,4.3185,4.268,4.2282,4.2221,4.1592,4.1102,4.1102,4.1106,4.1145,4.1262,4.1954,4.2498,4.2684,4.3374,4.3646,4.3216,4.4555,4.5501,4.578,4.7187,4.8047,4.8163,4.8632,4.8906,4.8906,4.8905,4.8942,4.9093,4.9774,5.014,5.0319,5.0945,5.1211,5.1201,5.1186,5.1202,5.1202,5.1202,5.1202,5.1202,5.1202,5.1202,5.1202,5.1208,5.1186,5.1214,4.2225,4.2246,4.2267,4.2333,4.247,4.2629,4.2806,4.3013,4.3214,4.3359,4.3428,4.3497,4.3515,4.3515,4.3515,4.3515,4.3387,4.3297,4.3297,4.3204,4.313,4.313,4.313,4.3164,4.3212,4.3509,4.3833,4.4169,4.4199,4.4244,4.4318,4.4116,4.4039,4.3971,4.3849,4.3869,4.3913,4.4033,4.4192,4.4333,4.4463,4.4482,4.4482,4.4482,4.4482,4.4482,4.4482,4.4482,4.4482,4.4482,4.4482,4.4519,4.4632,4.4594,4.4519,4.4632,4.4725,4.4756,4.4775,4.4998,4.5224,4.5277,4.5275,4.5111,4.4438,4.4205,4.3923,4.3239,4.315,4.3188,4.3192,4.3202,4.2964,4.2299,4.2097,4.2,4.2,4.2019,4.2265,4.3,4.3288,4.3676,4.4426,4.467,4.532,4.6614,4.7022,4.7849,4.9295,4.9648,5.0117,5.0781,4.957,4.8906,4.8906,4.8905,4.9254,4.9913,5.0055,5.0457,5.1119,5.123,5.1259,5.1214,5.122,5.1202,5.1202,5.1202,5.1202,5.1202,5.1202,5.1202,5.1202,5.1192,5.1208,5.1219,4.253,4.2609,4.2668,4.2765,4.2823,4.2918,4.3142,4.3251,4.3322,4.3428,4.348,4.3515,4.3515,4.3515,4.3515,4.3515,4.3515,4.3515,4.3515,4.3515,4.3515,4.3515,4.3515,4.3787,4.4328,4.4992,4.5122,4.4755,4.4802,4.4578,4.407,4.3992,4.3897,4.3763,4.382,4.382,4.3869,4.4017,4.4192,4.4333,4.4463,4.4482,4.4482,4.4482,4.4482,4.4482,4.4482,4.4482,4.4482,4.4482,4.4482,4.4482,4.4482,4.4482,4.4594,4.5021,4.4903,4.4699,4.4877,4.5103,4.5298,4.536,4.5467,4.5444,4.5098,4.5,4.4902,4.4581,4.4522,4.4708,4.5258,4.466,4.4139,4.4228,4.3505,4.3049,4.353,4.3583,4.3912,4.4794,4.5379,4.5845,4.6262,4.6757,4.7361,4.8193,4.8707,4.9335,5.0156,5.0625,5.1016,5.1406,5.0664,5.0234,5.0234,5.0233,5.0424,5.0801,5.0742,5.0946,5.1292,5.1278,5.1234,5.1208,5.1214,5.1202,5.1202,5.1202,5.1214,5.1186,5.1186,5.1197,5.1214,5.1245,5.1536,5.191,4.3112,4.3046,4.3012,4.3123,4.316,4.3215,4.3376,4.3412,4.3428,4.3497,4.3515,4.3515,4.3515,4.3515,4.3515,4.3515,4.3515,4.3515,4.3515,4.3515,4.3515,4.3515,4.3515,4.3894,4.4657,4.5436,4.5519,4.4851,4.4989,4.4623,4.3865,4.3832,4.3767,4.3651,4.3701,4.3804,4.3869,4.424,4.4356,4.4348,4.4665,4.467,4.4482,4.4482,4.4632,4.4782,4.4782,4.4895,4.5082,4.5082,4.5082,4.5082,4.5082,4.5082,4.5209,4.5839,4.5673,4.5343,4.5544,4.573,4.592,4.5994,4.609,4.6154,4.6163,4.6172,4.618,4.6271,4.6282,4.6546,4.7344,4.6429,4.5741,4.6224,4.5225,4.4652,4.5298,4.5433,4.5732,4.6586,4.7359,4.7897,4.8086,4.8724,4.9206,4.9451,5.0116,5.0468,5.0469,5.1055,5.1406,5.1406,5.1406,5.1406,5.1405,5.1402,5.1395,5.1414,5.1341,5.1307,5.1312,5.1245,5.1208,5.1197,5.1214,5.1202,5.1202,5.1202,5.1181,5.1214,5.1214,5.119,5.122,5.1287,5.1706,5.22,4.4176,4.3633,4.3196,4.3196,4.3323,4.3376,4.3394,4.3445,4.3497,4.3515,4.3515,4.3515,4.3515,4.3515,4.3515,4.3515,4.3515,4.3515,4.3515,4.3515,4.3515,4.3515,4.3566,4.3617,4.3708,4.3919,4.3968,4.3894,4.3894,4.3894,4.3804,4.3684,4.3684,4.3788,4.3667,4.373,4.4045,4.4935,4.4946,4.4472,4.5293,4.5172,4.4482,4.4482,4.497,4.5622,4.5622,4.6148,4.6824,4.6824,4.6824,4.6824,4.6824,4.6824,4.6838,4.6963,4.7051,4.7161,4.7364,4.7507,4.763,4.7795,4.7827,4.7838,4.7885,4.7932,4.7951,4.8004,4.8081,4.816,4.828,4.8315,4.806,4.7351,4.7149,4.7131,4.7208,4.7271,4.7618,4.8397,4.861,4.9031,4.9813,5.0029,5.0427,5.117,5.1289,5.1328,5.1328,5.1367,5.1406,5.1406,5.1406,5.1405,5.1405,5.139,5.1416,5.1414,5.132,5.1312,5.1291,5.124,5.1197,5.1202,5.1202,5.1202,5.1202,5.1202,5.1181,5.1214,5.1214,5.1245,5.1291,5.1308,5.1342,5.1414,4.4527,4.4273,4.3979,4.3466,4.3428,4.3463,4.3463,4.348,4.3515,4.3515,4.3515,4.3515,4.3515,4.3515,4.3515,4.3515,4.3515,4.3515,4.3515,4.3515,4.3515,4.3515,4.4009,4.4338,4.4407,4.4957,4.4974,4.4495,4.4495,4.4166,4.36,4.3566,4.3894,4.4495,4.4506,4.4897,4.56,4.6125,4.6158,4.5971,4.6382,4.6336,4.6073,4.6073,4.6261,4.6561,4.7087,4.7462,4.7725,4.7725,4.7755,4.7724,4.7197,4.709,4.7259,4.7913,4.8486,4.8945,4.9149,4.851,4.7777,4.7977,4.8009,4.802,4.8068,4.8114,4.8197,4.8235,4.833,4.8561,4.9162,4.889,4.8681,4.8866,4.8471,4.8341,4.8944,4.9032,4.939,5.028,5.0384,5.0523,5.0851,5.0934,5.1053,5.1367,5.1406,5.1406,5.1406,5.1406,5.1406,5.1406,5.1403,5.14,5.1397,5.1418,5.1391,5.1323,5.1269,5.1225,5.124,5.1203,5.1214,5.1202,5.1202,5.1202,5.1202,5.1186,5.0897,5.0461,5.0451,5.0178,4.9825,5.036,5.0889,5.1375,4.5443,4.5187,4.4819,4.4011,4.3864,4.3791,4.3551,4.3515,4.3515,4.3515,4.3515,4.3515,4.3515,4.3515,4.3515,4.3515,4.3718,4.3864,4.3864,4.3864,4.3754,4.3515,4.4011,4.4377,4.4481,4.5033,4.5033,4.4481,4.4481,4.4135,4.3515,4.3515,4.386,4.4569,4.4922,4.5514,4.6238,4.6965,4.7132,4.6975,4.7245,4.7237,4.7012,4.7012,4.735,4.7875,4.8401,4.8927,4.9377,4.9377,4.9251,4.901,4.846,4.8169,4.818,4.892,4.9555,5.0025,5.02,4.9408,4.8602,4.8743,4.8815,4.8837,4.8903,4.8949,4.9003,4.9103,4.9158,4.941,5.0093,4.9768,4.9625,5.0192,4.9798,4.9635,5.033,5.0416,5.0696,5.1321,5.1416,5.1391,5.1404,5.1405,5.1406,5.1406,5.1406,5.1523,5.1797,5.1797,5.1797,5.1795,5.1556,5.1391,5.1377,5.1357,5.1366,5.132,5.1225,5.119,5.1208,5.1214,5.1202,5.1202,5.1202,5.1202,5.1202,5.1197,5.0879,5.0407,5.0408,5.0063,4.9674,5.0276,5.0876,5.1396,4.7016,4.6396,4.5663,4.4856,4.4709,4.4452,4.3644,4.3515,4.3515,4.3515,4.3515,4.3515,4.3515,4.3515,4.3515,4.3515,4.4268,4.4709,4.4709,4.4691,4.4342,4.3551,4.3515,4.3549,4.3617,4.3617,4.3617,4.3617,4.3617,4.3583,4.3515,4.3515,4.36,4.3841,4.4733,4.5244,4.5626,4.7348,4.7687,4.7087,4.7913,4.7725,4.7049,4.7049,4.8063,4.9527,4.9527,5.0579,5.1931,5.1931,5.1415,5.0816,5.0816,5.0378,4.992,5.005,5.0139,5.0224,5.0379,5.0401,5.0424,5.0489,5.0542,5.0604,5.0673,5.0701,5.0738,5.0874,5.0937,5.1034,5.1102,5.1139,5.1202,5.1202,5.1214,5.122,5.1287,5.1342,5.1386,5.1412,5.139,5.14,5.1404,5.1406,5.1406,5.1406,5.1406,5.1797,5.2656,5.2695,5.2695,5.2694,5.1866,5.1377,5.1297,5.1281,5.1303,5.1316,5.1249,5.1208,5.1208,5.1214,5.1202,5.1202,5.1202,5.1202,5.1202,5.1197,5.1245,5.1291,5.1273,5.1327,5.1375,5.1375,5.1393,5.1405,4.7166,4.6874,4.6489,4.57,4.5553,4.5443,4.5223,4.5186,4.5186,4.5186,4.5186,4.5186,4.5186,4.5186,4.5186,4.5186,4.5406,4.5553,4.5553,4.5002,4.4616,4.4429,4.3877,4.36,4.3617,4.3684,4.3754,4.3754,4.3651,4.36,4.3583,4.3583,4.3979,4.4753,4.5695,4.6579,4.7423,4.8587,4.8949,4.8814,4.964,4.979,4.964,5.0241,5.0767,5.1255,5.1855,5.2397,5.2811,5.2811,5.2704,5.2447,5.1476,5.0627,4.9999,5.0175,5.0236,5.0283,5.0446,5.05,5.0532,5.0553,5.0612,5.0604,5.0673,5.0756,5.0872,5.0968,5.1002,5.1102,5.1139,5.1196,5.1208,5.1192,5.1185,5.1225,5.1304,5.1362,5.1401,5.1384,5.1398,5.1404,5.1406,5.1406,5.1406,5.1406,5.1953,5.2695,5.3555,5.3046,5.2694,5.269,5.1857,5.1364,5.1281,5.1289,5.1291,5.1245,5.1203,5.1214,5.1214,5.1202,5.1202,5.1202,5.1202,5.1202,5.1202,5.1219,5.087,5.0399,5.042,5.0111,4.9667,5.0303,5.0544,5.0742,4.8103,4.7829,4.7406,4.6948,4.6581,4.6287,4.5957,4.5883,4.5883,4.5883,4.5883,4.5883,4.5883,4.5883,4.5883,4.5883,4.6177,4.6526,4.6893,4.6158,4.5641,4.5395,4.4983,4.4626,4.433,4.4378,4.4596,4.4893,4.4761,4.464,4.4643,4.4591,4.4969,4.5704,4.6631,4.7463,4.8166,4.9459,4.9978,5.0053,5.0842,5.118,5.1217,5.1705,5.2118,5.2494,5.2998,5.3412,5.3658,5.3658,5.3322,5.2681,5.1275,5.0443,5.0063,5.0298,5.0367,5.0412,5.0511,5.0573,5.0653,5.0653,5.0653,5.0644,5.071,5.0829,5.0913,5.1012,5.1075,5.1127,5.1196,5.1202,5.1208,5.1186,5.1185,5.1225,5.1273,5.1362,5.1401,5.1387,5.1398,5.1404,5.1406,5.1406,5.1523,5.1875,5.2383,5.3086,5.3945,5.3163,5.2847,5.3188,5.2353,5.2049,5.2302,5.1953,5.1566,5.1208,5.122,5.1202,5.1202,5.1202,5.1202,5.1202,5.1202,5.1208,5.1186,5.1245,5.0936,5.0505,5.0606,5.0285,4.9949,5.0856,5.1171,5.1367,4.9463,4.9003,4.8526,4.8526,4.792,4.7149,4.6361,4.6214,4.6214,4.6104,4.6104,4.6122,4.6122,4.6122,4.614,4.614,4.682,4.7591,4.8476,4.7758,4.7073,4.6487,4.6573,4.6349,4.5708,4.5587,4.5907,4.6632,4.6422,4.6288,4.6239,4.6152,4.6294,4.6529,4.7425,4.7927,4.8234,4.9962,5.0707,5.0782,5.1668,5.1968,5.1931,5.2006,5.2456,5.3074,5.3186,5.3675,5.4313,5.433,5.3376,5.1979,5.0631,5.0228,5.0228,5.0344,5.0473,5.0615,5.0602,5.0624,5.0702,5.0712,5.0712,5.0702,5.0794,5.0855,5.0967,5.1073,5.1095,5.1127,5.1196,5.1196,5.1196,5.1202,5.1208,5.122,5.1273,5.1353,5.1389,5.1385,5.1394,5.14,5.1404,5.1406,5.1758,5.2617,5.2695,5.3086,5.3944,5.3162,5.3117,5.3949,5.3155,5.3,5.3692,5.2894,5.209,5.1325,5.1214,5.1202,5.1202,5.1202,5.1202,5.1202,5.1202,5.1186,5.1214,5.1273,5.132,5.132,5.1364,5.1465,5.1595,5.242,5.2734,5.293,4.9574,4.9958,5.0251,5.0251,5.0105,4.9738,4.8913,4.8802,4.8545,4.7865,4.7849,4.7942,4.7942,4.7979,4.7997,4.7997,4.8181,4.8403,4.8715,4.7993,4.7559,4.7548,4.7086,4.7154,4.7829,4.7055,4.6727,4.6915,4.6647,4.6487,4.6426,4.6409,4.6459,4.6627,4.7607,4.8106,4.8273,4.9978,5.0707,5.082,5.2322,5.2494,5.1968,5.2644,5.2606,5.2285,5.3026,5.3381,5.3548,5.3638,5.3074,5.2128,5.1288,5.1038,5.0963,5.0477,5.0803,5.1232,5.0734,5.0632,5.0614,5.0702,5.0693,5.0701,5.0764,5.0905,5.0998,5.1087,5.1147,5.119,5.1196,5.1145,5.1145,5.1192,5.1153,5.118,5.1269,5.1303,5.1336,5.1375,5.1387,5.1396,5.1404,5.1406,5.1758,5.2617,5.2695,5.3086,5.3944,5.3157,5.3066,5.3896,5.3078,5.268,5.2777,5.2591,5.2369,5.2146,5.1513,5.1202,5.1202,5.1202,5.1202,5.1202,5.1192,5.1203,5.1219,5.1287,5.13,5.1297,5.1375,5.1826,5.2459,5.2617,5.3125,5.3828,5.0675,5.0765,5.0912,5.1316,5.1059,5.0655,5.0251,4.9867,4.9446,4.9025,4.8678,4.8532,4.8624,4.9011,4.9454,4.9916,4.9953,4.997,5.0112,4.9368,4.887,4.8761,4.8445,4.8428,4.8681,4.8537,4.8428,4.8352,4.8077,4.7906,4.7863,4.8153,4.8373,4.8562,4.9444,4.9899,5.0053,5.1346,5.163,5.1367,5.2698,5.2682,5.1968,5.243,5.2317,5.2033,5.2611,5.2839,5.281,5.2469,5.2082,5.1618,5.0868,5.0629,5.0656,5.071,5.1103,5.1455,5.1146,5.1107,5.1104,5.0798,5.0758,5.0812,5.0846,5.0937,5.102,5.1075,5.1166,5.1196,5.1145,5.1114,5.1063,5.1139,5.1101,5.1136,5.122,5.1265,5.1303,5.1344,5.1367,5.1387,5.1404,5.1405,5.1757,5.2617,5.2304,5.2459,5.3314,5.2565,5.2431,5.325,5.282,5.2771,5.3135,5.2691,5.2475,5.2407,5.1591,5.1202,5.1202,5.1202,5.1202,5.1202,5.1197,5.1224,5.1254,5.1277,5.1323,5.1399,5.1856,5.2298,5.2811,5.3633,5.4492,5.5312,5.1867,5.1573,5.1426,5.2087,5.1646,5.1169,5.1022,5.0455,4.9963,4.9766,4.9177,4.8864,4.9045,4.9785,5.0618,5.1377,5.1452,5.1503,5.1639,5.102,5.0531,5.0174,5.0237,5.0033,4.9542,5.0253,5.0342,4.9862,4.9581,4.9505,4.9562,5.011,5.0522,5.0825,5.1516,5.1882,5.1984,5.2677,5.2602,5.2017,5.2731,5.2505,5.1753,5.1795,5.1735,5.1653,5.2008,5.2262,5.2295,5.1437,5.1158,5.0992,5.0158,4.9993,5.022,5.0781,5.1281,5.1586,5.1606,5.1705,5.1642,5.1049,5.0889,5.0897,5.0905,5.0968,5.1041,5.1095,5.1133,5.1145,5.1108,5.103,5.1002,5.1087,5.1075,5.1127,5.1153,5.1249,5.1295,5.1303,5.1341,5.1416,5.1401,5.1403,5.1716,5.242,5.1794,5.1713,5.2446,5.1777,5.1757,5.2554,5.2606,5.2913,5.3536,5.2836,5.2397,5.2173,5.1513,5.1202,5.1202,5.1202,5.1202,5.1202,5.1197,5.124,5.1287,5.1296,5.1417,5.1687,5.2409,5.2886,5.3358,5.4922,5.5976,5.6601,5.1977,5.2454,5.2931,5.3041,5.2968,5.2637,5.194,5.1785,5.1276,4.9971,4.9824,4.995,5.0073,5.0905,5.1533,5.1663,5.1663,5.1731,5.186,5.1829,5.1873,5.2011,5.2151,5.222,5.2196,5.2396,5.1698,5.0076,4.9862,5.0017,5.0597,5.0616,5.1003,5.1628,5.1807,5.1963,5.2096,5.214,5.215,5.219,5.2303,5.1797,5.1043,5.1095,5.0709,5.0208,5.112,5.1936,5.246,5.1688,5.137,5.1098,5.0172,5.0331,5.0743,5.022,5.1174,5.2218,5.1724,5.1683,5.1785,5.1769,5.1304,5.0906,5.0983,5.1048,5.1095,5.1114,5.1095,5.1102,5.1034,5.0944,5.0929,5.1005,5.102,5.1023,5.1119,5.1159,5.1249,5.1277,5.1344,5.1414,5.138,5.1394,5.1438,5.1555,5.1477,5.1436,5.1585,5.1453,5.1773,5.2571,5.2528,5.2557,5.2607,5.2451,5.2063,5.1358,5.1241,5.1202,5.1202,5.1202,5.1202,5.1202,5.1197,5.1229,5.122,5.1289,5.1762,5.2535,5.2641,5.3628,5.5076,5.6054,5.6484,5.6601,5.2674,5.2968,5.3203,5.3203,5.3203,5.3099,5.2757,5.2377,5.1925,5.1435,5.1027,5.0911,5.1119,5.1969,5.2731,5.3181,5.3232,5.3316,5.3483,5.3104,5.299,5.3214,5.2867,5.2692,5.2755,5.2865,5.2471,5.1611,5.0988,5.0775,5.0914,5.1314,5.1914,5.2623,5.272,5.2799,5.2839,5.2325,5.1918,5.1584,5.154,5.1063,5.035,5.0434,5.0261,5.0049,5.0608,5.1025,5.1305,5.0924,5.0672,5.0491,4.9962,4.9977,5.0258,5.0363,5.0993,5.174,5.2069,5.2291,5.2406,5.2058,5.1812,5.1563,5.1121,5.1069,5.1114,5.1095,5.1075,5.1002,5.0944,5.0882,5.0888,5.0929,5.0952,5.0966,5.1095,5.1152,5.1219,5.1295,5.1372,5.1408,5.1414,5.1382,5.1387,5.1387,5.1387,5.1384,5.1414,5.1403,5.1534,5.1865,5.1818,5.1769,5.1746,5.1746,5.1552,5.1202,5.1202,5.1202,5.1202,5.1202,5.1202,5.1202,5.1197,5.1185,5.1211,5.1261,5.1821,5.2687,5.3171,5.4479,5.6052,5.6445,5.6601,5.6601]}]]